     2.10           OBSERVATION DATA    G (GPS)             RINEX VERSION / TYPE
Convert 06-Sep-2004 20:44                                   PGM / RUN BY / DATE
Signal Strength values S1,S2 are in dBHz                    COMMENT
                                                            MARKER NAME
                                                            MARKER NUMBER
                                                            OBSERVER / AGENCY
NovAtel GPSCard                                             REC # / TYPE / VERS
                                                            ANT # / TYPE
 -1288181.7322 -4720798.0572  4079723.0722                  APPROX POSITION XYZ
        0.0000        0.0000        0.0000                  ANTENNA: DELTA H/E/N
     1     1                                                WAVELENGTH FACT L1/2
     1     1     7   G01   G03   G05   G09   G11   G13   G14WAVELENGTH FACT L1/2
     1     1     7   G15   G18   G19   G20   G22   G24   G25WAVELENGTH FACT L1/2
     1     1     4   G26   G28   G29   G30                  WAVELENGTH FACT L1/2
                                                            COMMENT
                                                            COMMENT
     8    C1    L1    D1    S1    P2    L2    D2    S2      # / TYPES OF OBSERV
    60.000                                                  INTERVAL
  2004    09    01    18    07    0.0000000     GPS         TIME OF FIRST OBS
  2004    09    02    16    42    0.0000000     GPS         TIME OF LAST OBS
Leap Seconds Unknown                                        COMMENT
                                                            END OF HEADER
 04 09 01 18 07  0.0000000  0  8G25G 1G20G11G14G23G16G30
  20926355.07649 107124915.95349     -1500.45749        48.200    20926355.26846
  83474449.83946     -1169.19146        43.100
  20769176.13249 106298935.52649       937.50449        48.100    20769176.64646
  82830835.94346       730.52046        42.100
  21088838.83348 107978776.37648      1785.75848        47.300    21088838.62845
  84139800.10345      1391.49645        40.600
  23818329.02246 122322330.90846     -2443.25846        42.800    23818330.10943
  95316582.87543     -1903.84043        35.400
  23961710.58545 125919622.15545     -2603.04745        41.100    23961711.64942
  98119182.46642     -2028.35242        32.500
  22595170.85447 115894613.06347      2506.41447        43.400    22595168.89745
  90307971.39445      1953.04745        39.000
  22582127.06347 118669896.20347      3030.24647        43.700    22582127.67044
  92470063.61744      2361.22744        36.700
  24278426.44543 127583984.63043     -2652.88743        34.600

 04 09 01 18 08  0.0000000  0  8G25G 1G20G11G14G23G16G30
  20943601.78649 107215547.46049     -1520.52049        48.300    20943601.93146
  83545071.77446     -1184.82446        43.000
  20758550.18549 106243096.86049       923.81349        47.800    20758550.72446
  82787325.29846       719.85246        42.100
  21068626.91548 107872562.23048      1754.89148        46.900    21068626.82145
  84057035.81545      1367.44545        40.700
  23846293.36146 122469283.83646     -2454.89846        42.900    23846294.41543
  95431091.50443     -1912.91443        34.800
  23991469.54845 126076007.05545     -2609.56345        40.600    23991471.02942
  98241040.64442     -2033.43042        33.100
  22566593.55347 115744438.09547      2499.50847        43.600    22566591.47944
  90190952.01344      1947.66444        38.400
  22547634.54347 118488635.80947      3011.90247        44.000    22547635.04243
  92328821.87843      2346.93443        34.800
  24308876.47042 127743999.33742     -2679.73442        34.100    24308876.13541
  99540785.57451     -2088.10941        22.700
 04 09 01 18 09  0.0000000  0  8G25G 1G20G11G14G23G16G30
  20961076.78149 107307379.30149     -1540.94149        48.100    20961076.88346
  83616629.03946     -1200.73846        42.800
  20748081.49749 106188083.50749       909.39149        48.000    20748082.05246
  82744457.75046       708.61346        42.000
  21048770.55248 107768216.21648      1722.83648        47.100    21048770.25645
  83975727.23245      1342.46545        40.900
  23874387.63846 122616921.95546     -2466.96546        42.600    23874389.12743
  95546134.05843     -1922.31643        34.600
  24021301.12245 126232772.38545     -2616.44945        40.200    24021302.68643
  98363195.28143     -2038.79343        35.100
  22538094.27047 115594674.22447      2492.03147        43.800    22538092.16345
  90074252.95945      1941.84045        39.500
  22513352.28046 118308484.07146      2992.59446        43.300    22513353.15743
  92188444.04743      2331.88743        36.600
  24339627.70242 123873467.61452     -2707.15642        32.800    24339623.44241
  99666697.62351     -2109.47741        30.600
 04 09 01 18 10  0.0000000  0  8G25G 1G20G11G14G23G16G30
  20978778.73749 107400403.24249     -1560.48449        48.000    20978778.74846
  83689115.20646     -1215.96546        42.500
  20737771.44348 106133903.71848       895.80548        47.700    20737772.11246
  82702239.74146       698.02746        42.400
  21029273.80848 107665760.71148      1691.53948        47.000    21029273.77246
  83895891.79746      1318.07846        41.700
  23902609.15746 122765227.39646     -2477.37946        42.700    23902610.86842
  95661696.64642     -1930.43042        34.200
  24051206.08845 126389921.92045     -2622.33245        40.100    24051207.21343
  98485649.26543     -2043.38343        35.900
  22509675.31147 115445332.37747      2485.16847        43.800    22509673.54945
  89957882.76245      1936.49245        39.400
  22479286.84547 118129470.08947      2973.61747        43.600    22479287.65743
  92048952.76443      2317.10243        35.600
  24370679.85742 124036640.44542     -2732.57042        33.900    24370675.88441
  99793834.99351     -2129.27741        29.100
 04 09 01 18 11  0.0000000  0  7G25G 1G20G11G14G23G16
  20996704.29549 107494602.86449     -1579.56349        48.100    20996704.23846
  83762517.48646     -1230.83246        42.100
  20727620.26348 106080559.58448       882.17248        47.600    20727621.16546
  82660672.89246       687.40246        42.200
  21010139.60448 107565210.26348      1660.00848        47.200    21010139.69546
  83817540.80546      1293.50846        41.500
  23930953.08146 122914175.64346     -2487.65646        41.900    23930954.78343
  95777760.09143     -1938.43843        35.000
  24081182.97145 126547451.89545     -2628.61345        40.400    24081184.69441
  98608399.72041     -2048.27341        31.300
  22481337.09647 115296415.33347      2478.42647        43.500    22481335.63045
  89841843.56745      1931.23845        39.200
  22445441.88646 117951615.15646      2954.48046        42.900    22445443.00644
  91910364.66244      2302.18844        36.700
 04 09 01 18 12  0.0000000  0  8G25G 1G20G11G14G23G16G30
  21014849.66449 107589957.78849     -1599.66849        48.000    21014849.56546
  83836820.00046     -1246.49646        41.900
  20717627.86149 106028048.48249       867.47349        48.000    20717628.58246
  82619755.15346       675.94946        42.700
  20991370.02448 107466574.92848      1627.13748        47.100    20991370.04146
  83740682.11946      1267.89546        42.100
  23959413.77846 123063736.99246     -2498.34046        42.200    23959415.45942
  95894301.27442     -1946.76242        33.200
  24111231.30645 126705354.76245     -2635.92245        40.600    24111232.70842
  98731440.74642     -2053.96942        32.900
  22453079.77947 115147921.78647      2470.60547        44.200    22453078.08145
  89726134.35345      1925.14545        38.900
  22411820.42546 117774936.22446      2934.02346        43.200    22411821.43643
  91772692.88443      2286.25043        36.400
  24433658.41842 124026116.24952     -2783.80142        32.400

 04 09 01 18 13  0.0000000  0  7G25G 1G20G11G14G23G16
  21033214.31949 107686464.35749     -1617.50049        48.000    21033214.12246
  83912019.90246     -1260.39546        42.000
  20707796.76349 105976384.59649       854.41049        48.000    20707797.27146
  82579497.59146       665.77046        42.400
  20972970.02648 107369881.70848      1595.80548        47.200    20972969.94346
  83665336.76546      1243.48046        41.900
  23987988.99846 123213898.71346     -2506.89546        41.600    23987990.45842
  96011310.25242     -1953.43042        33.900
  24141351.96345 126863639.42945     -2640.82445        39.900    24141353.43241
  98854779.26841     -2057.78941        29.900
  22424906.17947 114999867.14447      2464.38747        44.600    22424904.20545
  89610767.13445      1920.29745        39.800
  22378429.69347 117599467.10447      2914.83247        43.500    22378430.71844
  91635963.83144      2271.29344        37.000
 04 09 01 18 14  0.0000000  0  7G25G 1G20G11G14G23G16
  21051794.84749 107784105.36349     -1636.38349        48.000    21051794.66046
  83988103.78146     -1275.10546        41.700
  20698126.74049 105925569.10849       840.16049        47.800    20698127.30146
  82539901.10646       654.66846        41.900
  20954942.00948 107275144.16148      1562.94948        47.300    20954942.04146
  83591515.29846      1217.87946        41.400
  24016673.06445 123364635.33545     -2516.44545        40.000    24016674.81141
  96128767.26941     -1960.87141        29.600
  24171544.52545 127022301.96645     -2647.57845        40.100    24171545.70642
  98978412.20942     -2063.05142        33.900
  22396816.44547 114852254.43447      2456.88747        44.700    22396814.35145
  89495744.28645      1914.45345        39.900
  22345273.25347 117425228.12247      2893.83647        43.400    22345274.13344
  91500193.31544      2254.93444        37.800
 04 09 01 18 15  0.0000000  0  7G25G 1G20G11G14G23G16
  21070588.22849 107882865.25949     -1655.21149        47.800    21070588.06946
  84065059.50946     -1289.77746        42.200
  20688618.40149 105875603.80749       825.69549        47.800    20688619.29146
  82500967.11046       643.39546        42.600
  20937288.60048 107182376.15848      1529.71148        46.800    20937288.83946
  83519228.55646      1191.98046        42.100
  24045462.07845 123515921.88445     -2526.05545        40.300    24045463.60741
  96246652.74441     -1968.35941        31.700
  24201808.20345 127181339.01245     -2653.41845        40.300    24201810.15542
  99102336.99642     -2067.60242        33.000
  22368811.17847 114705086.82947      2449.25047        44.900    22368809.28944
  89381068.27444      1908.50444        38.500
  22312354.95447 117252240.82947      2872.64147        44.000    22312355.89744
  91365398.14544      2238.41844        37.300
 04 09 01 18 16  0.0000000  0  7G25G 1G20G11G14G23G16
  21089592.38449 107982732.11749     -1673.60949        47.800    21089592.22346
  84142877.81246     -1304.11346        42.200
  20679273.43749 105826495.47249       811.40649        48.100    20679274.31846
  82462700.87946       632.26246        42.400
  20920013.95348 107091597.05248      1496.28948        47.000    20920014.09146
  83448491.61046      1165.93846        42.200
  24074351.90345 123667738.46045     -2534.59845        39.100    24074353.52242
  96364951.26942     -1975.01642        33.300
  24232143.75245 127340752.02145     -2659.91445        40.300    24232145.97442
  99226554.74542     -2072.66442        33.400
  22340892.44647 114558373.10647      2441.38747        44.400    22340890.53944
  89266745.93144      1902.37544        38.600
  22279679.96447 117080531.14447      2851.09847        44.100    22279680.64544
  91231598.50744      2221.63344        38.200
 04 09 01 18 17  0.0000000  0  7G25G 1G20G11G14G23G16
  21108804.45949 108083692.46149     -1692.75049        47.800    21108804.32446
  84221548.18646     -1319.02746        41.500
  20670092.43649 105778248.02149       795.75449        48.500    20670093.01446
  82425105.45846       620.06646        42.900
  20903120.64148 107002821.33648      1461.68848        47.300    20903120.46646
  83379315.73146      1138.97346        42.600
  24103338.23644 123820061.44644     -2543.70344        38.600    24103340.28742
  96483644.37542     -1982.10942        34.300
  24262550.47945 127500539.04145     -2667.32045        40.200    24262552.27243
  99351063.89743     -2078.43443        34.900
  22313060.89547 114412117.69947      2432.63347        44.400    22313059.05145
  89152780.74745      1895.55545        40.200
  22247251.71147 116910121.51247      2827.96147        43.600    22247252.68843
  91098811.91443      2203.60243        36.200
 04 09 01 18 18  0.0000000  0  7G25G 1G20G11G14G23G16
  21128220.82848 108185726.23248     -1709.39548        47.700    21128220.90746
  84301054.98246     -1332.00046        41.500
  20661074.72149 105730859.75849       782.85549        48.100    20661075.20946
  82388179.54546       610.01646        42.100
  20886610.11148 106916058.85948      1429.30148        46.900    20886610.20246
  83311708.60146      1113.73846        42.200
  24132415.21944 123972862.50644     -2550.46944        37.300    24132417.25741
  96602710.01241     -1987.38341        28.200
  24293027.20945 127660692.75745     -2671.93845        39.700    24293028.29141
  99475858.81141     -2082.03141        31.000
  22285316.58747 114266320.95447      2426.40647        44.700    22285314.58244
  89039172.95444      1890.70344        38.500
  22215074.49347 116741029.37347      2807.24247        44.100    22215075.42944
  90967051.93544      2187.45744        36.900
 04 09 01 18 19  0.0000000  0  7G25G 1G20G11G14G23G16
  21147841.30949 108288831.73549     -1728.22349        47.800    21147841.27746
  84381396.91146     -1346.67246        42.000
  20652223.70549 105684347.84749       766.95749        48.300    20652224.33246
  82351936.50646       597.62546        42.400
  20870488.33548 106831337.89848      1393.99248        47.000    20870488.39146
  83245692.27146      1086.22346        42.300
  24161581.65444 124126131.27144     -2559.16444        37.400    24161582.47741
  96722140.09941     -1994.15641        27.500
  24323575.48645 127821225.05445     -2679.89545        39.100    24323576.90443
  99600948.65443     -2088.23843        35.000
  22257663.15847 114121001.68247      2416.98047        44.700    22257660.96245
  88925937.20945      1883.35945        39.000
  22183154.53747 116573289.92547      2783.39147        43.800    22183155.53544
  90836345.98144      2168.87144        37.300
 04 09 01 18 20  0.0000000  0  7G25G 1G20G11G14G23G16
  21167660.17748 108392980.51748     -1744.49248        47.500    21167660.21346
  84462551.76746     -1359.34846        41.900
  20643537.70749 105638702.03049       753.39149        48.400    20643538.32546
  82316368.32346       587.05546        42.600
  20854754.93748 106748658.72848      1360.87948        47.300    20854755.00046
  83181266.94246      1060.42246        41.900
  24190829.95843 124279830.88343     -2565.28543        36.300    24190834.70141
  99057393.89351     -1998.92641        18.800
  24354192.58345 127982119.45645     -2684.59845        38.900    24354194.09042
  99726320.76542     -2091.89842        33.000
  22230099.02647 113976151.03447      2409.96547        44.300    22230096.99344
  88813066.61944      1877.89144        38.600
  22151493.68047 116406911.73647      2761.48447        44.600    22151494.56044
  90706700.75544      2151.80544        38.000
 04 09 01 18 21  0.0000000  0  7G25G 1G20G11G14G23G16
  21187677.45448 108498172.30648     -1761.67648        47.700    21187677.43246
  84544519.37146     -1372.73846        41.300
  20635019.76549 105593939.88549       738.78549        48.500    20635020.53146
  82281488.73846       575.67246        42.700
  20839415.67548 106668049.76748      1326.21548        47.400    20839415.57746
  83118454.76446      1033.41046        41.900
  24220157.88141 124433951.25441     -2571.48441        31.900

  24384880.63045 128143388.09845     -2690.96945        38.900    24384882.86841
  99851984.39241     -2096.87141        27.800
  22202627.58247 113831788.26547      2402.10547        44.300    22202625.36945
  88700576.20445      1871.76645        40.300
  22120098.80247 116241930.20747      2737.85547        45.300    22120099.36044
  90578143.83044      2133.39144        37.300
 04 09 01 18 22  0.0000000  0  6G25G 1G20G14G23G16
  21207889.31448 108604386.63948     -1778.68048        47.700    21207889.42546
  84627283.75846     -1385.98846        41.600
  20626669.60649 105550059.41049       723.82449        48.400    20626670.22646
  82247296.16146       564.01646        42.100
  20824471.95848 106589518.88848      1291.34048        47.600    20824471.63946
  83057261.88346      1006.23446        41.800
  24415639.02144 128305022.86644     -2697.34044        38.800    24415641.45241
  99977933.38841     -2101.82841        30.800
  22175249.16947 113687912.95647      2393.70347        44.500    22175246.58644
  88588465.61044      1865.21944        38.100
  22088972.58647 116078361.36747      2714.24247        44.700    22088973.11043
  90450687.70743      2114.99243        36.600
 04 09 01 18 23  0.0000000  0  6G25G 1G20G14G23G16
  21228293.25248 108711610.59748     -1795.49648        47.600    21228293.45346
  84710834.86246     -1399.09046        41.700
  20618488.17949 105507066.03049       709.12549        48.400    20618488.82646
  82213794.81746       552.56346        42.400
  20809926.31948 106513081.04048      1256.45348        47.400    20809926.00146
  82997699.92346       979.05146        42.700
  24446467.07844 128467022.97244     -2703.17644        38.800    24446469.38541
 100104167.02541     -2106.37941        31.700
  22147964.74047 113544532.35947      2385.61747        44.800    22147962.20244
  88476740.50444      1858.91844        38.300
  22058119.43847 115916228.41247      2690.27047        44.700    22058120.28244
  90324350.44944      2096.31344        37.300
 04 09 01 18 24  0.0000000  0  6G25G 1G20G14G23G16
  21248886.92948 108819830.11548     -1811.63348        47.600    21248887.01945
  84795161.72345     -1411.66445        41.100
  20610476.55749 105464964.79649       694.26649        48.400    20610477.28046
  82180988.66446       540.98446        42.700
  20795781.53248 106438750.59748      1221.32048        47.200    20795781.43946
  82939780.10746       951.67646        41.900
  24477364.31644 128629387.61344     -2708.79744        38.700    24477366.80943
 100230684.71443     -2110.75443        35.300
  22120775.66647 113401653.33047      2377.34847        44.700    22120773.48244
  88365406.24344      1852.47744        38.600
  22027544.16247 115755554.01947      2666.02347        44.900    22027544.93844
  90199149.73144      2077.41844        38.600
 04 09 01 18 25  0.0000000  0  6G25G 1G20G14G23G16
  21269667.77348 108929033.26048     -1828.21148        47.700    21269667.74646
  84880255.05646     -1424.58246        41.700
  20602636.00149 105423761.55149       679.39149        48.500    20602636.48646
  82148882.23646       529.39146        42.700
  20782040.61948 106366543.00548      1185.80548        46.900    20782040.97046
  82883514.46346       924.00046        42.600
  24508330.77545 128792116.19245     -2714.99645        39.000    24508333.08341
 100357485.94841     -2115.59041        30.700
  22093683.53148 113259283.35648      2368.56648        45.800    22093681.08644
  88254468.63844      1845.63344        38.700
  21997251.00347 115596361.48147      2640.77347        45.400    21997251.48645
  90075103.69445      2057.74245        39.000
 04 09 01 18 26  0.0000000  0  6G25G 1G20G14G23G16
  21290633.19049 109039207.28449     -1844.10249        47.800    21290633.03946
  84966104.92246     -1436.96546        41.400
  20594967.29149 105383462.43249       664.31349        48.100    20594967.96746
  82117480.32046       517.64546        42.600
  20768706.76448 106296472.94148      1150.05548        46.900    20768706.94046
  82828914.41646       896.14546        42.000
  24539366.33044 128955208.73444     -2721.30144        38.600    24539368.63741
 100484570.83341     -2120.50041        31.200
  22066689.74947 113117430.12947      2359.74247        45.500    22066687.54044
  88143933.70144      1838.75844        38.800
  21967244.02747 115438673.85147      2615.47347        45.200    21967244.60245
  89952230.32145      2038.02745        39.500
 04 09 01 18 27  0.0000000  0  6G25G 1G20G14G23G16
  21311780.50049 109150336.83249     -1860.10949        47.900    21311780.39846
  85052699.35646     -1449.43846        41.700
  20587471.12449 105344070.42149       648.84049        48.200    20587472.03846
  82086785.25046       505.58646        42.700
  20755781.94048 106228551.99748      1114.06648        47.100    20755781.86046
  82775989.00946       868.10246        41.600
  24570470.46744 129118662.05044     -2727.05944        38.400    24570472.51041
 100611936.86841     -2125.00841        27.100
  22039795.26047 112976098.95047      2351.02747        45.400    22039792.92144
  88033805.54444      1831.96544        38.800
  21937527.05447 115282511.36147      2589.91047        45.500    21937527.63344
  89830545.37244      2018.10944        38.700
 04 09 01 18 28  0.0000000  0  6G25G 1G20G14G23G16
  21333107.20149 109262408.90449     -1875.54349        48.000    21333107.00146
  85140028.21946     -1461.46546        41.700
  20580148.69449 105305590.40049       633.87549        48.300    20580149.49146
  82056800.81146       493.92646        42.700
  20743268.70648 106162793.68648      1077.93048        47.300    20743268.52646
  82724748.77346       839.94146        41.800
  24601643.08844 129282474.73244     -2733.08644        38.000    24601644.61741
 100739582.90541     -2129.68841        31.100
  22013001.42847 112835296.54247      2342.43047        45.400    22012999.06844
  87924089.41544      1825.26644        37.800
  21908104.31648 115127895.61448      2563.97348        45.700    21908105.09745
  89710065.65445      1997.89845        39.000
 04 09 01 18 29  0.0000000  0  6G25G 1G20G14G23G16
  21354610.13848 109375408.16048     -1890.96548        47.700    21354610.10246
  85228079.57046     -1473.48046        41.500
  20573000.29449 105268026.15849       618.44149        47.800    20573001.18946
  82027529.98046       481.89846        43.300
  20731169.01548 106099209.18648      1041.63748        47.300    20731168.95346
  82675202.41846       811.66046        41.900
  24632883.68044 129446643.91644     -2738.83244        37.800    24632886.04341
 100867506.76441     -2134.15641        14.500
  21986309.22647 112695028.47947      2333.24647        45.300    21986307.09444
  87814789.68744      1818.10944        37.600
  21878979.93247 114974846.56747      2537.78547        45.300    21878980.72345
  89590806.73845      1977.49245        38.900
 04 09 01 18 30  0.0000000  0  6G25G 1G20G14G23G16
  21376287.68049 109489324.29949     -1906.27749        47.800    21376287.76546
  85316845.36946     -1485.41446        41.800
  20566027.71149 105231385.33149       602.80149        47.800    20566028.59246
  81998978.69646       469.71146        42.800
  20719485.91648 106037813.69548      1004.91448        47.300    20719485.72546
  82627361.78046       783.04746        41.800
  24664192.31544 129611170.22544     -2744.90644        38.100    24664194.47741
 100995708.87641     -2138.89141        32.100
  21959720.53147 112555304.25447      2324.20347        44.700    21959718.20345
  87705913.70645      1811.06345        38.900
  21850158.56548 114823388.57748      2510.87548        46.000    21850159.05744
  89472787.60644      1956.52344        38.500
 04 09 01 18 31  0.0000000  0  6G25G 1G20G14G23G16
  21398137.07848 109604143.25148     -1921.02048        47.700    21398137.14446
  85406314.66346     -1496.90246        41.200
  20559231.79749 105195672.43249       587.43049        47.900    20559232.44946
  81971150.47146       457.73446        42.700
  20708221.46048 105978618.99848       968.13748        47.300    20708221.21846
  82581236.04446       754.39146        42.400
  24695568.46944 129776051.92344     -2751.03944        37.300    24695570.95341
 101124187.89141     -2143.67641        28.000
  21933236.61047 112416130.54247      2315.02747        44.900    21933234.24244
  87597466.71444      1803.91444        38.100
  21821643.69148 114673542.03648      2484.08248        45.800    21821644.18445
  89356024.13045      1935.64545        39.000
 04 09 01 18 32  0.0000000  0  6G25G 1G20G14G23G16
  21420155.93548 109719853.49948     -1935.71548        47.500    21420156.03646
  85496478.46646     -1508.35246        41.200
  20552613.94349 105160894.64749       571.94949        48.100    20552614.37046
  81944050.90546       445.67246        42.700
  20697378.33348 105921638.73348       931.27748        47.300    20697378.19846
  82536835.83646       725.66846        42.200
  24727012.17344 129941289.40744     -2756.75844        37.500    24727015.10441
 101252944.15641     -2148.12941        30.000
  21906859.15447 112277516.41347      2305.69547        45.400    21906856.87644
  87489455.75144      1796.64144        38.300
  21793440.06748 114525329.86648      2456.62948        46.400    21793440.41745
  89240534.17645      1914.25445        39.100
 04 09 01 18 33  0.0000000  0  6G25G 1G20G14G23G16
  21442341.41548 109836439.21848     -1950.33248        47.400    21442341.66446
  85587324.46946     -1519.74246        41.400
  20546174.40449 105127054.50449       556.10549        48.300    20546174.92846
  81917681.97246       433.32446        42.600
  20686958.43048 105866881.90448       894.09448        47.200    20686958.32746
  82494168.17346       696.69146        42.200
  24758522.58843 130106877.97643     -2762.95743        36.600    24758525.19341
 101381973.99341     -2152.96541        23.800
  21880589.19948 112139466.77448      2296.10548        45.700    21880586.92244
  87381884.65444      1789.17244        37.600
  21765550.23448 114378769.73948      2428.87548        45.900    21765550.65945
  89126331.52645      1892.62545        39.100
 04 09 01 18 34  0.0000000  0  6G25G 1G20G14G23G16
  21464691.49748 109953889.01648     -1964.34848        47.300    21464691.68946
  85678843.76646     -1530.66446        41.500
  20539914.60549 105094159.13249       540.66449        48.300    20539915.26846
  81892049.22446       421.29346        42.600
  20676964.22248 105814361.77748       856.79748        47.300    20676964.20146
  82453243.39646       667.62946        42.400
  24790100.21944 130272817.36844     -2768.53944        36.900    24790102.20641
 101511277.16741     -2157.30941        29.300
  21854428.15748 112001990.34348      2286.83248        45.700    21854426.11544
  87274760.18944      1781.94544        38.600
  21737979.37548 114233884.25648      2400.98848        46.300    21737979.65144
  89013433.81744      1870.89844        38.600
 04 09 01 18 35  0.0000000  0  6G25G 1G20G14G23G16
  21487202.79748 110072186.88048     -1978.79348        47.400    21487202.94046
  85771023.89046     -1541.91846        41.900
  20533835.16249 105062211.25549       524.44149        48.500    20533835.88746
  81867154.77546       408.65246        42.800
  20667397.11948 105764086.54248       819.06348        47.200    20667397.02546
  82414067.88646       638.22746        42.000
  24821743.78843 130439103.79043     -2774.50843        36.300    24821745.66942
 101640850.74942     -2161.96542        33.500
  21828377.41147 111865092.11947      2276.72747        45.500    21828375.10045
  87168086.28045      1774.07045        38.900
  21710730.64748 114090691.30848      2372.22748        46.300    21710730.66545
  88901854.95045      1848.48445        39.000
 04 09 01 18 36  0.0000000  0  6G25G 1G20G14G23G16
  21509874.21748 110191325.78448     -1992.36748        47.200    21509874.41046
  85863859.36746     -1552.49646        42.100
  20527938.10349 105031222.01249       508.60249        48.500    20527938.59447
  81843007.32047       396.30947        43.400
  20658260.53448 105716073.15648       781.35548        47.300    20658260.29446
  82376654.85246       608.84446        42.100
  24853453.83043 130605741.39943     -2780.52743        35.000    24853456.76043
 101770697.98243     -2166.66043        35.800
  21802439.11448 111728785.49348      2266.85248        45.900    21802437.13644
  87061873.37244      1766.37544        38.300
  21683809.02548 113949216.88148      2343.56648        46.000    21683809.35245
  88791615.18845      1826.15245        39.000
 04 09 01 18 37  0.0000000  0  6G25G 1G20G14G23G16
  21532702.09048 110311288.00448     -2006.02348        47.000    21532702.64246
  85957336.39246     -1563.13746        42.200
  20522223.70149 105001192.01349       492.59849        48.300    20522224.06146
  81819607.32246       383.84046        43.000
  20649555.26548 105670326.39748       743.59448        47.200    20649555.00246
  82341008.01446       579.42246        42.400
  24885229.65843 130772723.07043     -2785.65643        36.300    24885232.95441
 101900813.28341     -2170.64841        29.400
  21776613.91648 111593073.40848      2257.02048        46.000    21776611.73744
  86956123.73644      1758.71544        38.800
  21657217.01348 113809475.82148      2314.62148        46.200    21657217.27444
  88682726.10244      1803.59844        38.100
 04 09 01 18 38  0.0000000  0  6G25G 1G20G14G23G16
  21555684.95548 110432063.82148     -2019.33248        46.700    21555685.40446
  86051447.38646     -1573.50846        41.600
  20516693.27449 104972129.40349       476.50849        48.500    20516693.57046
  81796961.13946       371.30146        42.600
  20641283.91248 105626859.97848       705.69948        47.200    20641283.74946
  82307138.07546       549.89146        42.300
  24917071.11944 130940050.07044     -2791.34044        36.900    24917074.94541
 102031197.76141     -2175.07041        24.800
  21750904.03448 111457966.47948      2246.87148        46.000    21750901.61645
  86850845.64345      1750.80545        39.800
  21630959.32148 113671490.71648      2285.18048        46.200    21630959.52644
  88575205.31744      1780.65644        38.100
 04 09 01 18 39  0.0000000  0  6G25G 1G20G14G23G16
  21578818.92048 110553633.42948     -2033.32448        46.600    21578819.30545
  86146176.93945     -1584.41045        40.800
  20511346.64149 104944033.05049       459.54349        48.400    20511347.18046
  81775067.87646       358.08246        42.500
  20633446.85248 105585676.61548       666.75048        47.200    20633446.80046
  82275047.13846       519.54346        42.700
  24948976.93943 131107713.74943     -2797.45743        35.700    24948979.80641
 102161844.44941     -2179.84041        18.300
  21725309.32448 111323466.07148      2235.94148        46.100    21725306.78244
  86746040.16844      1742.28944        38.800
  21605038.22448 113535274.87048      2254.76648        46.300    21605038.46144
  88469063.18444      1756.95744        38.600
 04 09 01 18 40  0.0000000  0  6G25G 1G20G14G23G16
  21602105.20448 110676002.87148     -2045.83248        46.800    21602105.60145
  86241529.72645     -1594.15645        40.900
  20506188.68049 104916927.68549       443.60549        48.400    20506189.22646
  81753946.81346       345.66446        43.100
  20626049.83648 105546804.79548       628.79348        47.100    20626049.76446
  82244757.40546       489.96546        42.700
  24980949.51444 131275731.41244     -2803.09844        36.900    24980952.12941
 102292766.92141     -2184.24241        15.500
  21699835.23448 111189599.38548      2226.09848        45.900    21699832.84845
  86641728.50945      1734.61745        39.900
  21579461.05648 113400866.27148      2225.14848        46.600    21579461.39144
  88364329.32744      1733.87944        38.800
 04 09 01 18 41  0.0000000  0  6G25G 1G20G14G23G16
  21625537.79348 110799141.36748     -2058.57848        46.700    21625538.06945
  86337481.78145     -1604.09045        41.000
  20501216.86349 104890800.83649       427.32849        48.400    20501217.21746
  81733588.23746       332.98046        43.000
  20619090.77048 105510235.26248       590.34448        47.000    20619090.82146
  82216261.66246       460.00446        42.400
  25012985.62143 131444082.75143     -2808.51643        35.000    25012988.62741
 102423949.48341     -2188.32441        23.500
  21674479.92848 111056356.19348      2215.56348        46.600    21674477.42945
  86537902.66845      1726.41045        39.700
  21554228.02648 113268265.94548      2194.93848        46.400    21554228.15244
  88261004.49944      1710.33644        38.300
 04 09 01 18 42  0.0000000  0  6G25G 1G20G14G23G16
  21649114.49148 110923038.67348     -2071.01248        46.600    21649114.79545
  86434025.11545     -1613.77745        40.800
  20496432.63149 104865660.19449       410.94549        48.600    20496433.18846
  81713998.13046       320.21546        43.300
  20612572.09748 105475979.15048       551.76248        47.300    20612572.16646
  82189568.59246       429.94146        42.400
  25045085.64843 131612768.22643     -2813.76243        34.700    25045089.43341
 102555392.42841     -2192.54341        17.200
  21649245.20348 110923746.97648      2205.06648        46.300    21649242.69045
  86434570.85145      1718.23045        39.400
  21529343.06748 113137495.06048      2164.34448        46.300    21529343.24844
  88159105.21544      1686.50044        38.700
 04 09 01 18 43  0.0000000  0  6G25G 1G20G14G23G16
  21672834.57848 111047689.00748     -2083.47748        46.200    21672834.84646
  86531155.22346     -1623.49246        41.500
  20491838.55549 104841517.92049       394.06349        48.500    20491839.22546
  81695185.96746       307.05946        43.200
  20606496.71248 105444051.57048       512.74648        47.400    20606496.37646
  82164689.94646       399.53946        42.300
  25077249.65942 131781791.95242     -2819.27042        34.100    25077255.11041
 102687098.88441     -2196.84041        26.500
  21624133.77448 110791786.45748      2194.14848        46.200    21624131.56745
  86331744.51845      1709.72345        38.900
  21504810.82448 113008578.12848      2133.28148        46.700    21504811.21545
  88058650.56145      1662.29345        39.700
 04 09 01 18 44  0.0000000  0  5G25G 1G20G23G16
  21696695.29948 111173077.97848     -2091.41848        46.200    21696695.62146
  86628860.88246     -1629.68046        41.600
  20487435.29249 104818377.66549       381.91849        48.800    20487435.73446
  81677154.59746       297.59446        43.000
  20600865.42748 105414458.60548       478.35248        47.500    20600865.03946
  82141630.48046       372.73846        42.800
  21599147.22948 110660481.24348      2187.37948        45.800    21599144.92944
  86229428.81544      1704.44944        38.800
  21480634.97348 112881532.51848      2106.44148        47.100    21480635.22844
  87959654.08444      1641.37944        38.800
 04 09 01 18 45  0.0000000  0  5G25G 1G20G23G16
  21720690.31948 111299171.88048     -2107.68048        46.300    21720690.59146
  86727115.84346     -1642.35246        41.200
  20483219.69849 104796224.71049       360.64149        48.800    20483220.10446
  81659892.55546       281.01646        42.800
  20595675.72948 105387186.89948       434.86748        47.300    20595675.48146
  82120379.79746       338.85546        42.900
  21574282.70848 110529818.95248      2172.00448        45.900    21574280.72945
  86127614.09845      1692.46945        39.700
  21456814.41748 112756354.73648      2070.39848        46.900    21456814.40545
  87862113.06145      1613.29345        39.100
 04 09 01 18 46  0.0000000  0  5G25G 1G20G23G16
  21744823.02748 111425990.12848     -2119.23048        46.200    21744823.19345
  86825935.23845     -1651.35245        39.900
  20479198.96449 104775095.80149       343.81349        48.600    20479199.66846
  81643428.46546       267.90246        43.100
  20590934.91748 105362274.89448       395.80148        47.100    20590934.91246
  82100967.85546       308.41446        43.100
  21549548.54148 110399839.45448      2160.85248        46.100    21549546.50045
  86026331.41945      1683.77745        40.100
  21433358.49548 112633094.00848      2038.59848        46.800    21433358.48245
  87766065.83545      1588.51645        39.300
 04 09 01 18 47  0.0000000  0  5G25G 1G20G23G16
  21769089.89748 111553512.76048     -2130.93048        46.700    21769089.97245
  86925303.50045     -1660.46945        40.000
  20475372.84749 104754989.37449       326.88349        48.600    20475373.53546
  81627761.11846       254.71146        43.200
  20586643.23548 105339722.06248       356.39148        47.000    20586643.25246
  82083394.22346       277.70346        43.000
  21524944.51148 110270543.79048      2149.50448        46.600    21524942.34445
  85925581.57645      1674.93445        40.600
  21410269.35448 112511760.34148      2006.28148        47.100    21410269.38145
  87671520.19845      1563.33245        39.000
 04 09 01 18 48  0.0000000  0  5G25G 1G20G23G16
  21793487.85848 111681723.91948     -2142.87148        46.700    21793487.66045
  87025208.27245     -1669.77345        39.900
  20471741.64649 104735907.47849       309.27749        48.500    20471742.14046
  81612892.11146       240.99246        43.200
  20582800.95348 105319530.59748       316.51648        47.100    20582800.98046
  82067660.61446       246.63346        42.900
  21500471.51448 110141936.95548      2137.41848        46.200    21500469.08345
  85825368.48745      1665.51645        40.700
  21387549.44348 112392367.08948      1973.39148        47.200    21387549.56244
  87578486.57944      1537.70344        38.500
 04 09 01 18 49  0.0000000  0  5G25G 1G20G23G16
  21818015.64148 111810618.65448     -2153.69148        46.600    21818015.37445
  87125645.68745     -1678.20345        40.400
  20468307.86849 104717862.91349       292.22349        48.500    20468308.60647
  81598831.40347       227.70347        43.600
  20579410.72648 105301714.05948       277.31348        47.400    20579410.44146
  82053777.58246       216.08646        42.500
  21476132.39248 110014034.28548      2125.94548        46.500    21476130.19046
  85725704.10546      1656.57846        41.400
  21365203.43048 112274938.02048      1940.90648        47.300    21365203.56645
  87486983.45245      1512.39145        40.200
 04 09 01 18 50  0.0000000  0  6G25G 1G20G23G16G13
  21842670.40748 111940181.38548     -2163.10248        46.100    21842670.61945
  87226603.64445     -1685.53545        39.400
  20465071.89949 104700857.74049       276.49249        48.500    20465072.52446
  81585580.62846       215.44546        43.300
  20576472.75648 105286274.38448       239.31348        47.600    20576472.44946
  82041746.66146       186.47346        42.900
  21451928.50248 109886841.55948      2115.61348        46.200    21451925.92045
  85626592.91445      1648.52745        41.100
  21343233.64948 112159486.16248      1909.29748        47.000    21343233.64445
  87397021.01345      1487.76245        40.200
  24754078.44142 130083564.10252      2973.39142        34.300

 04 09 01 18 51  0.0000000  0  5G25G 1G20G23G16
  21867448.44848 112070390.63948     -2175.57448        46.400    21867448.74945
  87328065.37345     -1695.25445        39.100
  20462033.04849 104684888.34849       257.39149        48.400    20462033.56946
  81573136.95346       200.56346        43.200
  20573986.31748 105273207.86048       197.67648        47.400    20573986.08546
  82031564.94046       154.03146        43.000
  21427859.30148 109760358.23048      2101.91448        46.100    21427856.96645
  85528034.52845      1637.85245        40.900
  21321641.48648 112046018.55148      1874.36748        46.900    21321641.50745
  87308604.73645      1460.54345        39.900
 04 09 01 18 52  0.0000000  0  6G25G 1G20G23G16G13
  21892349.50848 112201245.33948     -2184.08648        46.100    21892349.74745
  87430030.03345     -1701.88745        39.600
  20459194.37049 104669971.42349       241.67649        48.300    20459195.10746
  81561513.37346       188.31646        43.300
  20571954.26148 105262530.05448       159.86748        47.100    20571954.29946
  82023244.57246       124.57046        43.000
  21403929.26948 109634604.46948      2091.72748        46.400    21403926.90345
  85430044.62745      1629.91445        40.600
  21300432.00948 111934562.16648      1842.55948        47.300    21300432.13745
  87221755.64845      1435.75845        40.000
  24686205.42342 129726885.70852      2975.18442        34.200

 04 09 01 18 53  0.0000000  0  5G25G 1G20G23G16
  21917373.03848 112332745.04348     -2201.15648        46.200    21917373.35145
  87532497.30545     -1715.19145        40.000
  20456559.24949 104656123.79449       217.76249        48.400    20456559.86246
  81550723.01846       169.68046        43.000
  20570379.84848 105254256.56748       113.87948        47.600    20570379.77546
  82016797.69346        88.73446        42.500
  21380141.66748 109509600.02448      2073.03948        46.300    21380139.24145
  85332638.60145      1615.35245        40.800
  21279610.39348 111825143.89448      1802.63748        47.200    21279610.47245
  87136494.70145      1404.64845        39.500
 04 09 01 18 54  0.0000000  0  6G25G 1G20G23G16G13
  21942511.78148 112464849.97048     -2206.14848        46.200    21942511.92545
  87635436.16345     -1719.07845        39.900
  20454123.61049 104643323.71349       205.14849        48.400    20454124.08646
  81540748.92746       159.85246        42.800
  20569258.43648 105248363.59248        78.87948        47.400    20569258.23446
  82012205.75146        61.46146        42.000
  21356493.25948 109385326.15648      2065.50848        46.400    21356490.72946
  85235801.86346      1609.48446        41.400
  21259174.07448 111717750.76748      1773.43048        47.000    21259174.12445
  87052811.79945      1381.89145        40.600
  24618293.85543 129369996.79953      2975.75443        34.700    24618294.07741
 100807818.13951      2318.76641        30.500
 04 09 01 18 55  0.0000000  0  5G25G 1G20G23G16
  21967765.34948 112597558.69948     -2220.70348        45.600    21967765.45445
  87738845.52445     -1730.42245        40.100
  20451890.09749 104631587.06649       183.08649        48.100    20451890.62346
  81531603.49546       142.66046        43.100
  20568592.61148 105244864.80348        34.75448        47.100    20568592.51346
  82009479.41346        27.07846        42.400
  21332987.21448 109261802.59248      2048.81648        46.100    21332985.02645
  85139549.78145      1596.47745        40.800
  21239128.05948 111612408.30548      1734.72748        47.400    21239127.66345
  86970726.81845      1351.73045        40.100
 04 09 01 18 56  0.0000000  0  6G25G 1G20G23G16G13
  21993132.39348 112730863.35848     -2225.79348        46.000    21993132.55145
  87842719.25145     -1734.38745        39.000
  20449860.73049 104620923.10049       169.69149        48.300    20449861.15146
  81523293.91346       132.22346        42.300
  20568383.67448 105243766.91248        -0.74248        47.400    20568383.69447
  82008623.90847        -0.58247        43.400
  21309626.60048 109139042.07548      2040.56648        45.800    21309624.16745
  85043892.26445      1590.04745        40.900
  21219475.65648 111509134.27248      1704.85248        47.600    21219475.34845
  86890253.62145      1328.45345        39.900
  24550342.93542 129012924.30452      2977.39842        34.000    24550340.96243
 100529566.70253      2320.04743        35.200
 04 09 01 18 57  0.0000000  0  5G25G 1G20G23G16
  22018610.39348 112864750.77548     -2236.77048        46.000    22018610.75645
  87947047.08145     -1742.94145        40.100
  20448036.48049 104611336.66849       150.30549        48.500    20448037.01946
  81515823.97046       117.11746        42.800
  20568632.10348 105245071.61548       -42.28548        47.500    20568631.93546
  82009640.55746       -32.95346        43.100
  21286412.62347 109017052.48147      2026.13347        45.000    21286410.29445
  84948835.48245      1578.80145        41.100
  21200219.56648 111407942.17648      1668.73848        47.600    21200219.22245
  86811402.70945      1300.31345        40.600
 04 09 01 18 58  0.0000000  0  5G25G 1G20G23G16
  22044201.16448 112999230.42248     -2243.25448        46.000    22044201.32244
  88051836.37944     -1747.99244        38.600
  20446422.31149 104602853.98349       134.95749        48.300    20446422.90246
  81509214.08446       105.15646        43.100
  20569342.02148 105248801.72948       -79.52048        47.600    20569341.60046
  82012547.12846       -61.96546        43.100
  21263351.17947 108895864.01147      2015.73847        45.400    21263349.19746
  84854402.95146      1570.70346        41.300
  21181365.96148 111308866.51648      1636.39548        47.400    21181365.54045
  86734200.97545      1275.10945        40.100
 04 09 01 18 59  0.0000000  0  5G25G 1G20G23G16
  22069897.32348 113134264.43548     -2254.98848        45.900    22069897.67945
  88157057.66045     -1757.13745        39.900
  20445014.07349 104595453.91349       114.49649        48.400    20445014.75246
  81503447.80046        89.21546        43.000
  20570508.66548 105254932.74348      -121.99248        47.400    20570508.29246
  82017324.53246       -95.06346        42.800
  21240438.75948 108775459.34448      2000.38348        45.600    21240436.70846
  84760581.18146      1558.73846        41.300
  21162912.71048 111211894.28048      1598.75448        47.500    21162912.39945
  86658638.27845      1245.77745        39.600
 04 09 01 19 00  0.0000000  0  6G25G 1G20G23G16G13
  22095700.69948 113269861.74348     -2264.64848        45.600    22095700.85845
  88262717.86845     -1764.66445        40.000
  20443816.74949 104589162.09949        95.54349        48.500    20443817.36846
  81498545.08646        74.44546        42.900
  20572136.23048 105263486.54048      -162.82448        47.200    20572136.17047
  82023989.81847      -126.87947        43.400
  21217681.47448 108655868.33148      1986.39848        45.700    21217679.34046
  84667393.41746      1547.84046        41.800
  21144865.92448 111117058.82448      1562.64148        47.300    21144865.49445
  86584740.60045      1217.64145        40.000
  24414366.40043 128298357.74153      2977.71543        35.100    24414370.15641
  99972754.11851      2320.29341        23.700
 04 09 01 19 01  0.0000000  0  6G25G 1G20G23G16G13
  22121607.46448 113406003.40348     -2273.43048        45.700    22121607.84645
  88368802.24145     -1771.50845        39.400
  20442830.31949 104583977.49249        77.27049        48.200    20442830.82946
  81494505.13446        60.20746        43.300
  20574223.82648 105274456.79648      -202.87148        47.600    20574223.73246
  82032538.08546      -158.08646        43.100
  21195079.51448 108537093.61648      1972.81348        45.800    21195077.18245
  84574841.73145      1537.25445        41.000
  21127226.99748 111024365.99348      1527.03948        47.300    21127226.56645
  86512512.49445      1189.89845        39.900
  24380363.31543 128119673.47043      2978.57443        35.500

 04 09 01 19 02  0.0000000  0  6G25G 1G20G23G16G13
  22147614.06848 113542669.37948     -2281.53948        45.600    22147614.51345
  88475295.17345     -1777.82445        38.900
  20442053.73849 104579896.78049        59.45349        48.300    20442054.27246
  81491325.35446        46.32446        43.200
  20576769.85248 105287835.60848      -242.34848        47.700    20576769.59846
  82042963.11846      -188.84446        42.400
  21172632.77648 108419135.54848      1959.79348        45.800    21172630.17446
  84482926.38346      1527.10946        41.600
  21109996.40948 110933819.30448      1491.72748        47.200    21109996.19545
  86441956.70145      1162.38345        40.900
  24346357.69343 127940978.78053      2979.21943        36.300    24346357.13941
  99694264.10751      2321.46541        31.200
 04 09 01 19 03  0.0000000  0  6G25G 1G20G23G16G13
  22173720.34748 113679857.36048     -2290.63348        46.100    22173720.66844
  88582194.86444     -1784.91044        37.800
  20441489.79849 104576933.70349        40.18449        48.100    20441490.52746
  81489016.46346        31.30946        43.300
  20579775.61748 105303630.71548      -283.37148        47.600    20579775.26746
  82055270.98946      -220.81346        43.000
  21150344.89648 108302011.77748      1945.10248        45.900    21150342.39546
  84391661.13646      1515.66046        41.600
  21093178.13548 110845438.96648      1454.89848        47.300    21093177.94045
  86373088.95645      1133.68445        40.500
  24312349.82743 127762269.60053      2978.63343        36.300    24312347.85941
  99555000.05251      2321.00441        29.900
 04 09 01 19 04  0.0000000  0  6G25G 1G20G23G16G13
  22199923.49048 113817554.99748     -2299.30548        45.600    22199923.53244
  88689491.68444     -1791.66844        38.800
  20441139.45949 104575092.79849        21.17249        48.000    20441140.08146
  81487581.98646        16.49646        42.300
  20583240.96349 105321841.43349      -323.69549        47.800    20583240.68446
  82069461.14946      -252.23446        42.900
  21128217.20548 108185731.21048      1930.82848        46.400    21128214.95645
  84301052.94145      1504.53945        40.900
  21076773.99648 110759235.56048      1418.39548        47.300    21076773.84445
  86305917.52545      1105.23845        40.600
  24278342.37743 127583559.48943      2977.94943        35.500    24278342.79542
  99415745.59242      2320.47342        32.700
 04 09 01 19 05  0.0000000  0  6G25G 1G20G23G16G13
  22226222.13047 113955757.13047     -2307.28547        45.300    22226222.40545
  88797181.61545     -1797.88745        39.800
  20441004.88149 104574385.40349         2.49249        48.100    20441005.56546
  81487030.76046         1.93846        42.900
  20587166.86848 105342472.54548      -363.84448        47.700    20587166.56646
  82085537.32346      -283.52046        42.300
  21106253.30748 108070309.24348      1916.66448        46.500    21106250.78046
  84211113.77746      1493.50046        41.700
  21060787.68348 110675226.19148      1381.99648        47.600    21060787.26745
  86240455.72345      1076.87545        41.100
  24244336.97244 127404858.62244      2978.59844        37.500    24244338.51141
  99276498.27941      2320.97741        19.200
 04 09 01 19 06  0.0000000  0  5G25G 1G20G23G16
  22252614.29447 114094448.69147     -2316.14547        44.900    22252614.57944
  88905252.92044     -1804.79344        38.700
  20441086.31549 104574812.62349       -17.27049        48.300    20441086.69046
  81487363.65646       -13.46146        42.500
  20591552.39248 105365518.27048      -404.80148        47.700    20591552.07846
  82103495.01146      -315.43446        42.500
  21084453.67048 107955751.36248      1901.22748        46.500    21084451.14546
  84121847.92646      1481.47346        42.000
  21045220.22048 110593417.78348      1344.28948        47.600    21045219.63545
  86176708.96145      1047.49645        41.000
 04 09 01 19 07  0.0000000  0  6G25G 1G20G23G16G13
  22279097.90347 114233620.90747     -2323.06647        44.900    22279098.42544
  89013698.77344     -1810.18444        38.200
  20441385.02149 104576382.48449       -35.56649        48.100    20441385.46446
  81488586.91946       -27.71946        43.000
  20596397.58348 105390979.80148      -444.20748        47.500    20596397.39646
  82123335.15146      -346.13746        43.200
  21062820.88448 107842070.22448      1887.60948        46.800    21062818.44546
  84033265.24746      1470.85946        41.600
  21030073.88848 110513823.57748      1308.30948        47.500    21030073.54445
  86114687.52745      1019.45745        40.900
  24176333.48244 127047464.95854      2978.32044        38.000    24176333.45741
  98998050.47751      2320.75841        29.700
 04 09 01 19 08  0.0000000  0  6G25G 1G20G23G16G13
  22305674.03347 114373278.91447     -2331.43447        45.000    22305674.41845
  89122523.15145     -1816.70345        39.600
  20441905.11449 104579116.23349       -55.07449        48.100    20441905.60046
  81490717.11646       -42.91846        42.900
  20601705.04348 105418870.88448      -484.92648        47.400    20601704.89046
  82145068.45846      -377.86746        42.800
  21041359.71748 107729291.30348      1872.25048        46.600    21041357.19946
  83945385.60246      1458.89546        41.200
  21015353.60548 110436469.05448      1270.66848        47.100    21015353.57145
  86054411.29545       990.12945        41.100
  24142339.38644 126868829.90244      2977.14844        37.300    24142340.32641
  98858854.46041      2319.85241        29.700
 04 09 01 19 09  0.0000000  0  6G25G 1G20G23G16G13
  22332335.98847 114513386.80847     -2339.05547        45.300    22332336.14845
  89231698.09945     -1822.64545        39.300
  20442643.00249 104582993.66549       -74.39549        48.400    20442643.59346
  81493738.49446       -57.97346        42.900
  20607469.38648 105449163.34548      -525.10548        47.200    20607469.31246
  82168672.96246      -409.17646        42.600
  21020067.09548 107617398.55548      1857.00848        46.900    21020064.72045
  83858196.48445      1447.01645        40.500
  21001056.61648 110361338.57048      1233.41048        47.200    21001056.66545
  85995868.09045       961.09445        41.100
  24108350.20745 126690212.93745      2976.73845        39.700    24108350.85141
  98719672.49941      2319.53541        26.200
 04 09 01 19 10  0.0000000  0  7G25G 1G20G23G16G13G 4
  22359085.09847 114653955.36247     -2346.49647        44.500    22359085.50844
  89341232.00244     -1828.44144        38.700
  20443603.66449 104588041.78449       -93.91449        48.300    20443604.26346
  81497672.10046       -73.18446        42.900
  20613694.47848 105481875.93048      -565.25048        47.500    20613694.34146
  82194163.27146      -440.45746        42.000
  20998949.39548 107506424.00748      1841.84448        47.000    20998946.97545
  83771722.83445      1435.19945        40.900
  20987189.05548 110288463.49948      1195.81348        47.600    20987188.98545
  85939082.35145       931.79745        41.100
  24074368.73745 126511641.22645      2976.12145        39.300    24074370.44541
  98580525.86241      2319.05541        30.200
  25195204.07042 132401697.91352       261.85242        32.600

 04 09 01 19 11  0.0000000  0  6G25G 1G20G23G16G13
  22385917.99047 114794962.95147     -2353.89147        44.700    22385918.47144
  89451108.00844     -1834.20344        38.300
  20444785.85049 104594254.60049      -113.45749        48.300    20444786.50646
  81502513.26146       -88.41046        42.800
  20620377.40548 105516994.21448      -605.58648        47.600    20620377.14646
  82221528.15346      -471.88746        43.000
  20978006.12748 107396366.38848      1826.34848        46.800    20978003.62045
  83685963.67345      1423.12545        40.800
  20973750.19748 110217841.29448      1157.98448        47.600    20973749.95446
  85884052.09146       902.32446        41.300
  24040395.35945 126333109.74145      2974.82045        40.100    24040396.39743
  98441410.47543      2318.03943        34.500
 04 09 01 19 12  0.0000000  0  6G25G 1G20G23G16G13
  22412834.37047 114936409.24647     -2361.10547        44.100    22412834.73344
  89561325.85944     -1839.82444        38.600
  20446192.73149 104601647.21449      -133.18449        48.300    20446193.22646
  81508273.74046      -103.78146        42.700
  20627519.27449 105554524.50949      -645.49249        47.800    20627519.01146
  82250772.52346      -502.98446        42.700
  20957241.23148 107287245.81948      1810.91848        46.500    20957238.79945
  83600934.67245      1411.10245        39.600
  20960743.38448 110149490.53848      1120.18848        47.400    20960743.07746
  85830791.79346       872.87146        41.600
  24006432.16245 126154633.88345      2974.00045        40.600    24006433.18741
  98302338.54441      2317.40241        32.000
 04 09 01 19 13  0.0000000  0  6G25G 1G20G23G16G13
  22439831.37947 115078279.46547     -2367.84847        44.500    22439831.83244
  89671874.03244     -1845.07844        38.700
  20447824.06649 104610219.79349      -152.52049        48.600    20447824.50546
  81514953.66346      -118.84846        43.200
  20635118.29349 105594457.32749      -685.39549        47.800    20635117.93046
  82281888.98746      -534.07846        42.600
  20936655.45048 107179067.18048      1795.04748        46.600    20936653.04545
  83516639.67045      1398.73445        41.000
  20948169.44348 110083414.60448      1082.35948        47.500    20948169.15946
  85779304.09046       843.39546        41.400
  23972479.63745 125976214.08545      2973.28145        40.300    23972481.40041
  98163310.23141      2316.84041        27.200
 04 09 01 19 14  0.0000000  0  6G25G 1G20G23G16G13
  22466907.14447 115220564.38047     -2375.62947        44.700    22466907.63444
  89782745.35344     -1851.14544        38.200
  20449681.25049 104619979.45049      -173.33649        48.400    20449681.66946
  81522558.58346      -135.07046        42.400
  20643173.88448 105636789.93548      -726.30948        47.700    20643173.54546
  82314875.41446      -565.95746        41.900
  20916251.34948 107071842.84848      1778.44548        46.900    20916248.71745
  83433088.25245      1385.79745        40.100
  20936030.33849 110019622.92549      1043.40249        47.800    20936029.97246
  85729596.32646       813.03946        41.400
  23938539.43945 125797858.02845      2971.46545        39.800    23938540.76841
  98024331.57641      2315.42641        26.600
 04 09 01 19 15  0.0000000  0  6G25G 1G20G23G16G13
  22494059.92847 115363251.63647     -2383.18447        44.700    22494060.09144
  89893930.17444     -1857.03144        38.800
  20451764.78249 104630928.71749      -194.09049        48.200    20451765.34947
  81531090.46947      -151.24247        43.400
  20651684.63549 105681514.85749      -766.87949        48.100    20651684.39546
  82349725.98246      -597.57046        42.000
  20896029.92748 106965579.78348      1761.29748        46.500    20896027.56146
  83350285.88846      1372.43846        41.600
  20924326.80548 109958120.28948      1004.23848        47.600    20924326.37846
  85681672.22946       782.52046        41.800
  23904611.98245 125619569.13645      2968.93845        39.900    23904612.29441
  97885405.29541      2313.45741        28.600
 04 09 01 19 16  0.0000000  0  6G25G 1G20G23G16G13
  22521289.40547 115506343.50147     -2388.17647        44.600    22521289.85144
  90005430.28444     -1860.91844        38.000
  20454078.22949 104643086.06049      -212.64549        48.600    20454078.87446
  81540563.71646      -165.69946        42.900
  20660652.12849 105728639.32249      -805.30949        47.900    20660651.89846
  82386446.31946      -627.51646        42.400
  20875996.22948 106860301.58148      1746.51248        46.900    20875993.83246
  83268250.94746      1360.91446        41.700
  20913062.59948 109898926.66348       967.35248        47.600    20913062.34346
  85635547.36746       753.77746        42.100
  23870700.88845 125441366.20045      2969.35945        40.100    23870702.24041
  97746545.93641      2313.78541        30.400
 04 09 01 19 17  0.0000000  0  6G25G 1G20G23G16G13
  22548592.13447 115649820.23147     -2394.56347        44.600    22548592.68744
  90117230.28344     -1865.89544        38.400
  20456620.62449 104656445.52549      -232.71949        48.400    20456621.00146
  81550973.67746      -181.34446        42.700
  20670073.19749 105778146.89149      -845.08649        47.900    20670072.84246
  82425023.61346      -658.51246        42.500
  20856149.96048 106756008.08048      1729.87948        46.900    20856147.30346
  83186983.30346      1347.95346        41.600
  20902236.96948 109842038.10548       929.01648        47.700    20902236.73746
  85591218.65246       723.90646        41.400
  23836805.94445 125263245.33245      2967.62145        40.700    23836807.08341
  97607750.50641      2312.42641        31.100
 04 09 01 19 18  0.0000000  0  6G25G 1G20G23G16G13
  22575967.61847 115793679.48647     -2400.71947        44.600    22575968.10644
  90229328.36144     -1870.69144        37.900
  20459393.86849 104671019.45549      -252.95749        48.500    20459394.42046
  81562329.98346      -197.11346        42.900
  20679947.90649 105830038.59349      -884.49649        47.800    20679947.54746
  82465458.69546      -689.22346        42.300
  20836494.29548 106652716.98448      1713.24648        46.800    20836491.71546
  83106496.74446      1334.99246        41.400
  20891852.75048 109787468.17048       890.26248        47.500    20891852.29046
  85548696.64746       693.70746        41.500
  23802928.49545 125085220.17245      2966.50845        40.600    23802929.35441
  97469029.73741      2311.56341        29.500
 04 09 01 19 19  0.0000000  0  6G25G 1G20G23G16G13
  22603413.09347 115937906.08547     -2406.82047        44.600    22603413.71644
  90341712.67344     -1875.44944        38.700
  20462398.27349 104686807.28449      -273.30149        48.700    20462398.71146
  81574632.18146      -212.96546        43.000
  20690273.92948 105884302.12548      -924.15648        47.700    20690273.81746
  82507741.93946      -720.12546        42.300
  20817030.37648 106550433.33048      1696.27048        46.700    20817027.75046
  83026795.21446      1321.76646        41.700
  20881909.66248 109735217.44948       851.41848        47.600    20881909.07545
  85507981.83845       663.43845        41.100
  23769070.06245 124907291.29145      2964.57845        40.700    23769071.20441
  97330383.94541      2310.05941        28.200
 04 09 01 19 20  0.0000000  0  6G25G 1G20G23G16G13
  22630928.36947 116082498.74747     -2412.82847        44.600    22630928.73844
  90454382.22044     -1880.12944        38.500
  20465636.31749 104703822.83049      -293.82449        48.500    20465636.56346
  81587891.03546      -228.95746        42.600
  20701051.63949 105940939.13149      -963.65649        47.900    20701051.71546
  82551874.64946      -750.90246        42.700
  20797761.73148 106449176.11948      1678.94148        46.600    20797759.05246
  82947893.50946      1308.26246        41.700
  20872410.63448 109685299.83948       812.55948        47.600    20872410.07746
  85469085.01646       633.16046        41.700
  23735232.48645 124729474.34945      2962.41445        40.600    23735233.36842
  97191825.37242      2308.36742        34.000
 04 09 01 19 21  0.0000000  0  6G25G 1G20G23G16G13
  22658511.12447 116227446.80147     -2418.78547        44.600    22658511.22144
  90567328.70744     -1884.77044        38.300
  20469108.29849 104722069.13349      -314.42649        48.400    20469108.81346
  81602108.92846      -245.01246        42.900
  20712279.16249 105999940.33149     -1003.04349        47.800    20712279.21046
  82597849.58246      -781.59446        42.700
  20778689.91948 106348954.24048      1661.65648        46.100    20778687.51146
  82869798.57646      1294.79346        42.300
  20863356.12048 109637718.50948       773.62148        47.400    20863355.75846
  85432008.68246       602.82046        41.600
  23701416.92746 124551773.84046      2960.64546        41.600    23701418.03442
  97053357.57342      2306.99242        32.400
 04 09 01 19 22  0.0000000  0  6G25G 1G20G23G16G13
  22686159.33347 116372739.28147     -2424.49247        44.400    22686159.55644
  90680543.57744     -1889.21944        38.300
  20472815.50949 104741550.45449      -335.09449        48.600    20472815.92446
  81617289.16846      -261.11346        42.900
  20723954.98749 106061296.93949     -1042.23049        47.900    20723954.80446
  82645659.90846      -812.12946        42.200
  20759816.99348 106249777.28248      1644.06648        46.200    20759814.74646
  82792517.85346      1281.08646        41.900
  20854746.98648 109592477.30748       734.44948        47.600    20854746.86946
  85396755.81146       572.29346        42.100
  23667625.01746 124374196.26946      2958.57446        41.800    23667626.30241
  96914985.53441      2305.37941        32.200
 04 09 01 19 23  0.0000000  0  6G25G 1G20G23G16G13
  22713871.99747 116518371.62047     -2429.91047        44.500    22713872.64944
  90794023.26144     -1893.44144        38.700
  20476759.30549 104762274.92849      -355.78949        48.600    20476759.77346
  81633438.10246      -277.24246        42.400
  20736077.93948 106125004.40948     -1081.39548        47.700    20736077.98646
  82695302.04946      -842.64846        42.500
  20741145.98348 106151659.64548      1626.24248        46.300    20741143.46446
  82716062.56946      1267.19946        42.200
  20846584.88848 109549584.43148       695.33248        47.600    20846584.52846
  85363332.81546       541.81346        42.700
  23633858.82646 124196751.96546      2956.33646        42.400    23633859.82241
  96776717.33141      2303.63741        30.900
 04 09 01 19 24  0.0000000  0  6G25G 1G20G23G16G13
  22741648.56247 116664336.77747     -2435.21947        44.100    22741649.06644
  90907762.28344     -1897.57844        38.300
  20480941.09049 104784250.87749      -376.55149        48.400    20480941.63646
  81650562.20946      -293.41846        42.700
  20748647.40849 106191057.16349     -1120.29749        47.900    20748647.41646
  82746771.68946      -872.96146        42.700
  20722679.23148 106054615.33448      1608.54748        46.600    20722676.47146
  82640443.66046      1253.41046        41.700
  20838870.76148 109509046.50848       656.17648        47.400    20838870.36646
  85331744.85646       511.30146        42.600
  23600119.34346 124019451.15046      2953.71546        41.900    23600120.01841
  96638560.93641      2301.59441        32.200
 04 09 01 19 25  0.0000000  0  6G25G 1G20G23G16G13
  22769485.94247 116810623.71347     -2441.02047        44.100    22769486.54744
  91021752.05844     -1902.09844        38.400
  20485361.53049 104807480.13949      -397.73849        48.700    20485361.96446
  81668662.90746      -309.93046        42.500
  20761660.87248 106259443.18248     -1159.38748        47.500    20761660.88046
  82800059.46346      -903.42246        41.900
  20704417.91048 105958651.84248      1589.94548        46.900    20704415.28946
  82565666.93646      1238.91446        41.900
  20831604.92248 109470864.21448       616.44148        47.500    20831604.48146
  85301992.44646       480.34046        42.800
  23566408.12646 123842298.16446      2950.96946        42.300    23566408.59141
  96500519.73741      2299.45341        29.100
 04 09 01 19 26  0.0000000  0  6G25G 1G20G23G16G13
  22797383.49947 116957226.16847     -2446.02047        43.800    22797384.02244
  91135987.67744     -1905.99244        37.100
  20490021.91449 104831970.35249      -418.89149        48.600    20490022.29046
  81687746.18446      -326.41046        42.400
  20775117.05148 106330156.12048     -1197.94948        47.300    20775117.22746
  82855160.41846      -933.46946        42.800
  20686365.06748 105863783.66048      1571.85948        47.000    20686362.46446
  82491743.68946      1224.82446        42.100
  20824788.46348 109435043.71848       577.34848        47.600    20824788.04046
  85274080.39846       449.87946        42.000
  23532727.04546 123665304.19646      2948.31646        41.800    23532728.26841
  96362602.46941      2297.38741        28.200
 04 09 01 19 27  0.0000000  0  6G25G 1G20G23G16G13
  22825339.80247 117104137.27747     -2450.86347        43.800    22825340.18144
  91250463.80644     -1909.76644        38.000
  20494923.30749 104857727.20449      -439.81349        48.700    20494923.71246
  81707816.45346      -342.71546        42.600
  20789014.54548 106403187.78648     -1236.37948        47.700    20789014.77946
  82912068.18046      -963.41446        42.700
  20668522.99548 105770022.34148      1553.62548        47.000    20668520.41546
  82418682.93946      1210.61346        42.000
  20818422.08448 109401588.85548       538.03548        47.500    20818421.62046
  85248011.70646       419.24646        42.000
  23499077.80246 123488476.88146      2945.81646        42.200    23499079.12843
  96224815.02743      2295.43843        35.400
 04 09 01 19 28  0.0000000  0  6G25G 1G20G23G16G13
  22853352.37747 117251344.51247     -2455.87147        44.100    22853352.93344
  91365170.69444     -1913.66844        37.100
  20500065.91049 104884752.05549      -460.94549        48.500    20500066.35846
  81728874.77246      -359.18046        42.200
  20803350.82949 106478524.03049     -1274.69549        47.900    20803350.74346
  82970771.70546      -993.27346        41.800
  20650892.88648 105677375.67348      1534.75848        46.800    20650890.12646
  82346490.74946      1195.91046        41.400
  20812505.69848 109370498.78348       498.42248        47.400    20812505.32646
  85223785.70846       388.37946        42.100
  23465461.47146 123311821.46246      2942.77746        41.200    23465462.65942
  96087161.55242      2293.07042        32.500
 04 09 01 19 29  0.0000000  0  6G25G 1G20G23G16G13
  22881421.10147 117398846.06947     -2460.87147        43.700    22881421.57244
  91480106.91944     -1917.56644        38.200
  20505452.05849 104913056.55949      -482.57449        48.500    20505452.41846
  81750930.22546      -376.03546        42.300
  20818124.58048 106556161.22248     -1313.20748        47.500    20818124.57546
  83031268.17246     -1023.28146        41.700
  20633478.25448 105585861.55148      1515.64548        47.600    20633475.43446
  82275181.06846      1181.02046        41.700
  20807040.96648 109341781.91048       458.68448        47.400    20807040.60246
  85201408.95246       357.41446        42.300
  23431880.29345 123135352.04245      2939.32045        40.900    23431881.29141
  95949653.01841      2290.37541        30.300
 04 09 01 19 30  0.0000000  0  6G25G 1G20G23G16G13
  22909543.78247 117546632.67647     -2465.32047        43.600    22909544.73344
  91595265.26344     -1921.03144        37.700
  20511082.33149 104942643.91749      -503.71549        48.500    20511082.69746
  81773985.30746      -392.50846        42.400
  20833333.90748 106636087.29448     -1350.98848        47.500    20833333.98746
  83093548.18446     -1052.72346        41.400
  20616281.06448 105495489.28648      1496.72748        47.700    20616278.22246
  82204761.13346      1166.27746        41.900
  20802028.03248 109315438.45748       419.28148        47.500    20802027.54146
  85180881.61846       326.71146        41.700
  23398336.03746 122959075.44646      2936.46146        41.200    23398337.42743
  95812294.72343      2288.14843        34.700
 04 09 01 19 31  0.0000000  0  6G25G 1G20G23G16G13
  22937719.41447 117694696.19047     -2469.95347        44.400    22937720.44444
  91710639.37344     -1924.64144        37.000
  20516957.65749 104973518.89649      -525.41049        48.400    20516958.21746
  81798043.72746      -409.41446        42.600
  20848976.99148 106718291.09848     -1388.94548        47.700    20848977.10146
  83157603.06546     -1082.29746        42.500
  20599303.29248 105406270.48248      1477.44548        47.500    20599300.56146
  82135239.99846      1151.25446        42.200
  20797467.18048 109291469.94548       379.78148        47.600    20797466.56246
  85162204.87346       295.93046        41.800
  23364829.92745 122782999.86145      2932.84845        40.600    23364831.31842
  95675093.06042      2285.33242        33.000
 04 09 01 19 32  0.0000000  0  6G25G 1G20G23G16G13
  22965946.16847 117843026.63747     -2474.43447        44.300    22965946.46644
  91826221.48544     -1928.13344        37.800
  20523078.36749 105005683.54449      -546.85549        48.300    20523079.01946
  81823107.07246      -426.12546        42.600
  20865050.74749 106802758.61349     -1426.60249        48.000    20865050.92546
  83223421.87746     -1111.64146        42.400
  20582546.53348 105318214.14448      1457.93848        47.200    20582544.02746
  82066624.68846      1136.05146        42.000
  20793357.80248 109269874.86948       340.27348        47.500    20793357.29446
  85145377.57046       265.14546        42.200
  23331363.43745 122607131.80545      2929.48445        41.100    23331364.48142
  95538053.13742      2282.71142        33.600
 04 09 01 19 33  0.0000000  0  6G25G 1G20G23G16G13
  22994223.92647 117991627.46247     -2478.69147        44.300    22994224.35543
  91942014.29143     -1931.44943        35.900
  20529447.63749 105039154.17749      -568.59049        48.300    20529448.29846
  81849188.07746      -443.05946        42.500
  20881555.08449 106889489.98549     -1464.00849        47.800    20881555.16446
  83291004.72346     -1140.78946        41.700
  20566015.59748 105231343.00148      1438.05148        47.400    20566012.91746
  81998932.90346      1120.55546        42.600
  20789702.29048 109250665.22548       300.51648        47.600    20789701.86246
  85130409.03446       234.16446        42.400
  23297940.08746 122431491.47046      2925.52346        41.400    23297940.31741
  95401190.60841      2279.62541        32.100
 04 09 01 19 34  0.0000000  0  6G25G 1G20G23G16G13
  23022550.54747 118140485.29847     -2483.05947        43.900    23022551.21744
  92058007.35244     -1934.85544        36.800
  20536065.08649 105073929.12249      -590.55149        48.100    20536065.68346
  81876285.42346      -460.17246        42.800
  20898486.78148 106978466.94648     -1501.52748        47.700    20898486.90146
  83360337.36846     -1170.02346        41.300
  20549711.18848 105145662.57748      1418.01648        47.300    20549708.45246
  81932168.95446      1104.94546        42.700
  20786499.54648 109233835.26548       260.68048        47.200    20786499.26646
  85117294.79146       203.12546        43.000
  23264560.43446 122256080.90246      2921.60546        41.500    23264561.00841
  95264507.15141      2276.57441        32.200
 04 09 01 19 35  0.0000000  0  6G25G 1G20G23G16G13
  23050923.97847 118289589.53047     -2487.10947        44.000    23050924.91643
  92174192.43143     -1938.01243        36.000
  20542930.87549 105110009.58949      -612.46149        48.100    20542931.45046
  81904400.06146      -477.24646        42.400
  20915843.18348 107069673.43048     -1538.73848        47.700    20915842.96946
  83431407.31446     -1199.02046        41.300
  20533634.71948 105061180.77948      1397.73848        47.200    20533632.23146
  81866339.00646      1089.14546        43.000
  20783748.96548 109219381.46248       220.95748        47.300    20783748.67446
  85106032.09746       172.17246        42.700
  23231225.99345 122080906.69545      2917.42245        41.100    23231226.38443
  95128007.85743      2273.31643        35.600
 04 09 01 19 36  0.0000000  0  6G25G 1G20G23G16G13
  23079344.87147 118438940.90847     -2491.08647        44.100    23079345.70244
  92290570.08744     -1941.10944        37.300
  20550047.66549 105147408.57949      -634.27749        48.100    20550048.25846
  81933542.12846      -494.24646        42.800
  20933622.73648 107163105.65448     -1575.59048        47.500    20933622.67046
  83504211.59646     -1227.73446        41.600
  20517790.36448 104977918.28048      1377.70348        47.300    20517787.99746
  81801459.15946      1073.53146        43.000
  20781452.24648 109207311.83948       181.47348        47.400    20781451.74446
  85096627.21146       141.40246        42.200
  23197939.45846 121905986.18746      2913.26246        41.200    23197940.28342
  94991706.24042      2270.07442        33.400
 04 09 01 19 37  0.0000000  0  6G25G 1G20G23G16G13
  23107810.83847 118588529.51147     -2494.85947        44.200    23107811.52543
  92407132.56943     -1944.05143        36.500
  20557415.77649 105186127.52749      -656.29349        48.200    20557416.32046
  81963712.71646      -511.39846        42.700
  20951822.52948 107258747.32648     -1612.43048        47.500    20951822.88546
  83578737.53146     -1256.44146        41.800
  20502179.60448 104895883.40548      1357.05948        47.500    20502177.15046
  81737535.89946      1057.44546        42.900
  20779608.48148 109197622.69148       141.84448        47.300    20779607.85846
  85089077.24646       110.52346        42.000
  23164702.31046 121731325.81346      2908.92646        41.300    23164703.04543
  94855607.30243      2266.69143        35.100
 04 09 01 19 38  0.0000000  0  6G25G 1G20G23G16G13
  23136320.58147 118738349.40247     -2498.93847        44.000    23136321.66343
  92523875.28043     -1947.22743        36.300
  20565035.95449 105226171.68049      -678.50049        48.200    20565036.48846
  81994915.94546      -528.70346        42.700
  20970440.44248 107356585.92848     -1648.93448        47.100    20970441.01446
  83654975.35846     -1284.88746        41.200
  20486804.82249 104815088.51749      1336.27049        47.800    20486802.18546
  81674578.85746      1041.24646        42.900
  20778217.57348 109190313.11048       101.94148        47.600    20778217.03046
  85083381.48046        79.43446        42.800
  23131516.89845 121556935.91745      2904.24245        40.000    23131517.30643
  94719719.14343      2263.04743        34.500
 04 09 01 19 39  0.0000000  0  6G25G 1G20G23G16G13
  23164872.67946 118888391.82046     -2502.39546        43.300    23164873.61543
  92640791.38043     -1949.92243        35.900
  20572908.61849 105267543.69049      -700.51649        48.000    20572909.35146
  82027153.85046      -545.85946        43.100
  20989473.79848 107456606.24748     -1685.12948        47.400    20989474.16346
  83732913.23646     -1313.09046        41.600
  20471667.91349 104735543.27849      1315.27749        47.900    20471665.42246
  81612595.57046      1024.88746        43.100
  20777278.83948 109185379.78748        62.50848        47.400    20777278.32646
  85079537.33946        48.70346        42.100
  23098384.68045 121382824.32745      2899.27745        39.600    23098385.26045
  94584047.84245      2259.17645        38.900
 04 09 01 19 40  0.0000000  0  6G25G 1G20G23G16G13
  23193467.30847 119038657.15547     -2505.85547        43.800    23193467.82243
  92757881.18043     -1952.61743        36.400
  20581036.51749 105310254.98049      -722.76249        48.200    20581037.09446
  82060435.36846      -563.19546        42.000
  21008921.04948 107558801.01248     -1720.93848        47.700    21008921.14045
  83812545.45645     -1340.99245        40.800
  20456772.48149 104657267.16649      1294.36349        47.900    20456769.81446
  81551601.20646      1008.59046        42.800
  20776793.19148 109182828.18848        23.00048        47.500    20776792.81846
  85077549.09946        17.91846        42.700
  23065308.50845 121209008.22145      2894.70345        39.500    23065309.16742
  94448606.82042      2255.61742        33.800
 04 09 01 19 41  0.0000000  0  6G25G 1G20G23G16G13
  23222101.02146 119189128.05146     -2509.57446        42.900    23222101.84743
  92875131.16643     -1955.51643        36.600
  20589417.76249 105354299.00749      -745.21949        47.900    20589418.45146
  82094755.37446      -580.69146        42.400
  21028777.17648 107663145.21648     -1757.13748        47.400    21028777.04345
  83893852.56945     -1369.19945        40.700
  20442118.65749 104580260.33649      1272.60549        47.800    20442115.80646
  81491595.89146       991.63746        42.900
  20776758.29648 109182644.62348       -16.81648        47.300    20776757.76646
  85077406.07046       -13.10546        42.400
  23032288.46445 121035486.33345      2889.49645        40.300    23032288.67041
  94313395.01241      2251.55141        32.100
 04 09 01 19 42  0.0000000  0  6G25G 1G20G23G16G13
  23250774.47846 119339809.49646     -2513.21146        42.400    23250775.44644
  92992545.18844     -1958.34844        37.000
  20598055.63949 105399691.80849      -767.82049        48.100    20598056.34246
  82130126.37746      -598.30546        42.700
  21049041.55048 107769635.63048     -1792.70748        47.100    21049041.58045
  83976832.06245     -1396.91845        40.600
  20427710.74249 104504546.26549      1251.10249        47.800    20427707.75646
  81432597.92046       974.88346        43.000
  20777175.54048 109184837.85548       -56.44148        47.200    20777175.02746
  85079115.09546       -43.98446        42.600
  22999328.75345 120862280.38945      2884.11745        40.800    22999328.72743
  94178429.41443      2247.35943        35.900
 04 09 01 19 43  0.0000000  0  6G25G 1G20G23G16G13
  23279486.66146 119490692.22246     -2516.33646        42.800    23279487.32943
  93110116.07843     -1960.78543        35.900
  20606950.65449 105446435.00049      -790.31649        48.300    20606951.25146
  82166549.63146      -615.83646        41.800
  21069711.08948 107878254.90048     -1827.89848        47.400    21069711.22345
  84061470.41245     -1424.34045        40.700
  20413550.60149 104430134.00549      1229.42249        47.800    20413547.71746
  81374614.35546       957.98846        43.300
  20778044.12448 109189402.42348       -95.74248        47.300    20778043.57246
  85082671.92446       -74.60946        42.300
  22966429.99645 120689398.62845      2878.69945        41.100    22966430.83343
  94043716.45343      2243.14543        36.100
 04 09 01 19 44  0.0000000  0  7G25G 1G20G 3G23G16G13
  23308237.21746 119641775.96646     -2519.25846        42.400    23308237.77544
  93227843.59444     -1963.06344        36.700
  20616104.32749 105494537.35349      -812.52349        48.300    20616104.74546
  82204031.96446      -633.13746        42.300
  21090783.77448 107988992.49248     -1862.61748        47.200    21090784.00245
  84147759.38645     -1451.39545        40.700
  24853176.76943 130604306.56353      2968.59043        34.900    24853173.42342
 101769577.58952      2313.18442        32.400
  20399641.45649 104357040.77849      1207.81649        47.800    20399638.69746
  81317658.60946       941.15246        42.800
  20779364.27948 109196339.73648      -134.73048        47.300    20779363.60346
  85088077.63246      -104.98846        41.900
  22933596.19046 120516855.87946      2873.34446        41.300    22933597.18843
  93909267.61643      2238.96543        34.700
 04 09 01 19 45  0.0000000  0  7G25G 1G20G 3G23G16G13
  23337014.16946 119793000.48746     -2520.15246        42.600    23337014.89343
  93345680.82743     -1963.75843        36.000
  20625507.13849 105543948.96649      -833.07449        48.400    20625507.56046
  82242534.50546      -649.15246        42.500
  21112246.61848 108101779.71148     -1895.25448        47.300    21112246.88445
  84235645.47945     -1476.82445        40.600
  24819261.08543 130426082.90543      2974.51643        35.600

  20385975.23548 104285224.77548      1187.71948        47.700    20385972.50946
  81261698.10146       925.49246        42.900
  20781124.89948 109205592.32348      -171.93448        47.100    20781124.39746
  85095287.46346      -133.97746        41.800
  22900818.54646 120344609.62146      2869.68846        41.800    22900819.58643
  93775049.82643      2236.11743        36.500
 04 09 01 19 46  0.0000000  0  7G25G 1G20G 3G23G16G13
  23365837.56246 119944468.53846     -2525.59846        43.100    23365838.31643
  93463707.79243     -1968.00043        35.900
  20635180.43149 105594782.85949      -858.33249        48.200    20635181.04746
  82282145.31346      -668.83246        41.700
  21134117.04948 108216709.67548     -1932.48448        47.700    21134117.40645
  84325201.23245     -1505.83645        41.000
  24785321.35442 130247734.84342      2973.93842        34.100    24785324.47341
 101491731.27051      2317.35241        25.000
  20372574.98748 104214806.74948      1162.84048        47.600    20372572.29846
  81206826.93146       906.10546        43.300
  20783346.01648 109217264.82248      -213.80948        47.200    20783345.68346
  85104382.93046      -166.60546        41.500
  22868120.74746 120172779.77546      2861.23046        42.900    22868121.45643
  93641156.50443      2229.52743        35.300
 04 09 01 19 47  0.0000000  0  7G25G 1G20G 3G23G16G13
  23394694.98647 120096112.37547     -2528.57847        43.600    23394695.60343
  93581871.72143     -1970.32443        36.200
  20645112.98949 105646979.60049      -881.20749        48.000    20645113.70946
  82322818.09246      -686.65646        42.400
  21156379.97748 108333703.16448     -1966.77348        46.800    21156380.45145
  84416364.93645     -1532.55545        40.000
  24751350.43142 130069221.08142      2976.40642        33.900    24751355.90141
 101352672.05351      2319.27041        31.800
  20359431.19648 104145735.53848      1140.08648        47.500    20359428.45046
  81153005.21646       888.37546        43.300
  20786014.86748 109231290.19348      -253.07048        46.900    20786014.53846
  85115311.79646      -197.19946        42.000
  22835492.07946 120001314.56446      2855.01646        42.400    22835492.57444
  93507547.30844      2224.68444        37.400
 04 09 01 19 48  0.0000000  0  6G25G 1G20G23G16G13
  23423582.09646 120247914.03246     -2531.64846        42.900    23423582.51144
  93700158.63544     -1972.71544        37.300
  20655303.48348 105700531.54848      -904.06348        47.700    20655304.34346
  82364546.87646      -704.46946        42.300
  21179030.58048 108452732.04248     -2000.98048        47.300    21179030.95345
  84509114.65445     -1559.20745        39.900
  20346543.76948 104078011.38848      1117.23848        47.600    20346540.93146
  81100233.15046       870.57046        43.100
  20789128.19248 109247650.98548      -292.40648        47.300    20789127.75546
  85128060.48346      -227.85246        42.300
  22802932.09346 119830212.52246      2848.63346        43.000    22802932.81743
  93374221.10943      2219.71143        35.400
 04 09 01 19 49  0.0000000  0  6G25G 1G20G23G16G13
  23452501.48946 120399888.58346     -2534.51646        42.300    23452502.43244
  93818580.30644     -1974.94944        36.900
  20665756.75349 105755462.94249      -927.32049        48.300    20665757.51446
  82407350.54546      -722.59046        41.900
  21202069.26348 108573800.42748     -2035.07448        47.600    21202069.49945
  84603453.57745     -1585.77345        40.300
  20333918.60148 104011666.08948      1093.73448        47.300    20333915.92247
  81048535.53147       852.25847        43.600
  20792689.03548 109266362.78248      -331.75848        47.200    20792688.49646
  85142641.10646      -258.51646        41.500
  22770447.77946 119659506.28646      2841.42246        43.000    22770448.29743
  93241203.32243      2214.09043        35.600
 04 09 01 19 50  0.0000000  0  7G25G 1G20G 3G23G16G13
  23481453.69546 120552032.56946     -2536.90246        42.700    23481454.39243
  93937133.97643     -1976.80943        34.900
  20676473.54249 105811779.59849      -949.73449        48.300    20676474.08446
  82451233.60946      -740.05546        42.000
  21225493.10348 108696893.20048     -2068.03548        47.100    21225493.28845
  84699369.95845     -1611.46145        39.800
  24649291.34342 129532903.02652      2982.43442        34.300    24649296.80541
 100934757.30151      2323.98041        31.700
  20321558.62349 103946713.86349      1071.28149        47.800    20321555.98047
  80997923.41147       834.76247        44.200
  20796696.37448 109287421.59748      -370.08248        47.100    20796695.74546
  85159050.57446      -288.37946        41.900
  22738041.27947 119489208.96947      2835.11747        43.400    22738041.69643
  93108504.16543      2209.18043        34.500
 04 09 01 19 51  0.0000000  0  7G25G 1G20G 3G23G16G13
  23510433.26946 120704321.65146     -2540.17246        42.000    23510434.17443
  94055800.70643     -1979.35943        36.200
  20687450.97349 105869465.66649      -973.74249        48.400    20687451.32146
  82496183.78546      -758.76246        42.100
  21249295.40748 108821974.22748     -2101.94948        47.400    21249295.54445
  84796835.63645     -1637.88745        39.000
  24615238.22043 129353943.57053      2982.53543        34.600    24615240.31641
 100795326.36051      2324.07041        30.900
  20309462.41048 103883147.30648      1047.12548        47.600    20309459.69847
  80948391.03347       815.93847        43.700
  20801145.67248 109310802.70248      -409.89848        47.300    20801145.14246
  85177269.62046      -319.40646        42.300
  22705710.85946 119319313.04746      2827.26646        42.100    22705711.72543
  92976117.79743      2203.06343        35.600
 04 09 01 19 52  0.0000000  0  7G25G 1G20G 3G23G16G13
  23539441.50646 120856761.36546     -2542.04746        42.800    23539442.58242
  94174584.81142     -1980.82042        34.200
  20698691.50549 105928535.25049      -996.41049        48.100    20698692.00246
  82542211.99746      -776.42646        42.400
  21273474.52848 108949036.62348     -2134.29748        46.800    21273474.62245
  84895845.22945     -1663.09045        39.800
  24581175.53643 129174939.32743      2983.51643        35.300    24581180.59142
 100655842.85542      2324.81642        32.500
  20297633.93148 103820989.19148      1023.98048        47.600    20297631.44347
  80899956.15047       797.90247        43.700
  20806037.71448 109336510.51948      -447.97748        47.000    20806037.29946
  85197301.68246      -349.07446        41.700
  22673461.47846 119149841.02346      2820.71146        42.900    22673462.19443
  92844061.74643      2197.95343        36.300
 04 09 01 19 53  0.0000000  0  6G25G 1G20G23G16G13
  23568479.61346 121009355.83246     -2544.31646        42.600    23568480.55343
  94293489.51043     -1982.58643        35.900
  20710197.46449 105989000.88749     -1019.08249        47.800    20710198.23846
  82589328.06346      -794.09446        42.100
  21298029.12348 109078072.21948     -2166.62148        47.100    21298029.43245
  84996392.38545     -1688.28145        39.800
  20286077.74848 103760260.34648      1000.38348        47.700    20286074.88547
  80852634.98847       779.51647        43.700
  20811373.01148 109364547.59348      -486.32448        47.000    20811372.64246
  85219148.75446      -378.95746        41.800
  22641297.02646 118980814.33446      2813.71546        42.800    22641297.18744
  92712352.70444      2192.50044        37.600
 04 09 01 19 54  0.0000000  0  7G25G 1G20G 3G23G16G13
  23597545.14146 121162095.57746     -2546.92646        42.500    23597546.14443
  94412507.38043     -1984.62143        35.800
  20721969.03849 106050860.81749     -1042.96149        48.100    20721969.86046
  82637530.58046      -812.69946        41.700
  21322954.96948 109209057.89748     -2199.47348        47.000    21322955.22445
  85098459.06445     -1713.87945        40.300
  24513040.71443 128816897.71753      2983.16843        34.800    24513053.41941
 100376846.16951      2324.56641        29.200
  20274794.71049 103700967.59849       976.08249        47.900    20274791.82747
  80806432.84647       760.58247        43.700
  20817149.26248 109394901.78348      -525.30948        47.000    20817148.92646
  85242801.35946      -409.33646        41.800
  22609218.08746 118812239.68346      2805.80546        42.300    22609218.55144
  92580995.93444      2186.34044        36.900
 04 09 01 19 55  0.0000000  0  7G25G 1G20G 3G23G16G13
  23626636.83646 121314973.36246     -2549.56346        43.000    23626637.40141
  94531632.83741     -1986.67641        31.400
  20734006.21749 106114115.64149     -1066.37949        48.100    20734007.01146
  82686820.03346      -830.94946        42.500
  21348248.15448 109341972.75048     -2231.63348        46.800    21348248.18545
  85202029.01245     -1738.93845        40.000
  24478976.90643 128637891.44153      2983.27743        34.600    24478983.08641
 100237335.30451      2324.63741        25.100
  20263786.72649 103643120.44349       951.69549        47.800    20263783.75647
  80761357.15147       741.57847        43.800
  20823364.37648 109427562.96448      -563.96948        47.000    20823364.13146
  85268251.63646      -439.46146        41.700
  22577227.12847 118644126.90547      2797.41047        43.400    22577227.56243
  92449999.01343      2179.79743        36.100
 04 09 01 19 56  0.0000000  0  7G25G 1G20G 3G23G16G13
  23655753.31246 121467980.13646     -2553.09846        42.700    23655754.01544
  94650858.80344     -1989.43044        36.800
  20746308.36149 106178763.58849     -1090.86349        48.300    20746308.94546
  82737195.02546      -850.02746        42.600
  21373903.53848 109476794.02948     -2264.52748        46.800    21373904.15945
  85307084.46545     -1764.57045        39.800
  24444919.88541 128458918.95251      2980.13741        31.500

  20253055.11449 103586725.44849       926.00849        47.800    20253052.37847
  80717413.00647       721.56347        43.500
  20830016.30148 109462518.64648      -603.50048        47.300    20830015.90446
  85295489.82146      -470.26246        42.000
  22545325.73447 118476484.08647      2788.33647        43.900    22545326.23243
  92319368.31743      2172.72743        36.400
 04 09 01 19 57  0.0000000  0  7G25G 1G20G 3G23G16G13
  23684896.28646 121621128.19546     -2553.01646        42.300    23684897.54043
  94770194.85143     -1989.36743        35.100
  20758879.40949 106244824.73949     -1112.33249        48.300    20758880.06846
  82788671.22546      -866.75446        42.000
  21399921.91548 109613520.59848     -2293.88748        46.500    21399922.31545
  85413624.57645     -1787.44945        39.700
  24410879.69143 128280032.10253      2981.04343        34.800    24410888.45841
  99958474.40351      2322.90641        32.200
  20242605.35749 103531812.20949       903.42249        47.900    20242602.69046
  80674623.47646       703.96146        43.200
  20837106.89148 109499778.70448      -639.60948        47.500    20837106.13346
  85324523.62546      -498.39846        41.900
  22513519.34247 118309340.92247      2782.00847        44.700    22513520.08744
  92189126.96844      2167.79744        36.700
 04 09 01 19 58  0.0000000  0  7G25G 1G20G 3G23G16G13
  23714062.01846 121774394.64246     -2555.61346        42.300    23714062.94443
  94889623.16943     -1991.39143        36.200
  20771716.61349 106312283.93649     -1135.83649        48.200    20771717.12346
  82841236.81246      -885.07046        42.300
  21426295.71348 109752115.19248     -2325.35548        46.900    21426296.00345
  85521620.27845     -1811.96945        39.700
  24376855.18843 128101232.46143      2979.53943        35.300    24376859.70441
  99819150.36341      2321.71941        16.900
  20232436.48749 103478374.07249       878.20749        48.100    20232433.75747
  80632983.37047       684.31347        43.700
  20844630.63748 109539316.50848      -677.90648        47.300    20844629.84546
  85355332.31346      -528.24246        41.600
  22481807.12247 118142691.97347      2773.28147        45.300    22481807.47443
  92059270.68743      2160.99643        35.800
 04 09 01 19 59  0.0000000  0  7G25G 1G20G 3G23G16G13
  23743250.59246 121927781.57746     -2557.64546        42.400    23743251.33443
  95009145.37443     -1992.97343        34.700
  20784821.39749 106381150.02949     -1159.66449        48.200    20784821.90446
  82894898.68346      -903.63746        41.900
  21453022.39148 109892564.60448     -2356.38748        46.500    21453022.71645
  85631061.30245     -1836.14845        39.200
  24342852.83343 127922547.13843      2976.40243        34.700    24342855.29242
  99679936.51752      2319.27042        32.500
  20222551.66049 103426428.08049       853.11349        48.300    20222548.63047
  80592505.97647       664.76247        43.700
  20852587.17748 109581128.73948      -715.94948        47.400    20852586.58846
  85387913.27346      -557.88746        42.100
  22450192.57347 117976556.09047      2764.44947        45.300    22450192.69744
  91929814.20444      2154.11344        36.700
 04 09 01 20 00  0.0000000  0  7G25G 1G20G 3G23G16G13
  23772462.34146 122081289.38546     -2559.52046        42.800    23772463.22843
  95128761.74743     -1994.43443        34.500
  20798195.12749 106451430.01149     -1183.21949        48.100    20798195.75146
  82949662.28346      -921.99246        42.100
  21480099.14348 110034854.34548     -2386.91448        46.700    21480099.63744
  85741936.33244     -1859.93844        38.800
  24308876.93042 127744004.22442      2974.35942        34.100    24308872.93841
  99540787.55651      2317.70741        26.400
  20212953.70749 103375990.86849       827.85549        48.100    20212950.64847
  80553204.25547       645.07847        43.600
  20860975.77048 109625211.05648      -753.75048        47.300    20860975.26746
  85422263.12746      -587.34046        42.100
  22418678.69247 117810950.24547      2755.29347        44.900    22418679.05844
  91800770.74444      2146.97744        37.100
 04 09 01 20 01  0.0000000  0  8G25G 1G20G 3G27G23G16G13
  23801697.04946 122234918.48646     -2561.77346        41.700    23801698.06243
  95248472.62943     -1996.19143        36.200
  20811839.04549 106523130.27049     -1206.99249        47.800    20811839.84246
  83005532.57946      -940.51646        41.800
  21507523.41748 110178968.47948     -2417.25048        46.600    21507523.91645
  85854232.97645     -1883.57445        39.700
  24274932.83943 127565631.76743      2971.54743        36.000    24274935.87441
  99401796.41341      2315.48841        16.200
  24768013.05743 130156780.13353      2454.76643        34.700    24768022.31241
 101420883.15551      1912.79341        27.100
  20203645.80649 103327077.83949       802.33249        48.200    20203642.78547
  80515090.22147       625.19147        43.600
  20869795.28748 109671558.22448      -791.48848        47.200    20869794.76646
  85458377.79346      -616.74646        42.100
  22387269.08547 117645891.99447      2746.26647        44.900    22387269.56444
  91672153.98444      2139.94544        37.000
 04 09 01 20 02  0.0000000  0  8G25G 1G20G 3G27G23G16G13
  23830950.35246 122388646.42346     -2563.03946        41.800    23830951.45543
  95368260.54343     -1997.17643        35.100
  20825750.40949 106596234.61249     -1230.05549        47.800    20825751.14846
  83062496.98446      -958.48846        41.900
  21535287.58448 110324869.07748     -2446.40648        46.700    21535287.91744
  85967921.65144     -1906.29344        38.300
  24241023.00444 127387435.64044      2968.46544        37.100    24241025.96441
  99262942.75941      2313.09841        26.900
  24740017.79743 130009668.09943      2449.40643        35.900

  20194626.62949 103279682.03749       777.25049        48.200    20194623.91147
  80478158.44247       605.64547        43.900
  20879040.53248 109720142.26648      -828.30948        47.200    20879039.98246
  85496235.47946      -645.43846        41.400
  22355962.90047 117481376.82847      2737.57447        44.800    22355963.31244
  91543960.40444      2133.17244        36.700
 04 09 01 20 03  0.0000000  0  8G25G 1G20G 3G27G23G16G13
  23860224.38446 122542482.55846     -2564.75046        41.900    23860225.50642
  95488132.74342     -1998.50842        33.300
  20839931.98948 106670759.66748     -1253.88348        47.700    20839932.99446
  83120568.42046      -977.05546        42.100
  21563390.23748 110472549.40648     -2476.03948        46.600    21563390.39645
  86082997.14445     -1929.37545        39.300
  24207154.32944 127209453.20944      2964.75444        37.400    24207158.17841
  99124255.52141      2310.20741        29.400
  24712083.94744 129862874.46544      2444.00844        36.900    24712087.28641
 101191869.10651      1904.43041        28.800
  20185901.04849 103233828.71749       751.39149        48.100    20185898.11447
  80442428.60247       585.49647        43.900
  20888712.23648 109770967.00248      -865.68448        47.400    20888711.50246
  85535839.16746      -674.56346        41.800
  22324765.07647 117317430.90647      2727.61347        45.300    22324765.48844
  91416210.37644      2125.41044        36.700
 04 09 01 20 04  0.0000000  0  8G25G 1G20G 3G27G23G16G13
  23889519.02146 122696424.36246     -2566.71546        42.400    23889519.95642
  95608087.28742     -2000.04342        33.400
  20854384.79048 106746708.17948     -1277.73848        47.700    20854385.45846
  83179749.04946      -995.64546        41.900
  21591827.88948 110621990.66548     -2505.21948        46.400    21591828.21145
  86199444.77045     -1952.12145        39.900
  24173330.29143 127031709.76343      2960.06643        36.600    24173333.28041
  98985754.39541      2306.54341        15.600
  24684210.70744 129716400.04344      2438.93044        36.700    24684214.36243
 101077733.34543      1900.46143        35.400
  20177471.31249 103189530.03249       725.54349        48.000    20177468.47247
  80407910.14947       565.35547        44.100
  20898808.46448 109824022.90848      -902.70748        47.400    20898807.64146
  85577181.42546      -703.41046        41.800
  22293678.12447 117154069.14747      2717.82847        44.900    22293678.68744
  91288915.54244      2117.78544        37.100
 04 09 01 20 05  0.0000000  0  8G25G 1G20G 3G27G23G16G13
  23918832.31546 122850466.01046     -2568.34446        42.300    23918832.89743
  95728119.63943     -2001.30943        34.500
  20869108.08849 106824079.71049     -1301.21149        47.800    20869108.67846
  83240038.51246     -1013.93446        41.400
  21620596.51348 110773170.41048     -2534.11348        46.300    21620596.95645
  86317247.07345     -1974.63745        39.800
  24139556.21544 126854227.12044      2955.76244        38.200    24139559.43042
  98847456.51342      2303.19142        32.500
  24656397.65244 129570242.56544      2433.30544        37.900    24656401.28341
 100963844.57641      1896.07841        31.500
  20169339.05149 103146795.03149       699.14149        48.100    20169336.06447
  80374610.16147       544.78147        44.200
  20909326.72548 109879297.07548      -939.62948        46.900    20909325.96845
  85620252.20045      -732.18045        41.100
  22262705.03547 116991303.32747      2707.73447        45.300    22262705.38544
  91162085.07944      2109.91844        37.900
 04 09 01 20 06  0.0000000  0  8G25G 1G20G 3G27G23G16G13
  23948163.42246 123004602.42546     -2569.84446        42.400    23948164.37742
  95848225.84242     -2002.48042        33.500
  20884102.24549 106902874.62849     -1325.02349        47.800    20884103.00046
  83301437.10746     -1032.48846        41.700
  21649691.56748 110926065.77148     -2562.39848        46.000    21649692.22644
  86436386.22144     -1996.69944        38.800
  24105836.39544 126677027.59044      2950.44944        37.100    24105839.50043
  98709379.17243      2299.05143        35.300
  24628644.45544 129424400.06544      2428.11344        38.200    24628647.76744
 100850201.26744      1892.03144        38.100
  20161506.27349 103105632.92449       672.81649        48.600    20161503.35747
  80342535.78247       524.27047        43.700
  20920264.63148 109936776.83348      -976.33648        47.100    20920264.07746
  85665041.61046      -760.78546        41.300
  22231847.34847 116829144.78647      2697.45747        44.900    22231847.51445
  91035727.83245      2101.91045        39.000
 04 09 01 20 07  0.0000000  0  8G25G 1G20G 3G27G23G16G13
  23977512.52146 123158832.42746     -2571.34046        42.100    23977513.75742
  95968404.96342     -2003.64842        32.500
  20899368.19948 106983097.42748     -1348.98848        47.700    20899368.88746
  83363948.33946     -1051.16446        42.100
  21679109.90148 111080659.13848     -2590.54748        46.800    21679110.21645
  86556848.47345     -2018.60945        39.100
  24072175.05344 126500138.61944      2945.05144        37.000    24072177.71541
  98571543.85541      2294.84841        25.600
  24600951.92845 129278875.01845      2422.76645        39.400    24600955.48542
 100736805.27442      1887.87142        33.600
  20153975.39249 103066057.51649       646.25449        48.500    20153972.34147
  80311697.79547       503.57047        43.700
  20931620.76648 109996453.74948     -1012.85948        46.600    20931620.17445
  85711543.09045      -789.24645        41.100
  22201108.41847 116667610.79947      2686.78947        44.600    22201108.65944
  90909857.25244      2093.59844        37.700
 04 09 01 20 08  0.0000000  0  8G25G 1G20G 3G27G23G16G13
  24006878.60246 123313153.45046     -2572.77746        42.200    24006880.15043
  96088655.00143     -2004.77043        34.800
  20914906.00548 107064749.38348     -1372.98448        47.600    20914906.89346
  83427573.20946     -1069.85946        42.000
  21708847.36148 111236929.65648     -2618.57048        46.300    21708847.68145
  86678617.59745     -2040.44945        39.300
  24038577.45044 126323584.95244      2939.73844        37.300    24038580.38042
  98433969.76842      2290.71142        34.300
  24573319.50745 129133667.54045      2417.05945        40.600    24573322.91043
 100623656.75443      1883.41843        35.000
  20146748.53649 103028080.24349       619.37549        48.400    20146745.41547
  80282105.11247       482.62547        43.500
  20943392.76048 110058316.43648     -1049.32048        47.000    20943392.35646
  85759747.76846      -817.65646        41.600
  22170490.86147 116506715.36247      2676.12547        44.200    22170491.00844
  90784484.24444      2085.28944        37.700
 04 09 01 20 09  0.0000000  0  8G25G 1G20G 3G27G23G16G13
  24036261.02246 123467555.29646     -2573.95346        42.800    24036261.71042
  96208968.02742     -2005.68042        33.700
  20930714.92149 107147825.71649     -1396.57449        47.900    20930715.78346
  83492307.98346     -1088.24246        41.600
  21738898.53648 111394849.82848     -2645.70348        45.700    21738898.98044
  86801672.13944     -2061.55544        37.900
  24005047.69244 126147384.75544      2933.56344        38.000    24005050.70141
  98296671.04441      2285.89141        14.200
  24545746.79246 128988770.96146      2412.50046        41.200    24545749.89543
 100510750.47143      1879.86743        34.700
  20139826.64949 102991705.61049       592.87149        48.500    20139823.62847
  80253761.24047       461.97347        44.400
  20955577.50248 110122346.55548     -1085.08648        46.800    20955576.80746
  85809641.35846      -845.52346        41.700
  22139996.32047 116346466.28747      2665.30947        43.800    22139996.69744
  90659614.90144      2076.85944        37.600
 04 09 01 20 10  0.0000000  0  8G25G 1G20G 3G27G23G16G13
  24065658.90346 123622041.88246     -2575.31646        41.900    24065659.69143
  96329347.09243     -2006.74243        34.500
  20946796.45948 107232334.17748     -1420.54348        47.600    20946797.25746
  83558158.69346     -1106.91846        41.300
  21769260.51947 111554404.31247     -2672.79347        45.500    21769261.41344
  86926000.20144     -2082.69944        38.300
  23971590.97144 125971568.27544      2926.64544        36.800    23971594.09141
  98159671.40441      2280.50841        30.800
  24518234.24045 128844191.28745      2406.87545        40.600    24518237.13442
 100398091.15042      1875.48442        33.600
  20133212.89549 102956950.45449       565.59849        48.500    20133209.89047
  80226679.30747       440.72347        44.400
  20968173.54848 110188538.18648     -1121.16848        47.300    20968172.71146
  85861219.23946      -873.64146        41.700
  22109628.60847 116186884.44247      2654.02347        44.300    22109629.32244
  90535265.46844      2068.06644        37.900
 04 09 01 20 11  0.0000000  0  8G25G 1G20G 3G27G23G16G13
  24095071.97346 123776610.37846     -2576.78546        42.100    24095073.07542
  96449789.94842     -2007.88742        33.800
  20963150.81948 107318276.83848     -1444.38348        47.600    20963151.59046
  83625126.97346     -1125.49646        41.500
  21799929.75047 111715572.76947     -2699.55947        45.500    21799930.89644
  87051585.89544     -2103.49244        36.900
  23938211.53844 125796161.92144      2919.71544        37.400    23938215.25241
  98022991.31241      2275.09841        26.600
  24490781.97745 128699929.06145      2401.57845        40.000    24490784.42542
 100285679.18642      1871.35942        32.800
  20126909.54049 102923826.32149       538.30549        48.600    20126906.64447
  80200868.29947       419.45347        44.000
  20981178.78948 110256880.40648     -1156.96948        47.700    20981177.95246
  85914472.91246      -901.53946        41.500
  22079391.18947 116027984.57347      2642.44147        44.500    22079391.51644
  90411447.43844      2059.04344        37.600
 04 09 01 20 12  0.0000000  0  8G25G 1G20G 3G27G23G16G13
  24124499.61946 123931252.90446     -2577.96946        41.900    24124500.48543
  96570290.51143     -2008.80943        34.900
  20979777.32148 107405649.44148     -1468.26248        47.500    20979777.99446
  83693209.48746     -1144.10246        41.200
  21830901.46947 111878328.23347     -2725.80547        45.400    21830902.13644
  87178408.23244     -2124.00844        37.700
  23904914.55844 125621184.67644      2912.59444        37.900    23904918.19841
  97886645.60141      2269.55541        30.900
  24463389.20844 128555978.77244      2396.37944        38.500    24463391.44942
 100173510.28642      1867.30942        32.300
  20120917.75949 102892339.02849       511.00049        48.400    20120914.93247
  80176332.74847       398.18047        44.400
  20994589.67148 110327354.61348     -1192.37548        47.700    20994588.87846
  85969387.86046      -929.12546        42.300
  22049285.26347 115869776.68147      2630.64147        44.600    22049285.50244
  90288168.59644      2049.84844        37.200
 04 09 01 20 13  0.0000000  0  8G25G 1G20G 3G27G23G16G13
  24153941.69746 124085972.39146     -2579.09446        41.700    24153942.80041
  96690851.03141     -2009.68841        32.000
  20996677.12748 107494458.63948     -1492.19948        47.700    20996677.78945
  83762411.41945     -1162.75445        41.000
  21862171.96947 112042655.06047     -2751.78147        45.400    21862172.64444
  87306454.99744     -2144.25044        37.800
  23871704.67344 125446667.20544      2904.50044        38.500    23871707.92541
  97750658.20441      2263.24641        27.800
  24436056.31544 128412346.05344      2391.16044        38.000    24436059.20341
 100061588.84041      1863.23841        31.800
  20115240.47149 102862504.83649       483.32449        48.600    20115237.66247
  80153085.34247       376.61347        44.600
  21008404.77648 110399954.20348     -1227.59048        47.300    21008404.17246
  86025958.96346      -956.56646        42.000
  22019315.00047 115712280.77447      2618.85547        44.800    22019314.99744
  90165444.55044      2040.66444        37.400
 04 09 01 20 14  0.0000000  0  8G25G 1G20G 3G27G23G16G13
  24183397.57145 124240762.60345     -2580.42245        41.000    24183398.70642
  96811466.65242     -2010.72342        34.400
  21013849.92049 107584701.89949     -1516.07049        47.900    21013850.66546
  83832730.80146     -1181.35546        41.800
  21893736.82048 112208527.89148     -2777.31348        45.600    21893737.37044
  87435706.44144     -2164.14544        37.300
  23838586.87544 125272631.37244      2896.48044        38.500    23838589.32741
  97615046.09341      2256.99641        30.900
  24408783.26844 128269027.36344      2386.05944        37.900    24408786.42542
  99949912.05342      1859.26242        33.600
  20109879.14049 102834330.61649       455.61749        48.700    20109876.30147
  80131131.40247       355.02347        44.300
  21022621.02848 110474662.40448     -1262.68048        47.200    21022620.55146
  86084173.13346      -983.91046        41.600
  21989482.26347 115555508.82547      2606.67247        44.700    21989482.26043
  90043284.63743      2031.16843        36.400
 04 09 01 20 15  0.0000000  0  8G25G 1G20G 3G27G23G16G13
  24212866.11045 124395622.10745     -2582.03145        40.600    24212867.56742
  96932136.26942     -2011.98042        34.100
  21031296.02649 107676380.34749     -1539.91449        47.800    21031296.65746
  83904168.51846     -1199.93846        41.800
  21925591.28247 112375924.91947     -2802.45747        45.400    21925592.10444
  87566145.55744     -2183.73444        37.800
  23805565.38844 125099102.96644      2887.70744        38.600    23805567.91941
  97479829.38141      2250.16041        26.000
  24381570.14445 128126022.68745      2381.01245        40.100    24381573.93142
  99838480.00742      1855.33642        34.100
  20104835.92549 102807827.32749       427.84049        48.700    20104832.64547
  80110479.49247       333.37947        44.400
  21037236.34548 110551466.68048     -1297.43448        47.200    21037235.88146
  86144020.60746     -1010.99246        41.300
  21959790.20447 115399476.08747      2594.39547        44.600    21959790.09443
  89921700.72043      2021.60243        36.000
 04 09 01 20 16  0.0000000  0  8G25G 1G20G 3G27G23G16G13
  24242347.08945 124550546.36645     -2582.60945        41.100    24242348.99743
  97052856.38443     -2012.42643        34.600
  21049014.55748 107769492.90748     -1564.06348        47.600    21049015.43145
  83976723.72145     -1218.75445        40.900
  21957731.53347 112544822.68247     -2827.55147        45.000    21957732.51744
  87697754.10544     -2203.27344        38.100
  23772644.55244 124926104.98944      2878.57844        38.200    23772646.50841
  97345025.97141      2243.04741        27.000
  24354416.96045 127983330.46545      2375.68045        40.800    24354420.12341
  99727291.38641      1851.18041        31.900
  20100112.11749 102783004.08049       399.48449        48.400    20100108.96847
  80091136.69447       311.28547        44.400
  21052247.70048 110630351.68748     -1332.22348        47.200    21052247.08145
  86205489.43545     -1038.09845        41.000
  21930241.19547 115244196.05247      2581.45747        44.200    21930241.31643
  89800703.35443      2011.52343        35.900
 04 09 01 20 17  0.0000000  0  8G25G 1G20G 3G27G23G16G13
  24271840.14846 124705530.87946     -2583.91846        41.600    24271841.47842
  97173623.41542     -2013.44942        33.500
  21067005.89648 107864037.61448     -1587.80948        47.700    21067006.68245
  84050394.88545     -1237.25845        41.100
  21990152.61747 112715196.40347     -2851.82047        44.500    21990153.38844
  87830512.75644     -2222.19944        36.700
  23739829.48044 124753660.23244      2869.33644        38.600    23739831.96541
  97210653.63141      2235.84441        26.700
  24327322.53346 127840947.61246      2370.54346        42.600    24327325.64241
  99616343.88641      1847.17641        31.700
  20095709.29049 102759868.13449       371.42649        48.300    20095706.50247
  80073108.69347       289.41847        44.800
  21067651.89948 110711300.79648     -1366.44548        47.200    21067651.12745
  86268566.64945     -1064.76645        41.000
  21900838.06047 115089681.79147      2568.72747        44.800    21900838.20043
  89680302.67543      2001.60243        35.800
 04 09 01 20 18  0.0000000  0  8G25G 1G20G 3G27G23G16G13
  24301345.12146 124860578.85746     -2584.31346        41.500    24301346.21142
  97294439.91342     -2013.75442        33.700
  21085270.88049 107960020.81349     -1611.77749        47.800    21085271.60645
  84125186.94945     -1255.93445        41.000
  22022851.69247 112887029.64647     -2876.07047        45.400    22022852.23544
  87964408.68944     -2241.09844        37.700
  23707125.37445 124581799.59345      2859.43045        39.800    23707127.98641
  97076736.44241      2228.12541        31.000
  24300288.02946 127698880.13746      2365.12546        41.400    24300290.38943
  99505642.11943      1842.95343        36.400
  20091630.83349 102738435.38249       342.91849        48.400    20091627.87047
  80056407.84947       267.20747        44.600
  21083447.29148 110794306.20048     -1400.45748        46.900    21083446.64545
  86333246.17045     -1091.27045        41.000
  21871584.55847 114935954.51047      2555.38747        44.900    21871584.64243
  89560515.22343      1991.20743        35.900
 04 09 01 20 19  0.0000000  0  8G25G 1G20G 3G27G23G16G13
  24330860.98446 125015686.13546     -2585.73046        41.300    24330862.21041
  97415302.58841     -2014.86341        32.100
  21103809.20348 108057440.23848     -1635.60948        47.700    21103810.02445
  84201098.15045     -1274.50445        40.900
  22055823.31247 113060297.48947     -2899.61347        44.400    22055824.01344
  88099422.48344     -2259.44144        37.600
  23674536.82244 124410546.02944      2848.94144        38.600    23674539.22041
  96943292.33741      2219.94941        30.600
  24273312.61345 127557125.32345      2359.68445        40.800    24273315.36242
  99395184.03642      1838.71142        34.000
  20087877.91149 102718713.35749       314.35949        48.700    20087874.93947
  80041040.02647       244.95347        44.700
  21099630.79648 110879351.27448     -1434.31348        46.700    21099630.17945
  86399515.05345     -1117.64845        40.100
  21842483.40947 114783027.60947      2541.88747        45.100    21842483.54844
  89441351.45744      1980.68844        36.700
 04 09 01 20 20  0.0000000  0  8G25G 1G20G 3G27G23G16G13
  24360387.40046 125170847.72046     -2586.46946        41.500    24360388.54542
  97536207.62942     -2015.43442        32.900
  21122620.52249 108156293.59149     -1659.49649        47.800    21122621.13945
  84278126.69945     -1293.11745        40.600
  22089062.99947 113234974.91647     -2923.10947        44.200    22089064.31643
  88235534.64143     -2277.75043        35.300
  23642068.33345 124239922.55745      2838.40245        40.100    23642071.07041
  96810339.18141      2211.74241        32.100
  24246396.35645 127415680.59945      2354.62545        39.600    24246399.26342
  99284967.56342      1834.77042        32.600
  20084451.87649 102700709.76649       285.61349        48.800    20084448.97047
  80027011.24947       222.55147        44.400
  21116199.18748 110966419.09548     -1467.96948        46.600    21116198.65145
  86467360.08245     -1143.87545        40.700
  21813537.33847 114630914.63747      2528.32847        45.400    21813537.19343
  89322821.90643      1970.12143        36.200
 04 09 01 20 21  0.0000000  0  8G25G 1G20G 3G27G23G16G13
  24389924.39745 125326065.90745     -2587.63745        40.700    24389926.02741
  97657156.73341     -2016.34441        31.600
  21141705.09648 108256583.96948     -1683.45348        47.600    21141705.74146
  84356275.00246     -1311.78546        41.200
  22122567.92547 113411042.79047     -2945.96147        45.400    22122569.13844
  88372730.28544     -2295.55944        36.700
  23609725.07245 124069957.80745      2827.09045        39.800    23609727.28942
  96677899.28742      2202.92642        32.600
  24219539.61645 127274548.87345      2349.54745        39.800    24219542.19541
  99174994.95941      1830.81641        31.000
  20081355.51449 102684438.26649       256.75049        48.900    20081352.60547
  80014332.14847       200.06347        44.800
  21133150.39848 111055498.50648     -1501.33248        46.500    21133150.08246
  86536772.59846     -1169.87146        41.200
  21784749.42047 114479634.09947      2514.25047        45.300    21784749.51243
  89204940.99343      1959.15243        36.500
 04 09 01 20 22  0.0000000  0  8G25G 1G20G 3G27G23G16G13
  24419471.49646 125481336.65946     -2588.02046        41.200    24419473.22743
  97778146.78543     -2016.64143        34.500
  21161062.75448 108358309.70848     -1707.17248        47.600    21161063.71845
  84435541.78045     -1330.26645        40.400
  22156332.97247 113588476.82247     -2968.31347        45.500    22156333.92843
  88510990.46143     -2312.97343        36.400
  23577511.66045 123900675.90745      2815.63345        39.900    23577514.22542
  96545991.48942      2193.99642        34.400
  24192742.16545 127133728.43345      2344.39545        40.200    24192745.08543
  99065264.90243      1826.79743        34.800
  20078590.32749 102669906.24149       227.77749        48.800    20078587.38247
  80003008.48147       177.48447        44.600
  21150481.29448 111146572.86548     -1534.45348        46.500    21150481.01845
  86607739.61445     -1195.68045        41.100
  21756122.83147 114329200.62147      2500.23047        45.400    21756123.13244
  89087720.13744      1948.22744        37.700
 04 09 01 20 23  0.0000000  0  8G25G 1G20G 3G27G23G16G13
  24449027.82245 125636655.39545     -2589.03545        40.500    24449029.76243
  97899174.27643     -2017.43443        34.500
  21180693.10948 108461467.87948     -1731.11748        47.400    21180693.94745
  84515924.71645     -1348.92645        40.900
  22190352.88247 113767251.51347     -2990.47347        44.800    22190353.70943
  88650295.27143     -2330.24243        36.300
  23545432.01745 123732099.70245      2803.76245        39.600    23545435.52542
  96414633.56442      2184.74642        33.300
  24166003.74545 126993216.41645      2339.59445        40.000    24166005.83543
  98955775.12143      1823.05943        35.900
  20076157.15849 102657120.24749       198.61349        48.700    20076154.25047
  79993045.36747       154.76247        45.000
  21168188.40548 111239624.40648     -1567.17248        46.500    21168188.20045
  86680247.28845     -1221.17645        41.100
  21727660.16148 114179627.83348      2485.67648        45.600    21727660.41143
  88971169.97343      1936.88743        36.600
 04 09 01 20 24  0.0000000  0  8G25G 1G20G 3G27G23G16G13
  24478593.22145 125792022.57345     -2589.96945        40.600    24478595.27342
  98020239.49242     -2018.16042        32.400
  21200596.20648 108566058.93548     -1755.14548        47.700    21200596.93546
  84597424.18946     -1367.64846        41.200
  22224623.67447 113947344.89147     -3012.46547        44.900    22224624.34843
  88790627.63343     -2347.37943        36.000
  23513492.07745 123564255.19445      2790.96945        39.400    23513494.75142
  96283845.80442      2174.78142        32.800
  24139323.93145 126853013.73045      2334.31345        40.800    24139326.31842
  98846526.44142      1818.94542        34.400
  20074058.40449 102646091.18449       169.16849        48.700    20074055.36747
  79984451.29147       131.81647        45.000
  21186269.14048 111334638.82448     -1599.79348        46.700    21186268.78445
  86754284.46945     -1246.59445        41.000
  21699364.34548 114030932.01048      2471.08248        46.100    21699364.38144
  88855303.12644      1925.51644        36.900
 04 09 01 20 25  0.0000000  0  8G25G 1G20G 3G27G23G16G13
  24508167.26645 125947434.25945     -2590.78945        40.100    24508169.47642
  98141339.36342     -2018.80142        34.200
  21220771.77949 108672080.40749     -1779.21149        47.900    21220772.38745
  84680038.26945     -1386.40245        40.800
  22259140.48147 114128731.74947     -3033.92247        44.900    22259141.02843
  88931967.91343     -2364.09843        34.800
  23481695.71445 123397165.74445      2778.23845        40.100    23481698.63742
  96153646.40442      2164.86342        34.200
  24112702.94045 126713118.17045      2328.73445        40.500    24112705.19944
  98737517.03344      1814.59444        36.800
  20072295.25449 102636826.00649       139.39849        48.500    20072292.31747
  79977231.66547       108.61747        44.700
  21204720.01748 111431598.68848     -1632.46948        46.700    21204719.67345
  86829837.58945     -1272.05945        40.700
  21671238.29048 113883128.25948      2455.44948        46.600    21671238.31744
  88740131.39244      1913.33244        37.200
 04 09 01 20 26  0.0000000  0  8G25G 1G20G 3G27G23G16G13
  24537749.82945 126102891.35345     -2591.13745        40.100    24537751.57741
  98262474.64941     -2019.07441        31.000
  21241219.64449 108779534.04049     -1802.87949        47.800    21241220.31845
  84763768.31245     -1404.84445        41.000
  22293899.25847 114311391.86947     -3054.79347        44.600    22293900.14844
  89074300.37444     -2380.36344        37.400
  23450049.34345 123230860.36345      2765.06645        40.700    23450051.76141
  96024057.92041      2154.59441        29.500
  24086140.28145 126573532.06545      2323.68845        41.000    24086142.75742
  98628748.76942      1810.66442        33.700
  20070870.07949 102629336.57849       109.87549        48.800    20070867.24647
  79971395.75347        85.61347        45.000
  21223538.63348 111530491.16648     -1664.06648        46.700    21223538.18245
  86906896.64245     -1296.68045        40.300
  21643285.57048 113736235.44348      2440.48048        46.500    21643285.42344
  88625669.48844      1901.66844        38.300
 04 09 01 20 27  0.0000000  0  8G25G 1G20G 3G27G23G16G13
  24567340.50345 126258391.13045     -2592.11345        40.100    24567341.80941
  98383643.20441     -2019.83241        31.000
  21261939.20248 108888417.07048     -1826.77348        47.200    21261939.94945
  84848612.17545     -1423.46545        40.700
  22328896.03047 114495300.73047     -3075.51247        44.800    22328896.99043
  89217605.86143     -2396.50443        36.200
  23418556.28146 123065362.44246      2751.55146        41.300    23418558.39642
  95895098.64942      2144.06642        33.700
  24059636.33046 126434253.95946      2318.78946        41.700    24059638.78242
  98520220.46242      1806.84442        33.400
  20069784.39549 102623630.35549        80.22349        48.900    20069781.33647
  79966949.33647        62.50847        44.900
  21242721.70048 111631298.64348     -1696.11348        46.700    21242721.15645
  86985447.90045     -1321.64845        40.200
  21615508.93548 113590268.43248      2424.94548        46.900    21615508.93044
  88511928.98744      1889.56644        37.900
 04 09 01 20 28  0.0000000  0  8G25G 1G20G 3G27G23G16G13
  24596938.60845 126413931.11145     -2592.61745        40.200    24596940.84941
  98504843.08041     -2020.22341        30.700
  21282930.42448 108998727.87648     -1850.44548        46.800    21282931.37745
  84934568.59145     -1441.91045        41.000
  22364125.96247 114680434.29847     -3095.56647        44.400    22364126.68043
  89361865.66143     -2412.13343        36.000
  23387221.34046 122900697.19146      2737.29346        41.400    23387223.31643
  95766788.18343      2132.95343        34.700
  24033191.13046 126295282.72446      2313.52046        41.400    24033193.60744
  98411931.29844      1802.73844        36.700
  20069039.30949 102619714.83649        50.32049        49.000    20069036.22147
  79963898.27547        39.20747        44.800
  21262265.96748 111734004.26248     -1727.41448        46.700    21262265.48745
  87065478.23145     -1346.03945        41.100
  21587911.51848 113445243.32848      2409.09048        47.100    21587911.52844
  88398922.45344      1877.21144        38.700
 04 09 01 20 29  0.0000000  0  8G25G 1G20G 3G27G23G16G13
  24626544.60945 126569509.89345     -2593.11745        39.600    24626546.28142
  98626073.18942     -2020.61342        33.600
  21304193.05248 109110464.10048     -1873.98048        47.000    21304194.27545
  85021635.74045     -1460.24645        40.100
  22399584.53247 114866768.19247     -3115.37147        44.300    22399585.19644
  89507060.76244     -2427.56644        38.500
  23356049.16346 122736889.02946      2723.03946        41.600    23356051.52143
  95639145.59243      2121.84443        36.600
  24006803.87546 126156617.15246      2308.73046        41.500    24006806.26144
  98303880.33644      1799.01244        37.800
  20068636.39549 102617597.98649        20.30149        49.000    20068633.43747
  79962248.76947        15.81647        44.800
  21282168.21748 111838590.90948     -1758.60248        46.600    21282167.66645
  87146974.29445     -1370.34445        40.100
  21560496.41648 113301175.89548      2393.21948        47.100    21560496.39344
  88286662.14444      1864.84444        38.200
 04 09 01 20 30  0.0000000  0  8G25G 1G20G 3G27G23G16G13
  24656157.75945 126725127.76445     -2594.42245        39.700    24656159.64842
  98747333.71942     -2021.62942        32.800
  21325727.16548 109223626.03048     -1898.05548        47.100    21325728.45045
  85109813.81345     -1479.00845        40.900
  22435267.04147 115054280.93247     -3135.16847        44.200    22435267.94144
  89653174.41044     -2442.99244        37.500
  23325045.31946 122573965.58346      2707.80946        41.200    23325047.77243
  95512192.39943      2109.97743        35.700
  23980474.96346 126018259.11646      2303.28146        41.600    23980477.36543
  98196068.97743      1794.76243        36.600
  20068577.79049 102617289.93449       -10.21549        49.000    20068574.72247
  79962008.71347        -7.96147        44.800
  21302425.78548 111945044.47748     -1789.89548        46.500    21302425.10545
  87229925.10045     -1394.72745        40.200
  21533266.84748 113158084.24348      2376.25448        47.000    21533267.13145
  88175162.20445      1851.62545        38.900
 04 09 01 20 31  0.0000000  0  8G25G 1G20G 3G27G23G16G13
  24685777.63645 126880780.53445     -2594.80145        40.100    24685779.57041
  98868621.45941     -2021.92641        28.100
  21347531.95748 109338209.01648     -1921.48448        47.200    21347532.58745
  85199099.19245     -1497.26645        40.600
  22471168.73647 115242945.63747     -3154.05147        44.400    22471170.02944
  89800185.72644     -2457.70744        37.500
  23294214.37046 122411948.71246      2692.46946        42.000    23294217.08142
  95385945.69442      2098.02342        33.300
  23954203.88946 125880205.07446      2298.46546        41.500    23954206.43943
  98088494.50843      1791.00843        34.600
  20068864.32249 102618795.62249       -40.28149        48.800    20068861.10847
  79963181.96647       -31.39147        45.000
  21323034.59348 112053344.81848     -1820.39848        46.600    21323034.22745
  87314314.95645     -1418.49645        40.600
  21506225.75148 113015982.09548      2359.85248        47.200    21506225.66944
  88064433.28344      1838.84444        38.300
 04 09 01 20 32  0.0000000  0  8G25G 1G20G 3G27G23G16G13
  24715403.54645 127036465.02945     -2595.07045        39.300    24715405.49141
  98989933.94641     -2022.13741        30.900
  21369606.01048 109454208.71148     -1945.03548        47.000    21369606.76345
  85289488.51245     -1515.61345        39.700
  22507284.19947 115432736.43947     -3172.45747        43.800    22507286.09243
  89948074.55543     -2472.04743        36.200
  23263560.99946 122250861.79346      2676.86746        42.500    23263563.29242
  95260423.56442      2085.87142        33.400
  23927990.46146 125742452.38346      2293.52746        41.500    23927992.75943
  97981154.86143      1787.16043        34.900
  20069496.98449 102622120.86849       -70.54349        48.700    20069493.99947
  79965773.05447       -54.97347        44.700
  21343991.30248 112163472.92548     -1850.47748        46.400    21343990.91545
  87400129.04145     -1441.93445        39.900
  21479375.59248 112874883.63248      2343.14548        47.600    21479375.57045
  87954486.46945      1825.82445        39.400
 04 09 01 20 33  0.0000000  0  8G25G 1G20G 3G27G23G16G13
  24745036.06444 127192185.22044     -2595.38344        38.600    24745038.05142
  99111274.19642     -2022.37942        33.900
  21391950.12148 109571628.30448     -1968.68048        46.900    21391950.85645
  85380984.24845     -1534.03945        39.800
  22543611.39147 115623635.39647     -3190.84047        44.100    22543613.11043
  90096826.87343     -2486.37143        34.600
  23233090.06846 122090736.16746      2660.69146        42.800    23233092.32242
  95135650.49842      2073.26242        32.900
  23901835.28946 125605006.67246      2288.15646        42.400    23901837.47442
  97874054.44342      1782.97742        34.200
  20070478.63149 102627279.12049      -101.28949        48.800    20070475.63047
  79969792.45947       -78.93047        45.400
  21365293.56548 112275417.16148     -1880.75048        46.500    21365293.04745
  87487358.29345     -1465.52345        39.900
  21452720.66948 112734811.77548      2325.95748        47.400    21452720.64945
  87845339.59345      1812.43045        39.600
 04 09 01 20 34  0.0000000  0  8G25G 1G20G 3G27G23G16G13
  24774674.49344 127347936.00844     -2596.04744        38.800    24774676.34841
  99232638.34741     -2022.90241        25.200
  21414563.25948 109690461.68448     -1992.24248        46.800    21414564.22245
  85473581.63545     -1552.39845        39.100
  22580144.29947 115815614.31347     -3208.44147        43.900    22580145.66843
  90246420.69343     -2500.08643        36.400
  23202806.02446 121931592.35346      2644.22746        43.200    23202807.86443
  95011642.46143      2060.43443        34.500
  23875737.91646 125467862.98346      2283.36346        42.700    23875739.63544
  97767189.34644      1779.24644        36.800
  20071809.55849 102634273.40749      -131.80149        48.600    20071806.58647
  79975242.54347      -102.70747        45.000
  21386937.45148 112389156.24048     -1910.28548        46.600    21386937.03745
  87575986.11745     -1488.53545        40.300
  21426263.60148 112595778.98648      2308.57848        47.200    21426263.64145
  87737002.37945      1798.89145        39.400
 04 09 01 20 35  0.0000000  0  8G25G 1G20G 3G27G23G16G13
  24804318.99745 127503717.90245     -2596.43845        38.900    24804320.59342
  99354026.71642     -2023.20342        32.700
  21437445.28148 109810707.46548     -2015.77748        46.700    21437446.15945
  85567279.59445     -1570.73845        39.600
  22616878.04746 116008650.25346     -3226.15246        43.300    22616879.18044
  90396838.15344     -2513.88744        36.700
  23172713.21946 121773456.20646      2627.15646        42.500    23172715.80343
  94888419.63143      2047.13343        36.400
  23849697.76946 125331021.86546      2277.93446        42.000    23849699.64942
  97660560.02742      1775.01242        33.600
  20073491.44349 102643111.67149      -162.68449        48.700    20073488.54147
  79982129.49247      -126.77047        45.100
  21408919.77048 112504673.80348     -1940.08248        46.300    21408919.29545
  87665999.77745     -1511.75445        40.400
  21400007.47548 112457802.68648      2290.63348        47.400    21400007.52245
  87629488.41645      1784.90645        40.100
 04 09 01 20 36  0.0000000  0  8G25G 1G20G 3G27G23G16G13
  24833969.09044 127659529.85944     -2597.23444        38.600    24833971.33541
  99475438.50641     -2023.82441        29.100
  21460595.84248 109932363.85148     -2039.21548        47.000    21460596.88545
  85662076.72145     -1589.00045        40.400
  22653808.07446 116202720.20146     -3243.05946        43.300    22653809.54643
  90548061.32343     -2527.06343        36.600
  23142817.08746 121616353.80746      2609.69146        42.900    23142820.15643
  94766002.32343      2033.52343        36.600
  23823715.17946 125194483.82146      2273.39846        42.400    23823717.34842
  97554166.85742      1771.47742        33.800
  20075525.88949 102653802.27449      -193.46549        48.700    20075523.07647
  79990459.81547      -150.75447        44.700
  21431237.19548 112621952.78148     -1969.01648        46.500    21431236.74045
  87757385.96845     -1534.30145        39.800
  21373956.16948 112320900.95148      2272.87548        47.300    21373955.89945
  87522811.76145      1771.06645        39.700
 04 09 01 20 37  0.0000000  0  8G25G 1G20G 3G27G23G16G13
  24863624.34344 127815368.19644     -2597.71944        38.800    24863626.84341
  99596870.89241     -2024.19941        32.000
  21484013.73448 110055424.47948     -2062.85948        47.000    21484014.87745
  85757968.05645     -1607.42645        40.100
  22690930.09347 116397796.94647     -3259.73047        44.200    22690931.52543
  90700069.00843     -2540.05543        36.600
  23113122.57347 121460307.31247      2591.70747        43.400    23113125.19143
  94644407.77843      2019.50843        35.600
  23797789.81446 125058245.40846      2268.00046        42.000    23797791.72144
  97448007.15144      1767.27044        36.800
  20077913.34149 102666348.70049      -224.64549        48.600    20077910.43747
  80000236.24447      -175.05147        44.500
  21453886.10548 112740972.72848     -1998.18448        46.600    21453885.52745
  87850128.74245     -1557.03145        40.100
  21348111.69248 112185087.85548      2254.45748        47.400    21348111.54745
  87416983.39645      1756.71545        39.900
 04 09 01 20 38  0.0000000  0  8G25G 1G20G 3G27G23G16G13
  24893284.54844 127971234.02844     -2597.91444        38.500    24893287.43541
  99718324.66341     -2024.35241        30.400
  21507698.50748 110179888.97148     -2085.98448        46.600    21507699.67045
  85854953.31645     -1625.44545        39.800
  22728239.88747 116593858.76147     -3275.77347        44.700    22728241.26344
  90852844.29144     -2552.55544        38.500
  23083633.86747 121305343.88147      2573.82047        43.600    23083636.55743
  94523657.19643      2005.57043        36.400
  23771921.80846 124922308.69846      2263.06346        42.000    23771923.87144
  97342082.54744      1763.42244        37.100
  20080655.73549 102680760.09549      -255.64549        48.800    20080652.75747
  80011465.88847      -199.20747        44.700
  21476863.14848 112861717.90348     -2026.81648        46.400    21476862.53945
  87944215.86245     -1579.34045        39.600
  21322478.04148 112050382.12048      2235.82848        47.200    21322477.87745
  87312017.92045      1742.19945        40.000
 04 09 01 20 39  0.0000000  0  8G25G 1G20G 3G27G23G16G13
  24922949.66744 128127125.89444     -2598.14544        37.600    24922951.96741
  99839798.72841     -2024.53141        28.300
  21531649.55948 110305753.14448     -2109.39148        46.300    21531650.89945
  85953029.23645     -1643.68445        39.700
  22765732.03547 116790880.93647     -3291.62547        44.400    22765733.54745
  91006367.89945     -2564.90645        39.000
  23054356.09347 121151487.97047      2554.87147        43.500    23054358.60844
  94403769.60144      1990.80544        37.400
  23746111.03546 124786672.61546      2258.31346        41.800    23746113.09543
  97236392.22143      1759.72343        36.200
  20083754.17349 102697042.03349      -286.98449        48.900    20083751.10047
  80024153.09347      -223.62947        44.900
  21500165.01448 112984170.26048     -2054.96948        46.300    21500164.40545
  88039633.26045     -1601.27745        40.300
  21297058.23048 111916800.68648      2216.86748        47.000    21297058.04245
  87207928.52545      1727.42645        40.100
 04 09 01 20 40  0.0000000  0  8G25G 1G20G 3G27G23G16G13
  24952619.88645 128283041.27145     -2598.82845        39.000    24952621.25942
  99961291.07742     -2025.06642        32.500
  21555865.99448 110433011.37248     -2132.66848        46.400    21555867.20145
  86052191.42945     -1661.82445        39.400
  22803401.83547 116988837.02147     -3307.00047        44.600    22803403.49344
  91160619.23344     -2576.88744        37.800
  23025293.28546 120998762.38046      2535.90646        43.300    23025295.76243
  94284762.75843      1976.02743        36.000
  23720356.98446 124651334.41646      2253.33646        41.900    23720358.93944
  97130933.96444      1755.84444        37.800
  20087209.27249 102715198.61449      -318.23849        48.700    20087206.32347
  80038301.06247      -247.98047        44.800
  21523787.92848 113108308.62148     -2082.85948        46.700    21523787.15444
  88136364.41144     -1623.01244        38.700
  21271855.13848 111784358.22448      2197.55148        46.600    21271855.15645
  87104726.63845      1712.37545        40.000
 04 09 01 20 41  0.0000000  0  8G25G 1G20G 3G27G23G16G13
  24982294.58244 128438980.41744     -2599.22744        37.300    24982296.63541
 100082802.05141     -2025.36341        24.600
  21580347.50948 110561661.73048     -2155.81348        46.500    21580348.53945
  86152438.40145     -1679.85545        40.100
  22841245.06347 117187704.49247     -3321.77347        44.500    22841246.68044
  91315580.75944     -2588.39844        37.100
  22996450.37946 120847193.15346      2516.43046        43.000    22996453.20043
  94166657.01243      1960.85543        36.100
  23694659.82546 124516295.25846      2248.29746        42.000    23694662.15043
  97025708.77843      1751.91843        36.100
  20091022.45249 102735237.18949      -349.70349        48.600    20091019.60047
  80053915.52747      -272.50047        44.800
  21547728.46948 113234116.64248     -2110.56348        46.300    21547727.60545
  88234396.60545     -1644.59845        39.000
  21246872.31148 111653073.18948      2178.40248        46.900    21246872.47945
  87002426.65845      1697.45345        40.800
 04 09 01 20 42  0.0000000  0  8G25G 1G20G 3G27G23G16G13
  25011973.15944 128594943.50144     -2599.61744        37.400    25011975.90641
 100204331.49941     -2025.68441        19.700
  21605093.29848 110691700.84848     -2178.86748        46.800    21605094.33345
  86253767.50445     -1697.82045        39.200
  22879257.44447 117387459.72347     -3336.43847        44.700    22879259.08343
  91471234.00943     -2599.82843        35.200
  22967832.56346 120696805.55346      2496.72346        43.000    22967835.27344
  94049471.98744      1945.49644        38.000
  23669019.69946 124381555.57246      2243.30146        42.300    23669021.57644
  96920716.92444      1748.02344        36.700
  20095195.00149 102757164.12149      -381.20749        48.900    20095192.17747
  80071001.43747      -297.04747        44.900
  21571983.27548 113361576.47748     -2137.90248        46.300    21571982.31345
  88333715.93145     -1665.90245        39.700
  21222113.35648 111522963.65348      2158.66448        46.800    21222113.36045
  86901042.63045      1682.07445        40.600
 04 09 01 20 43  0.0000000  0  8G25G 1G20G 3G27G23G16G13
  25041656.36944 128750928.38144     -2600.08244        37.600    25041659.08841
 100325878.07741     -2026.03941        29.700
  21630102.19648 110823123.04848     -2202.04348        46.600    21630103.40045
  86356174.34745     -1715.87945        39.800
  22917433.70647 117588076.92447     -3350.81347        43.700    22917435.30943
  91627558.95143     -2611.03143        35.000
  22939444.20546 120547622.67546      2475.93046        43.300    22939446.22843
  93933225.68843      1929.29343        35.000
  23643435.97846 124247112.96346      2238.07446        42.500    23643437.71543
  96815956.54743      1743.94943        35.800
  20099727.76049 102780983.43849      -412.95349        49.000    20099724.87947
  80089561.92947      -321.78547        45.000
  21596548.65448 113490668.19048     -2165.27048        46.200    21596547.81245
  88434306.85645     -1687.22745        39.300
  21197581.13948 111394044.91348      2138.50848        47.200    21197580.84345
  86800586.48045      1666.36745        40.300
 04 09 01 20 44  0.0000000  0  9G25G 1G20G 3G27G23G16G13G19
  25071344.38043 128906940.26943     -2599.80943        36.600    25071348.80442
 102662997.60652     -2025.83642        33.700
  21655374.79348 110955930.19048     -2224.67248        46.600    21655375.80345
  86459660.35845     -1733.51645        39.500
  22955770.57946 117789537.70946     -3364.25846        43.100    22955772.21243
  91784541.18843     -2621.50843        35.100
  22911290.73646 120399674.68246      2455.69946        43.000    22911292.32643
  93817941.64843      1913.52743        34.600
  23617909.85946 124112973.03546      2233.24646        42.800    23617911.77143
  96711432.03843      1740.18843        36.300
  20104622.59349 102806705.93349      -444.36749        48.800    20104619.68947
  80109605.42347      -346.26247        44.600
  21621421.96948 113621378.77448     -2191.70348        46.200    21621421.26145
  88536159.21845     -1707.82445        39.300
  21173279.43348 111266339.45548      2118.41048        46.900    21173279.45345
  86701075.76345      1650.70745        40.200
  24838966.18742 130529638.50652      3129.81642        32.900    24838967.02041
 101711416.17951      2438.81641        31.900
 04 09 01 20 45  0.0000000  0  9G25G 1G20G 3G27G23G16G13G19
  25101034.50243 129062963.27443     -2600.62943        35.900    25101036.16541
 102784573.97441     -2026.45741        32.000
  21680906.85548 111090102.77448     -2247.62148        46.200    21680907.85145
  86564210.34745     -1751.39545        39.600
  22994260.74746 117991802.71246     -3377.87146        42.000    22994262.41643
  91942150.09443     -2632.11343        35.700
  22883373.69246 120252971.35946      2434.27346        42.900    22883375.85142
  93703627.50142      1896.83642        34.300
  23592438.46646 123979120.47146      2228.19546        43.000    23592440.38643
  96607131.43843      1736.25443        36.000
  20109877.70349 102834321.79049      -476.36349        48.900    20109874.76047
  80131124.25047      -371.19547        44.800
  21646597.04948 113753674.96948     -2218.23448        46.100    21646596.44845
  88639247.13145     -1728.49645        39.600
  21149209.40448 111139850.62848      2097.68448        47.300    21149209.38845
  86602513.06645      1634.55545        40.600
  24803204.98042 130341711.78852      3133.60942        33.300    24803211.34244
 101564979.14454      2441.77744        36.800
 04 09 01 20 46  0.0000000  0  9G25G 1G20G 3G27G23G16G13G19
  25130729.34043 129219008.74843     -2600.96143        34.800    25130728.39741
 102906137.71951     -2026.72341        30.600
  21706700.34748 111225648.24048     -2270.12548        46.100    21706701.41645
  86669830.10145     -1768.93445        40.300
  23032901.29045 118194859.44945     -3390.59045        40.700    23032902.83742
  92100375.95242     -2642.02042        33.800
  22855700.68246 120107548.89546      2413.07846        43.100    22855702.43243
  93590311.40143      1880.31643        35.800
  23567024.04646 123845566.71946      2223.44946        42.800    23567025.98743
  96503063.68643      1732.55543        35.500
  20115496.30549 102863847.65049      -507.89549        48.800    20115493.37747
  80154131.39947      -395.76647        44.600
  21672072.51248 113887549.31948     -2244.12148        45.900    21672072.02745
  88743564.76145     -1748.66845        39.700
  21125376.28948 111014606.56148      2077.11348        47.400    21125376.16845
  86504920.31345      1618.52745        41.000
  24767401.00844 130153558.79144      3137.67644        37.700    24767404.33742
 101418366.78342      2444.93842        33.800
 04 09 01 20 47  0.0000000  0  9G25G 1G20G 3G27G23G16G13G19
  25160427.37442 129375073.94742     -2600.95742        34.100    25160427.53841
 103027741.89051     -2026.70741        24.800
  21732753.79148 111362559.58748     -2293.30948        46.400    21732754.96845
  86776514.18345     -1786.99645        39.900
  23071687.06045 118398681.21445     -3403.35545        39.000    23071688.74242
  92259197.89542     -2651.97342        33.700
  22828275.49146 119963429.30046      2390.77746        43.000    22828277.33744
  93478010.47844      1862.94144        36.700
  23541666.02846 123712309.14946      2218.39546        42.900    23541667.77143
  96399226.71343      1728.61743        35.700
  20121478.89249 102895285.95749      -539.98049        48.900    20121475.78447
  80178628.75547      -420.76647        44.200
  21697844.23148 114022980.95448     -2270.17648        45.800    21697843.79945
  88849095.86645     -1768.97345        38.900
  21101782.85849 110890622.36049      2055.69149        47.800    21101782.72245
  86408309.28545      1601.83645        40.100
  24731557.08744 129965195.85944      3141.02744        38.400    24731559.47743
 101271590.80743      2447.55543        35.200
 04 09 01 20 48  0.0000000  0  9G25G 1G20G 3G27G23G16G13G19
  25190129.32342 132375024.17852     -2601.64542        33.900    25190135.05041
 103149367.14551     -2027.25441        21.700
  21759066.85448 111500834.76448     -2315.69948        46.200    21759067.90745
  86884260.98845     -1804.44545        39.900
  23110614.79345 118603246.70545     -3415.44545        39.000    23110616.80442
  92418599.39042     -2661.39142        32.600
  22801103.15347 119820639.28547      2368.92247        43.600    22801105.31043
  93366745.61443      1845.91043        35.200
  23516364.46546 123579350.39846      2213.86346        42.700    23516366.52043
  96295622.59343      1725.08643        35.700
  20127826.53249 102928643.56149      -571.58649        48.600    20127823.70247
  80204621.66547      -445.39547        44.600
  21723909.38848 114159953.93848     -2295.46148        45.600    21723908.86344
  88955828.01544     -1788.67644        37.900
  21078432.88548 110767918.08648      2034.55148        47.500    21078432.89245
  86312695.58045      1585.35945        40.300
  24695676.50044 129776647.94444      3144.23444        37.400    24695679.44444
 101124670.72044      2450.05544        36.700
 04 09 01 20 49  0.0000000  0  9G25G 1G20G 3G27G23G16G13G19
  25219835.16742 132531122.71552     -2602.88742        32.800

  21785636.76448 111640460.65848     -2339.03548        46.000    21785637.91645
  86993060.29645     -1822.62945        39.600
  23149678.03244 118808523.32444     -3427.81644        37.800    23149680.09341
  92578555.00741     -2671.03141        32.100
  22774187.28947 119679194.50347      2345.32847        43.800    22774188.89243
  93256528.97843      1827.52343        36.400
  23491118.51246 123446681.65646      2208.00846        42.800    23491120.10043
  96192244.44343      1720.52343        36.500
  20134538.76349 102963916.60549      -604.59849        48.700    20134535.98547
  80232107.14147      -471.11747        44.400
  21750262.35147 114298440.70547     -2321.47347        45.100    21750261.85944
  89063739.73544     -1808.94144        37.900
  21055328.31248 110646502.98548      2012.04748        47.500    21055327.94645
  86218086.42445      1567.82445        39.000
  24659763.38544 129587928.93344      3146.13744        37.100    24659766.39341
 100977617.23041      2451.53141        29.700
 04 09 01 20 50  0.0000000  0  8G 1G20G 3G27G23G16G13G19
  21812463.25148 111781436.24648     -2360.74248        45.800    21812464.65045
  87102911.32045     -1839.54345        39.700
  23188871.96543 119014491.14043     -3438.47743        34.900    23188874.08741
  92739049.31241     -2679.32441        30.200
  22747532.61246 119539123.35846      2323.16846        43.200    22747534.14043
  93147382.71543      1810.25843        35.900
  23465928.30146 123314307.17546      2203.97746        42.700    23465930.14144
  96089095.58144      1717.38344        37.600
  20141616.95849 103001112.99349      -635.91049        48.800    20141614.23747
  80261091.31247      -495.52047        44.300
  21776900.97947 114438426.75147     -2345.39547        45.300    21776900.35644
  89172819.73344     -1827.58244        38.400
  21032472.93148 110526397.89248      1990.80548        47.100    21032472.66245
  86124498.04645      1551.27345        39.700
  24623823.19844 129399065.56444      3149.23844        37.900    24623826.14943
 100830451.32143      2453.94943        35.100
 04 09 01 20 51  0.0000000  0  9G25G 1G20G 3G27G23G16G13G19
  25279256.76242 132843385.03552     -2601.98042        33.500    25279253.51041
 103514334.99051     -2027.52041        27.200
  21839546.76448 111923759.88448     -2382.62148        46.100    21839548.08045
  87213812.77445     -1856.59045        39.500
  23228194.03643 119221129.65843     -3448.79343        36.100    23228195.55741
  92900066.09341     -2687.37541        29.500
  22721144.44047 119400453.24847      2300.02047        43.400    22721145.83643
  93039328.16343      1792.21943        36.600
  23440795.02046 123182230.38446      2199.55146        42.600    23440796.74744
  95986178.69644      1713.93844        36.700
  20149062.71849 103040240.35649      -667.57049        48.600    20149059.95747
  80291580.13347      -520.18847        44.400
  21803821.97247 114579896.20947     -2369.53947        45.500    21803821.24844
  89283055.64044     -1846.39844        37.200
  21009871.30048 110407624.87148      1969.07848        47.400    21009871.07945
  86031947.64745      1534.34445        39.500
  24587860.84744 129210084.39144      3151.48844        37.400    24587863.08541
 100683193.66341      2455.71141        30.400
 04 09 01 20 52  0.0000000  0  9G25G 1G20G 3G27G23G16G13G19
  25308971.56642 132999536.95642     -2601.71942        33.900

  21866884.68248 112067419.44048     -2404.84448        46.200    21866885.64045
  87325755.20645     -1873.90645        39.400
  23267638.09443 119428407.51743     -3459.80143        34.900    23267643.49342
  95277111.12152     -2695.96542        32.600
  22695026.24647 119263200.43547      2276.24247        43.600    22695027.89043
  92932378.00643      1773.69143        36.200
  23415716.82146 123050444.12046      2194.47746        42.500    23415718.49943
  95883488.19843      1709.98043        35.200
  20156875.14649 103081294.96949      -699.78549        48.400    20156872.43947
  80323570.72147      -545.28947        44.400
  21831019.97447 114722822.92647     -2393.48047        45.100    21831019.29544
  89394427.06444     -1865.05544        37.600
  20987524.67148 110290193.13348      1946.54348        47.300    20987524.46345
  85940442.41045      1516.78545        40.100
  24551879.43844 129021001.11444      3152.72344        38.300    24551881.44342
 100535856.41342      2456.66842        33.700
 04 09 01 20 53  0.0000000  0  9G25G 1G20G 3G27G23G16G13G19
  25338687.26541 133155716.74951     -2600.10541        31.900

  21894476.14248 112212412.82848     -2424.99248        45.900    21894476.93344
  87438736.97944     -1889.60944        38.700
  23307199.54442 119636304.50842     -3467.40242        34.100    23307194.88841
  95439109.56451     -2701.87541        27.100
  22669182.89947 119127393.01447      2253.96147        43.700    22669184.19744
  92826554.14044      1756.32844        37.300
  23390694.74946 122918952.04546      2191.57046        42.800    23390696.27844
  95781026.91744      1707.71544        36.700
  20165055.55249 103124283.94649      -729.92649        48.300    20165052.91347
  80357068.60147      -568.77747        44.000
  21858492.56047 114867192.18247     -2415.52747        45.300    21858492.12344
  89506922.55244     -1882.23044        38.600
  20965437.66848 110174124.46348      1925.52048        47.600    20965437.54245
  85849999.30945      1500.40245        39.900
  24515883.75645 128831841.90745      3155.90645        40.200    24515885.81843
 100388459.97843      2459.14843        34.900
 04 09 01 20 54  0.0000000  0  8G 1G20G 3G27G23G16G13G19
  21922318.74448 112358727.28848     -2449.55948        45.600    21922319.53944
  87552748.15144     -1908.75044        38.700
  23346873.73942 119844789.84342     -3479.45742        34.300    23346875.45541
  95601532.58051     -2711.27041        27.000
  22643617.67547 118993047.33147      2226.84047        43.400    22643619.18343
  92721869.30643      1735.19543        36.300
  23365727.05846 122787747.34346      2184.24646        42.400    23365728.78243
  95678789.57043      1702.00843        35.800
  20173603.44449 103169203.15549      -765.03149        48.400    20173600.83447
  80392070.55847      -596.13347        44.400
  21886234.59147 115012977.46247     -2441.87547        45.000    21886233.98844
  89620521.42044     -1902.76244        37.200
  20943611.86948 110059429.14548      1899.88348        47.300    20943611.42345
  85760626.34345      1480.42645        40.700
  24479876.82645 128642623.15545      3153.73845        39.800    24479878.72542
 100241017.10642      2457.46142        33.600
 04 09 01 20 55  0.0000000  0  7G 1G 3G27G23G16G13G19
  21950413.62847 112506367.91447     -2471.38347        45.200    21950414.66245
  87667792.70145     -1925.75845        39.700
  22618336.95147 118860197.60447      2201.76647        43.600    22618338.63344
  92618350.13144      1715.66044        37.100
  23340816.41846 122656841.18146      2179.53546        42.800    23340818.12943
  95576784.85843      1698.33643        35.200
  20182521.30849 103216066.58649      -796.98849        48.400    20182518.76747
  80428587.48947      -621.03147        44.300
  21914244.59647 115160170.74947     -2464.53947        45.400    21914243.95344
  89735217.45344     -1920.42244        38.300
  20922052.90748 109946135.34048      1876.62948        47.500    20922052.50845
  85672345.48245      1462.30545        41.000
  24443864.50044 128453379.17844      3154.26644        38.200    24443866.44243
 100093554.57343      2457.87543        35.300
 04 09 01 20 56  0.0000000  0  8G 1G20G 3G27G23G16G13G19
  21978758.65747 112655321.71247     -2493.39147        45.200    21978760.01445
  87783860.50645     -1942.90645        39.400
  23426543.00742 123107314.74652     -3498.71942        34.200

  22593343.96747 118728860.39247      2176.30947        43.500    22593345.87043
  92516009.53843      1695.82043        34.900
  23315961.48646 122526226.61646      2174.72746        42.400    23315962.87844
  95475007.36444      1694.59044        37.200
  20191808.37349 103264870.10649      -829.53949        48.300    20191805.60947
  80466616.18147      -646.39847        44.200
  21942517.37547 115308746.13147     -2487.59047        45.200    21942517.01244
  89850990.44144     -1938.38744        37.700
  20900762.56248 109834254.05948      1852.87948        47.600    20900762.26246
  85585165.27846      1443.79746        41.200
  24407850.82444 128264126.05044      3153.98444        38.300    24407852.34241
  99946084.90641      2457.65241        29.900
 04 09 01 20 57  0.0000000  0  8G 1G20G 3G27G23G16G13G19
  22007352.88348 112805584.06048     -2515.11748        45.600    22007354.17744
  87900947.95144     -1959.83644        38.400
  23466530.53942 123317441.65242     -3505.46942        34.000

  22568643.75047 118599060.18547      2150.48047        43.400    22568645.59844
  92414866.58044      1675.69544        37.400
  23291161.78246 122395905.47146      2169.72346        41.800    23291163.50644
  95373458.50344      1690.69144        37.000
  20201465.28149 103315617.51949      -861.80949        48.400    20201462.60747
  80506159.59747      -671.54347        44.100
  21971049.99147 115458685.65047     -2509.97347        45.400    21971049.56544
  89967826.39244     -1955.82444        37.100
  20879744.60748 109723803.82448      1829.05948        47.400    20879744.33845
  85499100.18145      1425.23845        41.000
  24371839.62545 128074888.80345      3153.28545        39.000    24371841.38742
  99798627.65542      2457.10542        33.700
 04 09 01 20 58  0.0000000  0  8G 1G20G 3G27G23G16G13G19
  22036194.36147 112957146.33147     -2536.86347        45.100    22036195.69344
  88019048.32544     -1976.78144        38.800
  23506611.16042 123528072.51952     -3514.43842        32.900

  22544240.02947 118470817.46347      2124.43847        43.600    22544241.89844
  92314937.26744      1655.40244        36.700
  23266417.89046 122265875.21346      2164.60546        42.000    23266419.58043
  95272136.32043      1686.70343        36.400
  20211492.11049 103368308.15849      -894.33249        48.300    20211489.36847
  80547217.20947      -696.88747        44.100
  21999838.11147 115609967.65347     -2532.55947        45.100    21999837.62044
  90085708.43444     -1973.42644        38.500
  20859001.76348 109614799.52848      1804.50048        47.400    20859001.56746
  85414161.79346      1406.10246        41.300
  24335835.71545 127885688.40345      3152.65245        40.200    24335837.25743
  99651199.03543      2456.61343        35.200
 04 09 01 20 59  0.0000000  0  7G 1G 3G27G23G16G13G19
  22065281.99147 113110003.31747     -2558.34047        44.800    22065283.38944
  88138157.55144     -1993.51644        38.800
  22520137.11346 118344156.53946      2097.78146        42.900    22520139.04744
  92216240.52144      1634.63344        38.500
  23241729.31945 122136137.67645      2159.87145        40.800    23241731.18543
  95171042.19943      1683.01243        35.300
  20221889.26149 103422945.58549      -926.72349        48.200    20221886.37847
  80589791.80447      -722.12547        43.800
  22028878.16347 115762574.35047     -2554.17247        44.700    22028877.70244
  90204622.69544     -1990.26644        37.800
  20838537.45648 109507259.64748      1780.03948        47.300    20838537.26746
  85330364.50146      1387.03946        41.200
  24299844.15246 127696549.93246      3151.63346        41.800    24299845.04741
  99503818.62441      2455.81641        31.800
 04 09 01 21 00  0.0000000  0  7G 1G 3G27G23G16G13G19
  22094614.21047 113264145.21947     -2579.57447        44.800    22094615.69545
  88258268.03045     -2010.06345        39.100
  22496339.00746 118219096.49846      2071.00446        43.100    22496341.00644
  92118791.19644      1613.76644        36.700
  23217096.07146 122006690.12446      2155.31346        41.900    23217098.00244
  95070174.07744      1679.46144        37.600
  20232656.59449 103479528.20949      -959.14849        48.300    20232653.74947
  80633882.12247      -747.39147        43.700
  22058166.13247 115916483.65247     -2575.71147        44.900    22058165.71244
  90324551.97644     -2007.05144        36.900
  20818354.79948 109401199.21348      1755.37548        47.200    20818354.71645
  85247720.03645      1367.82045        40.800
  24263867.77146 127507493.66546      3150.21946        41.800    24263868.60541
  99356502.26641      2454.71141        30.200
 04 09 01 21 01  0.0000000  0  7G 1G 3G27G23G16G13G19
  22124190.40847 113419567.88047     -2601.12947        44.600    22124191.80944
  88379376.49844     -2026.85544        38.600
  22472850.36347 118095663.08047      2043.47747        43.700    22472852.15743
  92022609.38443      1592.31643        36.200
  23192518.93146 121877535.58546      2149.99246        41.500    23192520.60844
  94969534.24744      1675.31644        38.300
  20243794.95849 103538060.29749      -991.88349        48.400    20243792.13047
  80679491.50647      -772.89847        43.800
  22087698.93947 116071678.86447     -2597.14147        44.300    22087698.40043
  90445483.24243     -2023.75043        36.600
  20798457.35948 109296637.18548      1730.05148        47.700    20798457.09245
  85166243.14445      1348.09045        41.100
  24227911.82446 127318546.02146      3147.95746        41.300    24227912.49443
  99209270.56443      2452.94943        36.200
 04 09 01 21 02  0.0000000  0  7G 1G 3G27G23G16G13G19
  22154008.22747 113576261.28047     -2622.14847        44.600    22154009.76245
  88501475.15245     -2043.23445        39.600
  22449675.01347 117973875.26547      2015.87147        43.800    22449676.66644
  91927709.83744      1570.80544        36.900
  23167996.96846 121748671.52346      2145.29746        43.100    23167998.59544
  94869120.76944      1671.65644        37.300
  20255303.84449 103598539.69049     -1024.21949        48.300    20255300.97247
  80726618.28047      -798.09847        44.100
  22117472.21647 116228137.75247     -2618.09847        44.900    22117471.65744
  90567399.22844     -2040.07844        37.500
  20778847.79249 109193588.48349      1704.69549        47.800    20778847.46545
  85085945.47045      1328.33245        40.500
  24191980.77546 127129728.25246      3145.76646        41.200    24191982.06244
  99062140.11544      2451.24644        37.200
 04 09 01 21 03  0.0000000  0  7G 1G 3G27G23G16G13G19
  22184066.61347 113734219.13347     -2643.17247        44.200    22184068.32845
  88624559.07845     -2059.62145        39.500
  22426817.23047 117853755.99347      1987.68047        43.800    22426818.91644
  91834110.43244      1548.84044        37.300
  23143530.70946 121620099.08546      2140.44546        42.900    23143531.97144
  94768934.53844      1667.87544        37.300
  20267183.74949 103660968.41449     -1056.87549        48.300    20267180.82547
  80775264.00247      -823.54347        43.700
  22147482.39647 116385842.10547     -2638.75847        45.000    22147481.70844
  90690285.69444     -2056.18044        37.300
  20759529.65749 109092070.66649      1678.99249        48.100    20759529.28745
  85006840.67345      1308.30145        40.900
  24156078.92645 126941065.16745      3142.94145        39.700    24156080.82643
  98915130.17143      2449.04343        36.200
 04 09 01 21 04  0.0000000  0  7G 1G 3G27G23G16G13G19
  22214364.03247 113893434.07547     -2664.16047        44.200    22214365.99745
  88748622.57545     -2075.97345        39.300
  22404280.94647 117735327.05047      1959.43447        43.800    22404282.57744
  91741828.19844      1526.82844        38.000
  23119119.75546 121491819.20046      2135.54746        43.200    23119120.87543
  94668976.25143      1664.05943        36.100
  20279434.39949 103725347.04249     -1089.38749        48.300    20279431.76447
  80825429.13647      -848.87547        43.700
  22177725.95847 116544772.44547     -2659.08247        44.600    22177725.13944
  90814127.45644     -2072.01644        38.300
  20740506.23549 108992101.36349      1653.04349        48.300    20740505.72145
  84928942.51745      1288.08245        40.800
  24120211.11745 126752580.35145      3139.75445        40.400    24120213.22843
  98768259.15743      2446.56343        36.400
 04 09 01 21 05  0.0000000  0  7G 1G 3G27G23G16G13G19
  22244899.28547 114053897.74547     -2684.69547        44.300    22244901.17044
  88873659.08244     -2091.97344        38.800
  22382070.07247 117618609.36247      1930.74247        43.600    22382071.61444
  91650879.40344      1504.47344        37.700
  23094764.19246 121363830.87046      2130.66846        43.000    23094765.50243
  94569245.14643      1660.25843        36.500
  20292056.04649 103791674.44249     -1121.76649        48.100    20292053.36347
  80877112.79347      -874.10547        43.700
  22208199.01047 116704908.66947     -2679.01247        44.700    22208198.39444
  90938908.88044     -2087.54344        37.900
  20721780.22249 108893696.17149      1626.94149        48.100    20721780.06846
  84852263.15146      1267.74246        41.500
  24084382.17646 126564296.99346      3136.19146        41.900    24084384.00843
  98621545.06543      2443.78143        35.900
 04 09 01 21 06  0.0000000  0  7G 1G 3G27G23G16G13G19
  22275671.19647 114215604.12647     -2705.73047        44.600    22275672.99144
  88999663.94644     -2108.36344        38.700
  22360189.14547 117503625.97847      1901.62947        43.600    22360190.93943
  91561282.02443      1481.78543        35.900
  23070464.67147 121236136.46547      2125.73447        43.400    23070465.94443
  94469743.06743      1656.41443        36.400
  20305049.01849 103859952.36649     -1154.25049        48.100    20305046.42547
  80930316.34747      -899.41847        43.800
  22238897.90047 116866233.27647     -2698.58247        44.600    22238897.38544
  91064616.31144     -2102.79344        37.800
  20703355.49249 108796873.46749      1600.28149        48.300    20703355.16545
  84776816.89145      1246.96945        41.100
  24048596.38046 126376240.72446      3132.07446        42.100    24048597.42342
  98475007.92942      2440.57842        32.600
 04 09 01 21 07  0.0000000  0  7G 1G 3G27G23G16G13G19
  22306677.49447 114378541.74947     -2725.91047        44.200    22306679.20845
  89126628.20645     -2124.09045        38.900
  22338641.72947 117390393.90947      1872.73047        43.900    22338643.53944
  91473049.29444      1459.26644        37.900
  23046220.52247 121108732.85347      2121.04347        43.500    23046222.02044
  94370467.57544      1652.75844        37.300
  20318412.27749 103930177.19849     -1186.81649        47.900    20318409.82347
  80985036.95747      -924.79747        43.600
  22269818.79447 117028723.09147     -2717.78547        44.400    22269818.26244
  91191231.69144     -2117.75844        37.900
  20685234.51649 108701646.86049      1573.75849        48.100    20685234.25546
  84702614.34046      1226.30146        41.400
  24012857.30446 126188432.06446      3128.03546        41.400    24012858.10344
  98328663.72944      2437.43044        38.200
 04 09 01 21 08  0.0000000  0  7G 1G 3G27G23G16G13G19
  22337916.85247 114542705.43247     -2746.37547        43.700    22337918.80145
  89254547.84645     -2140.03545        39.200
  22317432.46646 117278937.80246      1842.75446        43.300    22317434.04444
  91386200.46044      1435.91444        38.100
  23022032.45447 120981623.69247      2116.21947        43.600    23022033.67643
  94271421.52643      1649.00043        35.700
  20332146.58449 104002351.04549     -1218.92249        48.000    20332144.12247
  81041276.30147      -949.81347        43.900
  22300958.11447 117192361.96147     -2736.43847        44.200    22300957.62244
  91318742.43044     -2132.29344        38.400
  20667420.79648 108608035.67348      1546.93448        47.700    20667420.57646
  84629670.56846      1205.39846        41.800
  23977170.06246 126000897.95546      3123.30546        41.300    23977171.56044
  98182533.47744      2433.74244        37.100
 04 09 01 21 09  0.0000000  0  7G 1G 3G27G23G16G13G19
  22369387.00247 114708083.08447     -2766.65647        43.600    22369389.31644
  89383413.42644     -2155.84044        38.800
  22296564.09547 117169274.09247      1812.72347        43.600    22296565.81944
  91300748.27744      1412.50844        37.100
  22997899.93047 120854805.97047      2111.13347        43.900    22997901.05044
  94172602.57944      1645.03544        37.000
  20346250.91349 104076469.56849     -1251.66449        48.100    20346248.29646
  81099030.96646      -975.32446        43.200
  22332311.85247 117357126.88547     -2755.19547        44.200    22332311.78344
  91447130.61944     -2146.91044        38.100
  20649916.89248 108516053.03248      1519.22348        47.400    20649916.75345
  84557995.79845      1183.80945        41.000
  23941539.23246 125813659.39046      3118.30546        41.600    23941540.81145
  98036633.55145      2429.84845        39.600
 04 09 01 21 10  0.0000000  0  8G 8G 1G 3G27G23G16G13G19
  25015305.13643 131456309.70453      2886.93443        35.900    25015308.76741
 102433514.37851      2249.55541        32.100
  22401087.04947 114874667.14447     -2787.12547        44.200    22401089.14644
  89513219.07144     -2171.78944        37.700
  22276041.09847 117061423.79047      1781.89547        44.600    22276042.67144
  91216709.14944      1388.48444        37.600
  22973822.93647 120728280.91747      2105.67647        43.900    22973823.97743
  94074011.69343      1640.78143        36.600
  20360725.18449 104152532.12349     -1284.43849        48.100    20360722.43646
  81158300.45846     -1000.86346        43.200
  22363876.38547 117522999.59047     -2773.83647        43.600    22363876.53144
  91576382.00344     -2161.43444        38.200
  20632726.54249 108425716.29149      1491.32449        47.800    20632726.40846
  84487603.54346      1162.06646        42.100
  23905970.05346 125626741.00546      3111.88746        41.500    23905971.10443
  97890983.07443      2424.84443        36.300
 04 09 01 21 11  0.0000000  0  8G 8G 1G 3G27G23G16G13G19
  24982347.06044 131283117.30844      2885.39144        36.900    24982350.95441
 102298559.44541      2248.35241        31.800
  22433015.76047 115042452.92347     -2806.39147        44.100    22433017.91544
  89643961.10144     -2186.80144        38.000
  22255867.71647 116955411.33047      1751.28147        44.800    22255869.19744
  91134102.09744      1364.63344        38.100
  22949802.48347 120602053.43647      2101.38747        43.800    22949803.82643
  93975652.67943      1637.44143        36.400
  20375569.92849 104230541.52649     -1316.43849        48.000    20375567.16147
  81219086.97347     -1025.79747        43.600
  22395648.82647 117689964.49847     -2791.83247        43.900    22395648.85344
  91706484.45344     -2175.45744        37.400
  20615853.08749 108337045.44949      1463.77049        47.900    20615852.76146
  84418509.38446      1140.59846        41.700
  23870466.69246 125440171.23746      3106.40246        41.500    23870468.23844
  97745604.25944      2420.57444        37.100
 04 09 01 21 12  0.0000000  0  8G 8G 1G 3G27G23G16G13G19
  24949409.89644 131110031.73244      2883.68444        38.100    24949414.44941
 102163687.77741      2247.02341        31.600
  22465170.53547 115211425.49547     -2826.14547        44.400    22465172.33045
  89775627.89345     -2202.19545        39.300
  22236046.26147 116851250.28047      1720.35947        43.900    22236047.90844
  91052937.71244      1340.53544        37.200
  22925837.47347 120476118.15347      2096.34047        43.600    22925839.15643
  93877521.35443      1633.50843        35.400
  20390783.55049 104310490.06449     -1348.68449        48.000    20390780.72347
  81281384.49547     -1050.92647        43.400
  22427624.39547 117857996.48047     -2809.40247        43.600    22427624.47344
  91837418.38544     -2189.14844        38.400
  20599298.61349 108250050.97449      1435.87149        48.000    20599298.34146
  84350721.49546      1118.85546        41.900
  23835033.10146 125253968.23146      3100.00846        41.600    23835034.48645
  97600511.20645      2415.58645        38.900
 04 09 01 21 13  0.0000000  0  8G 8G 1G 3G27G23G16G13G19
  24916493.81344 130937056.96944      2882.23044        38.200    24916497.97241
 102028902.38841      2245.89141        29.900
  22497549.53947 115381577.54447     -2845.50447        44.100    22497551.39644
  89908213.76344     -2217.27744        37.500
  22216581.09247 116748961.71747      1689.11347        44.000    22216582.45444
  90973232.40444      1316.18844        36.900
  22901928.98247 120350477.30947      2091.55147        44.000    22901930.09543
  93779619.45443      1629.77743        34.600
  20406366.20849 104392376.90649     -1380.90249        47.900    20406363.34446
  81345192.39246     -1076.03146        43.200
  22459799.56447 118027077.68347     -2826.57447        44.100    22459799.63044
  91969169.89344     -2202.52744        37.200
  20583066.34049 108164750.23049      1407.52049        48.100    20583066.03546
  84284253.39346      1096.76646        41.600
  23799674.49346 125068157.67046      3093.59446        41.200    23799675.48744
  97455723.97444      2410.59444        36.800
 04 09 01 21 14  0.0000000  0  8G 8G 1G 3G27G23G16G13G19
  24883598.86644 130764193.39844      2879.97344        38.700    24883603.55741
 101894203.73241      2244.14141        29.800
  22530150.84947 115552898.48847     -2864.96547        43.900    22530153.00544
  90041710.46244     -2232.44144        38.300
  22197476.07647 116648563.76147      1657.52047        45.100    22197477.27744
  90895000.28044      1291.57044        37.100
  22878076.23847 120225130.42047      2086.62147        44.100    22878077.27644
  93681946.62444      1625.93444        36.900
  20422316.87849 104476198.38149     -1413.12149        48.000    20422314.38346
  81410507.78946     -1101.13746        43.000
  22492170.72747 118197187.69047     -2843.51647        44.200    22492170.66244
  92101723.07244     -2215.73044        38.700
  20567159.35449 108081158.33249      1378.90649        48.100    20567159.07146
  84219116.86046      1074.46946        43.000
  23764394.91145 124882762.59545      3086.42645        41.100    23764395.62244
  97311260.47044      2405.00444        37.700
 04 09 01 21 15  0.0000000  0  8G 8G 1G 3G27G23G16G13G19
  24850725.60044 130591443.99144      2878.41444        37.400    24850729.29641
 101759593.94941      2242.91841        27.000
  22562973.17247 115725380.64847     -2884.28147        43.900    22562975.24643
  90176112.00943     -2247.50043        35.300
  22178734.77447 116550077.14247      1625.59447        44.300    22178736.03745
  90818257.50645      1266.69145        39.300
  22854279.98247 120100079.78047      2081.73047        44.100    22854281.10243
  93584504.63343      1622.12543        36.200
  20438635.64549 104561953.89649     -1445.37549        47.900    20438633.10046
  81477330.22946     -1126.27046        42.900
  22524733.97747 118368309.04847     -2860.32847        44.200    22524733.87044
  92235064.32644     -2228.83244        37.300
  20551580.71849 107999291.94049      1350.00049        48.100    20551580.40346
  84155324.86746      1051.94546        43.100
  23729199.45746 124697809.34346      3078.68046        42.100    23729200.00744
  97167141.22544      2398.96944        37.900
 04 09 01 21 16  0.0000000  0  8G 8G 1G 3G27G23G16G13G19
  24817874.75243 130418812.84543      2876.17243        36.200    24817878.26741
 101625076.31641      2241.16841        17.900
  22596015.14647 115899015.78247     -2903.68447        44.100    22596017.19144
  90311411.97744     -2262.61344        37.800
  22160360.61747 116453521.32847      1592.89147        44.100    22160362.10344
  90743019.26344      1241.21144        38.300
  22830540.15447 119975327.54147      2076.64547        43.700    22830541.37344
  93487295.15944      1618.16044        37.800
  20455322.06649 104649641.71049     -1477.65649        47.900    20455319.40046
  81545658.34646     -1151.42246        42.900
  22557486.19547 118540423.50447     -2876.76647        43.800    22557486.18843
  92369179.43043     -2241.64143        36.400
  20536333.91749 107919168.90849      1320.72749        47.900    20536333.50946
  84092891.34246      1029.13346        42.700
  23694093.03746 124513323.27546      3070.72346        42.100    23694093.74844
  97023386.03944      2392.77044        38.000
 04 09 01 21 17  0.0000000  0  8G 8G 1G 3G27G23G16G13G19
  24785045.89643 130246298.41943      2874.15243        36.000    24785049.05741
 101490649.72141      2239.60541        20.900
  22629274.06847 116073791.54947     -2922.14147        44.100    22629275.82644
  90447600.72444     -2277.00044        37.100
  22142357.31847 116358913.06047      1560.53147        44.700    22142358.92344
  90669298.56844      1215.99644        38.500
  22806856.94347 119850872.32647      2071.70747        44.100    22806858.40244
  93390317.14044      1614.31344        38.000
  20472374.96249 104739255.86649     -1509.64149        47.800    20472372.43146
  81615487.51846     -1176.34846        43.200
  22590423.32147 118713509.82147     -2893.01247        43.900    22590423.60044
  92504051.80544     -2254.29744        38.200
  20521421.07048 107840802.13648      1291.37548        47.700    20521420.77046
  84031826.32446      1006.26246        42.000
  23659079.33746 124329326.22746      3062.38746        41.800    23659080.40044
  96880011.90744      2386.27344        38.700
 04 09 01 21 18  0.0000000  0  8G 8G 1G 3G27G23G16G13G19
  24752240.03443 130073902.78443      2871.83243        35.500    24752244.07242
 101356315.60042      2237.78942        34.300
  22662747.83547 116249697.93047     -2941.30947        43.800    22662749.68644
  90584670.49744     -2291.93444        37.300
  22124727.96247 116266269.34047      1527.30947        44.800    22124729.31244
  90597108.67144      1190.10544        37.400
  22783230.81247 119726714.38847      2066.48047        44.100    22783231.88844
  93293570.76444      1610.24244        38.700
  20489794.05149 104830792.62249     -1541.98849        48.000    20489791.50046
  81686814.81546     -1201.55146        43.100
  22623541.79947 118887548.36647     -2908.85547        43.600    22623541.98244
  92639666.17744     -2266.64544        38.700
  20506845.14948 107764206.17248      1261.60248        47.500    20506845.13546
  83972141.17146       983.06346        42.100
  23624163.42346 124145842.61646      3053.19146        42.100    23624164.16844
  96737037.85644      2379.10544        38.000
 04 09 01 21 19  0.0000000  0  8G 8G 1G 3G27G23G16G13G19
  24719457.52043 129901628.07743      2870.29743        35.500    24719460.77241
 101222075.75141      2236.59041        26.300
  22696435.05347 116426725.84947     -2959.99647        43.500    22696437.06143
  90722614.19143     -2306.49243        35.900
  22107475.68947 116175608.83247      1494.48447        43.700    22107476.88444
  90526464.13844      1164.53144        37.800
  22759661.30147 119602856.10947      2061.75847        44.000    22759662.28844
  93197057.87944      1606.56344        38.600
  20507578.41549 104924249.65249     -1573.67649        47.900    20507575.92746
  81759638.41846     -1226.24246        42.900
  22656837.97846 119062521.15846     -2923.92646        43.000    22656838.56245
  92776008.54445     -2278.38745        39.000
  20492609.56248 107689397.30348      1231.75048        47.700    20492609.25946
  83913848.55246       959.80146        41.600
  23589350.09946 123962897.65446      3044.37946        41.600    23589350.90045
  96594483.55545      2372.24245        38.900
 04 09 01 21 20  0.0000000  0  8G 8G 1G 3G27G23G16G13G19
  24686698.16244 129729476.78144      2868.44544        37.000    24686701.52841
 101087914.07451      2235.14841        31.100
  22730333.94147 116604865.80947     -2978.33247        43.700    22730336.22344
  90861424.41344     -2320.78144        37.100
  22090604.42147 116086950.41347      1460.85947        44.600    22090605.87044
  90457379.68244      1138.32844        37.500
  22736149.13247 119479298.93447      2056.93847        44.200    22736150.05344
  93100779.62444      1602.80544        38.700
  20525727.37248 105019623.02748     -1605.51248        47.700    20525724.92246
  81833955.28046     -1251.05146        42.900
  22690308.38946 119238409.57946     -2938.94946        43.200    22690309.00144
  92913064.38044     -2290.09444        37.500
  20478717.22949 107616391.73849      1201.68449        47.800    20478716.72146
  83856961.10246       936.37546        42.000
  23554644.01846 123780516.32346      3034.93846        41.900    23554644.55344
  96452368.41944      2364.88344        38.000
 04 09 01 21 21  0.0000000  0  8G 8G 1G 3G27G23G16G13G19
  24653962.63744 129557450.52744      2866.09044        37.000    24653965.58341
 100953867.78941      2233.31341        28.300
  22764442.53547 116784107.34947     -2996.48047        43.700    22764444.88043
  91001092.98643     -2334.92243        36.000
  22074117.53447 116000310.90547      1427.06347        44.600    22074119.04244
  90389868.40144      1111.99244        37.900
  22712694.25147 119356043.92647      2051.89547        43.600    22712695.62744
  93004736.81844      1598.87544        38.800
  20544240.17349 105116908.52249     -1637.32849        47.800    20544237.79946
  81909762.11346     -1275.84446        42.000
  22723949.93947 119415194.88047     -2953.94947        43.900    22723949.99044
  93050819.09444     -2301.78144        38.300
  20465170.70849 107545203.86549      1171.17649        48.100    20465170.05746
  83801490.03246       912.60246        41.800
  23520049.49846 123598723.20446      3024.77046        41.500    23520050.35344
  96310711.58344      2356.96144        38.200
 04 09 01 21 22  0.0000000  0  8G 8G 1G 3G27G23G16G13G19
  24621251.05544 129385551.55744      2864.13744        38.400    24621254.73341
 100819920.76341      2231.80141        29.700
  22798758.94647 116964439.99247     -3014.52047        43.700    22798761.37544
  91141611.78744     -2348.98044        36.700
  22058017.90247 115915707.18147      1393.19147        44.300    22058019.32744
  90323943.45744      1085.60244        37.700
  22689296.91546 119233091.86546      2046.64146        43.300    22689298.49344
  92908930.07344      1594.78144        37.100
  20563115.80649 105216101.02349     -1669.02049        47.800    20563113.60646
  81987054.91746     -1300.53946        42.300
  22757757.95746 119592857.51846     -2968.03546        42.900    22757758.29444
  93189257.42744     -2312.75844        37.100
  20451972.78249 107475847.92349      1140.70349        48.100    20451972.16446
  83747446.44446       888.85546        41.900
  23485571.23846 123417541.82546      3014.53546        41.400    23485572.54444
  96169531.46244      2348.98444        38.500
 04 09 01 21 23  0.0000000  0  8G 8G 1G 3G27G23G16G13G19
  24588563.83144 129213779.98944      2861.84844        38.100    24588566.89241
 100686072.92641      2230.00841        29.100
  22833280.73647 117145851.10547     -3032.38747        44.200    22833282.94044
  91282970.92844     -2362.90244        37.400
  22042308.52147 115833154.05447      1358.78147        44.600    22042309.71444
  90259616.39044      1058.78944        38.100
  22665957.73047 119110442.60647      2041.62547        43.400    22665959.20145
  92813359.25645      1590.87545        39.000
  20582353.34149 105317193.92549     -1700.46949        47.900    20582350.60446
  82065828.55346     -1325.04346        42.500
  22791729.22046 119771377.36646     -2982.46946        42.700    22791729.52843
  93328363.73843     -2324.00443        35.600
  20439125.84749 107408337.30349      1109.83649        48.000    20439125.44446
  83694840.76746       864.80546        42.100
  23451214.31246 123236995.56946      3003.72346        41.200    23451215.65544
  96028846.26444      2340.55944        38.300
 04 09 01 21 24  0.0000000  0  8G 8G 1G 3G27G23G16G13G19
  24555900.41744 129042133.28744      2859.25444        38.500    24555903.76241
 100552322.41741      2227.98841        25.200
  22868004.76547 117328324.98247     -3050.64847        44.300    22868006.78843
  91425158.19343     -2377.13343        36.100
  22026991.40547 115752662.14547      1323.75447        44.900    22026992.72444
  90196895.45344      1031.53544        38.600
  22642675.34847 118988092.16147      2036.22347        43.400    22642676.85044
  92718021.28844      1586.66444        38.300
  20601950.58949 105420177.63349     -1732.70749        47.900    20601947.97046
  82146075.53446     -1350.16446        42.300
  22825859.06046 119950730.54446     -2996.69546        43.000    22825859.48043
  93468119.37943     -2335.09043        36.600
  20426631.92949 107342681.46149      1078.25849        48.000    20426631.42046
  83643680.36646       840.19946        42.100
  23416982.23346 123057103.65946      2992.28146        42.300    23416982.98244
  95888670.90944      2331.64844        37.700
 04 09 01 21 25  0.0000000  0  8G 8G 1G 3G27G23G16G13G19
  24523263.89144 128870629.14344      2857.32044        37.900    24523267.22941
 100418683.00241      2226.48041        25.800
  22902932.00447 117511867.28847     -3067.74647        44.200    22902933.72644
  91568178.02744     -2390.45344        37.300
  22012072.85147 115674264.36647      1289.08647        44.400    22012074.11044
  90135806.30544      1004.48044        38.800
  22619453.08746 118866058.84946      2031.19946        43.000    22619454.56544
  92622930.44144      1582.75044        38.300
  20621909.59948 105525063.07348     -1763.82048        47.600    20621907.03146
  82227804.38746     -1374.41046        42.500
  22860147.05046 120130915.07646     -3009.64546        42.600    22860147.32644
  93608522.82944     -2345.18044        37.000
  20414496.82849 107278911.09849      1047.08249        48.100    20414496.31646
  83593989.17846       815.90646        42.400
  23382882.54446 122877907.51346      2980.50846        41.900    23382882.90844
  95749037.70144      2322.46944        38.100
 04 09 01 21 26  0.0000000  0  8G 8G 1G 3G27G23G16G13G19
  24490652.49044 128699255.09944      2855.14544        38.600    24490655.68742
 100285144.93042      2224.78542        34.300
  22938057.06446 117696452.18246     -3085.08246        43.000    22938059.31943
  91712010.21743     -2403.96543        35.200
  21997552.73147 115597961.31647      1254.32447        44.600    21997554.19844
  90076349.43944       977.39144        38.600
  22596288.57846 118744329.34346      2026.20746        42.900    22596289.87445
  92528076.32645      1578.85945        39.000
  20642226.56849 105631829.63749     -1795.07049        47.800    20642224.15146
  82310999.05946     -1398.75846        42.300
  22894586.82246 120311897.63346     -3022.99246        42.800    22894587.43643
  93749548.13043     -2355.58243        35.300
  20402720.38949 107217025.37949      1015.66849        48.000    20402719.90946
  83545766.54246       791.42646        43.000
  23348916.75346 122699416.69646      2968.77046        42.700    23348917.04745
  95609954.11245      2313.32445        39.000
 04 09 01 21 27  0.0000000  0  8G 8G 1G 3G27G23G16G13G19
  24458066.88445 128528016.59145      2852.81645        38.900    24458070.68141
 100151712.47641      2222.96941        26.600
  22973379.14046 117882071.76746     -3102.47746        43.100    22973381.68444
  91856648.67444     -2417.51644        37.100
  21983435.19447 115523771.72747      1218.81647        44.800    21983436.32245
  90018539.40545       949.72345        38.900
  22573182.84346 118622908.05046      2021.11346        42.800    22573184.05844
  92433462.36844      1574.89144        38.700
  20662901.13249 105740474.77149     -1826.50849        47.800    20662898.84946
  82395657.53946     -1423.25846        42.600
  22929175.67946 120493662.63746     -3035.87946        42.900    22929176.08543
  93891183.12743     -2365.62543        35.300
  20391305.85049 107157041.58049       983.85949        48.000    20391305.62646
  83499025.92246       766.64146        43.200
  23315090.16846 122521658.69046      2956.26646        41.700    23315090.78544
  95471441.52744      2303.58244        37.100
 04 09 01 21 28  0.0000000  0  8G 8G 1G 3G27G23G16G13G19
  24425507.58345 128356917.33645      2850.32045        39.300    24425510.86441
 100018388.55541      2221.03141        31.300
  23008896.47146 118068716.19646     -3119.30146        43.100    23008899.33543
  92002085.70043     -2430.62943        35.000
  21969722.58047 115451712.50347      1183.03947        43.900    21969723.59845
  89962389.41345       921.84445        39.000
  22550136.34046 118501798.55146      2015.68446        43.300    22550137.85444
  92339091.38544      1570.66044        38.700
  20683932.47849 105850994.33649     -1857.79749        47.900    20683929.92646
  82481776.63846     -1447.63746        42.700
  22963910.56846 120676194.02446     -3048.89146        42.600    22963910.59743
  94033415.28743     -2375.76643        35.900
  20380256.12649 107098975.22949       951.51649        48.000    20380255.86646
  83453779.42646       741.43846        43.000
  23281408.34946 122344660.03546      2943.34446        42.400    23281408.87844
  95333520.61444      2293.51244        37.700
 04 09 01 21 29  0.0000000  0  8G 8G 1G 3G27G23G16G13G19
  24392974.93245 128185956.64745      2847.74645        39.900    24392977.35941
  99885172.55941      2219.02041        31.200
  23044606.31446 118256371.28846     -3135.97346        43.100    23044608.85243
  92148310.28243     -2443.61743        36.300
  21956417.56547 115381794.92447      1147.27347        44.700    21956418.70244
  89907908.23744       893.97744        38.500
  22527149.04947 118380999.52247      2010.53947        43.600    22527150.28044
  92244962.32544      1566.65244        37.100
  20705318.37748 105963378.44948     -1888.61748        47.600    20705316.21846
  82569348.61146     -1471.65246        42.000
  22998787.04447 120859470.12847     -3060.71147        43.400    22998786.96944
  94176227.76044     -2384.97344        36.800
  20369573.25249 107042836.65449       919.36749        48.000    20369572.97546
  83410035.07246       716.38746        42.500
  23247875.07946 122168442.06446      2930.32046        42.000    23247875.50844
  95196208.07444      2283.36744        38.500
 04 09 01 21 30  0.0000000  0  8G 8G 1G 3G27G23G16G13G19
  24360469.32445 128015138.64545      2845.69545        39.700    24360472.24441
  99752067.79841      2217.42641        29.900
  23080506.62146 118445028.26046     -3152.53946        42.500    23080509.30543
  92295315.47543     -2456.53143        34.900
  21943523.51647 115314036.00847      1111.28547        45.100    21943524.62144
  89855109.12644       865.93444        36.800
  22504221.63447 118260515.44147      2005.46547        43.800    22504222.81844
  92151078.67244      1562.69544        38.700
  20727058.42648 106077622.85548     -1919.58248        47.700    20727056.18046
  82658370.17246     -1495.78146        42.000
  23033802.10946 121043475.24746     -3072.70346        42.700    23033802.06242
  94319608.29042     -2394.31642        34.200
  20359260.29249 106988641.56749       886.91849        47.900    20359260.03546
  83367805.12346       691.10246        42.600
  23214495.71446 121993031.63246      2916.41846        42.700    23214496.03945
  95059524.74145      2272.53145        40.000
 04 09 01 21 31  0.0000000  0  8G 8G 1G 3G27G23G16G13G19
  24327991.39245 127844466.91245      2842.94945        39.700    24327993.65341
  99619076.99241      2215.28941        28.100
  23116595.63246 118634676.28946     -3169.14146        42.600    23116598.61242
  92443092.97942     -2469.46542        33.600
  21931043.24847 115248450.80547      1074.73847        45.000    21931044.24144
  89804003.81544       837.45744        38.700
  22481354.82447 118140349.10147      2000.00847        44.300    22481355.81445
  92057442.61245      1558.44545        39.600
  20749151.45348 106193722.18948     -1950.63748        47.600    20749149.01346
  82748837.12946     -1519.98046        42.300
  23068952.86546 121228192.20246     -3084.52046        42.100    23068952.46542
  94463543.49942     -2403.52342        34.100
  20349320.04849 106936404.69349       854.02049        47.900    20349319.62746
  83327101.06146       665.46546        42.700
  23181274.41346 121818454.53346      2902.35246        42.400    23181275.13044
  94923490.80544      2261.57044        38.100
 04 09 01 21 32  0.0000000  0  8G 8G 1G 3G27G23G16G13G19
  24295541.37145 127673941.37645      2840.70745        39.500    24295543.94141
  99486200.08341      2213.53541        29.100
  23152870.43146 118825301.26546     -3184.96946        42.100    23152873.51942
  92591631.66942     -2481.80142        34.200
  21918978.68247 115185050.43347      1038.38347        45.400    21918979.57944
  89754600.95844       809.12544        38.700
  22458548.36447 118020500.24247      1994.92247        44.600    22458549.19744
  91964053.92744      1554.48044        38.500
  20771595.49748 106311666.55248     -1981.02048        47.700    20771593.35346
  82840741.77046     -1543.65646        42.000
  23104234.94146 121413601.14346     -3095.76646        42.300    23104234.92643
  94608017.90743     -2412.28943        35.200
  20339754.27848 106886136.49348       821.46548        47.700    20339753.81646
  83287931.02646       640.09846        42.700
  23148216.07846 121644732.74846      2887.90246        42.500    23148216.70344
  94788123.27944      2250.30944        37.500
 04 09 01 21 33  0.0000000  0  8G 8G 1G 3G27G23G16G13G19
  24263119.80145 127503565.51545      2838.28945        38.900    24263122.06941
  99353439.77041      2211.65241        30.400
  23189329.09446 119016892.04346     -3201.05146        42.400    23189332.20643
  92740922.99643     -2494.33243        35.100
  21907331.97447 115123849.21047      1001.53947        43.800    21907333.39044
  89706911.71744       780.41844        38.100
  22435802.79047 117900971.98947      1989.71147        44.000    22435803.74245
  91870915.08345      1550.42245        39.300
  20794389.43348 106431449.79948     -2011.66848        47.500    20794387.20446
  82934079.31646     -1567.53546        42.000
  23139645.26746 121599684.77446     -3106.86346        42.100    23139645.56942
  94753018.04842     -2420.93842        33.300
  20330565.73948 106837850.46748       788.24648        47.400    20330565.34046
  83250305.55346       614.21546        42.300
  23115325.27946 121471891.97746      2873.46946        42.200    23115325.87744
  94653442.29644      2239.06344        38.000
 04 09 01 21 34  0.0000000  0  8G 8G 1G 3G27G23G16G13G19
  24230726.56645 127333341.72745      2835.58645        40.000    24230730.22942
  99220798.00442      2209.54342        33.000
  23225969.35746 119209436.98046     -3217.23046        42.400    23225972.42143
  92890957.82043     -2506.93843        36.500
  21896106.22947 115064860.08947       964.37547        44.600    21896108.21745
  89660946.17145       751.45745        38.900
  22413118.99547 117781766.60047      1983.98847        44.300    22413119.83844
  91778027.80744      1545.96144        38.700
  20817532.06248 106553064.50448     -2042.32048        47.700    20817530.18646
  83028843.95446     -1591.42246        42.400
  23175180.90446 121786425.78346     -3117.95346        41.900    23175181.21543
  94898530.44143     -2429.57843        35.500
  20321756.80849 106791559.70149       754.71949        47.800    20321756.69346
  83214234.83246       588.09046        42.900
  23082607.11046 121299956.68946      2857.79746        43.000    23082607.53744
  94519466.87244      2226.85244        38.300
 04 09 01 21 35  0.0000000  0  8G 8G 1G 3G27G23G16G13G19
  24198363.26145 127163270.15345      2833.50445        39.100    24198366.29842
  99088274.81242      2207.92242        33.000
  23262788.52046 119402921.37346     -3232.52346        42.300    23262791.37442
  93041724.66642     -2518.85542        33.400
  21885304.33947 115008093.04247       927.85247        45.200    21885305.68444
  89616712.10744       722.99644        38.500
  22390496.17647 117662883.59347      1978.73447        43.800    22390497.00344
  91685391.75744      1541.86744        38.400
  20841021.16948 106676499.75448     -2072.47348        47.400    20841019.26546
  83125027.21146     -1614.91846        42.600
  23210837.61046 121973803.55546     -3127.80946        41.500    23210838.16742
  95044539.00142     -2437.25842        33.000
  20313329.66249 106747273.57249       721.33249        47.900    20313329.25646
  83179726.15746       562.07446        43.200
  23050065.44647 121128948.33947      2842.37547        43.600    23050065.50544
  94386213.76544      2214.83644        37.300
 04 09 01 21 36  0.0000000  0  8G 8G 1G 3G27G23G16G13G19
  24166029.13745 126993353.57145      2830.64545        39.800    24166032.20541
  98955872.45641      2205.69941        30.600
  23299784.20646 119597333.55146     -3248.01246        42.200    23299787.12843
  93193214.49843     -2530.92643        36.300
  21874927.54947 114953560.91247       890.07047        45.300    21874928.22345
  89574219.57445       693.55945        38.900
  22367935.23247 117544326.16847      1973.04347        43.900    22367936.27644
  91593009.38944      1537.43444        38.800
  20864855.01648 106801748.41248     -2102.69148        47.300    20864853.13146
  83222623.50946     -1638.46546        42.100
  23246612.70945 122161801.59845     -3138.32445        41.000    23246612.71543
  95191030.88943     -2445.44943        35.600
  20305286.18048 106705004.93248       687.49248        47.700    20305285.73647
  83146789.55147       535.70347        43.400
  23017705.09346 120958892.62546      2826.02046        43.300    23017705.03344
  94253702.96744      2202.09044        38.300
 04 09 01 21 37  0.0000000  0  8G 8G 1G 3G27G23G16G13G19
  24133725.29945 126823596.40645      2827.86745        40.700    24133727.97142
  98823594.24042      2203.53142        34.100
  23336954.13146 119792663.19746     -3263.28546        42.500    23336957.27243
  93345419.23443     -2542.82443        36.300
  21864978.12947 114901277.11347       852.46147        45.400    21864978.75944
  89533478.97544       664.25444        38.600
  22345437.20347 117426098.46747      1967.59047        44.000    22345438.46244
  91500883.96944      1533.18444        38.800
  20889032.81048 106928803.50048     -2132.78148        47.400    20889030.92346
  83321627.40846     -1661.91046        41.700
  23282502.70646 122350404.22146     -3148.73446        41.600    23282502.66743
  95337993.89043     -2453.56343        35.600
  20297629.21749 106664767.66849       653.50849        47.900    20297628.93146
  83115435.84446       509.22346        43.100
  22985530.67346 120789814.84546      2809.59446        43.100    22985530.52644
  94121954.21044      2189.28944        37.300
 04 09 01 21 38  0.0000000  0  8G 8G 1G 3G27G23G16G13G19
  24101452.17345 126653999.22445      2825.34845        41.000    24101455.30043
  98691440.75843      2201.56643        34.600
  23374296.20046 119988895.93946     -3278.06346        42.000    23374299.31344
  93498327.64544     -2554.34044        37.100
  21855458.17347 114851251.29147       814.95347        44.400    21855459.32944
  89494497.84544       635.02344        38.700
  22323002.08047 117308201.48147      1962.07447        44.100    22323003.09044
  91409016.23444      1528.88744        38.700
  20913552.46448 107057654.67448     -2162.41848        47.400    20913550.08946
  83422030.85146     -1685.00446        41.400
  23318504.09946 122539592.05146     -3157.98846        41.600    23318504.27943
  95485412.90043     -2460.77343        34.900
  20290360.76249 106626571.21549       619.52049        48.000    20290360.34147
  83085672.36447       482.73847        43.400
  22953546.53947 120621738.19947      2792.73047        43.400    22953546.14344
  93990985.53444      2176.15244        38.700
 04 09 01 21 39  0.0000000  0  8G 8G 1G 3G27G23G16G13G19
  24069210.48846 126484568.16346      2822.51246        42.200    24069212.69742
  98559416.70442      2199.35542        33.900
  23411808.37846 120186022.10846     -3292.73846        42.400    23411811.28143
  93651932.26543     -2565.77343        36.000
  21846371.01047 114803497.87047       777.18047        45.000    21846372.23544
  89457287.41844       605.57444        38.700
  22300630.86847 117190640.54847      1956.81347        44.200    22300632.22045
  91317410.36945      1524.78545        39.800
  20938413.05248 107188296.28848     -2192.12148        47.700    20938410.57845
  83523829.44545     -1708.14845        41.000
  23354613.97946 122729351.04746     -3166.96946        41.600    23354614.32942
  95633276.97242     -2467.77342        34.200
  20283483.34348 106590430.31648       585.30548        47.700    20283482.91046
  83057510.63146       456.07846        43.300
  22921757.79547 120454689.79847      2775.60547        43.400    22921757.94144
  93860818.09444      2162.80544        38.500
 04 09 01 21 40  0.0000000  0  8G 8G 1G 3G27G23G16G13G19
  24037000.03046 126315301.73646      2819.69546        41.900    24037002.55041
  98427520.94541      2197.16041        32.100
  23449486.89346 120384024.56646     -3307.44546        41.700    23449490.04543
  93806219.69543     -2577.23443        34.800
  21837717.63847 114758023.11747       738.67647        44.800    21837718.61244
  89421852.55444       575.59044        38.000
  22278323.55247 117073414.39247      1950.84047        44.300    22278324.84745
  91226065.35545      1520.13345        39.600
  20963611.53649 107320714.84149     -2221.82449        47.800    20963609.20646
  83627012.66646     -1731.29346        41.400
  23390828.53045 122919659.81045     -3176.47345        40.500    23390829.19443
  95781569.41143     -2475.17643        35.100
  20276998.30349 106556351.69649       550.61749        47.800    20276997.94146
  83030955.85546       429.05146        42.900
  22890168.62946 120288689.50246      2757.86746        42.900    22890168.81845
  93731467.36045      2148.98445        39.300
 04 09 01 21 41  0.0000000  0  8G 8G 1G 3G27G23G16G13G19
  24004821.79546 126146205.24546      2816.62146        41.900    24004823.98643
  98295757.62243      2194.76643        35.300
  23487330.42046 120582893.70146     -3321.75846        41.300    23487333.70342
  93961182.44842     -2588.39142        33.300
  21829500.10247 114714840.10547       700.41447        44.700    21829501.15545
  89388203.48245       545.77345        39.300
  22256080.95047 116956528.71947      1945.23047        44.500    22256082.01145
  91134985.67445      1515.76245        40.500
  20989146.90548 107454904.06548     -2251.40248        47.600    20989144.68146
  83731575.64046     -1754.34446        41.900
  23427145.27046 123110504.71146     -3185.25446        41.400    23427145.52841
  95930279.66441     -2482.02041        31.300
  20270908.59949 106524349.35749       515.93449        48.000    20270908.12346
  83006018.96646       402.02346        42.900
  22858784.25546 120123764.60546      2739.40646        42.900    22858784.47544
  93602954.58444      2134.59844        38.100
 04 09 01 21 42  0.0000000  0  8G 8G 1G 3G27G23G16G13G19
  23972675.92746 125977277.35546      2813.93846        41.300    23972677.97941
  98164125.66941      2192.68041        27.400
  23525335.79946 120782612.80946     -3335.87946        41.900    23525339.00043
  94116807.50843     -2599.39143        34.900
  21821720.06747 114673954.94247       662.27047        45.000    21821721.12344
  89356344.93844       516.05144        38.500
  22233903.12947 116839982.28547      1939.59447        44.800    22233903.94945
  91044170.30845      1511.36745        39.700
  21015016.61648 107590850.14748     -2280.40248        47.600    21015014.28245
  83837507.57945     -1776.94145        40.700
  23463560.08546 123301864.35946     -3193.66846        41.500    23463560.50742
  96079391.00042     -2488.57442        34.200
  20265215.20549 106494429.85049       481.15249        48.000    20265214.56146
  82982705.05346       374.92246        42.700
  22827608.39146 119959934.70146      2721.21146        42.700    22827608.53945
  93475295.05645      2120.42245        39.000
 04 09 01 21 43  0.0000000  0  8G 8G 1G 3G27G23G16G13G19
  23940563.09146 125808524.60746      2811.08646        41.300    23940565.46441
  98032630.15841      2190.45341        32.200
  23563501.26446 120983171.92346     -3349.85246        42.100    23563504.08043
  94273087.13443     -2610.28143        35.400
  21814379.17947 114635380.06847       623.45747        44.800    21814380.41944
  89326286.60944       485.80944        38.800
  22211790.81647 116723781.49447      1933.59447        44.800    22211791.70345
  90953624.29145      1506.69145        40.100
  21041219.44248 107728546.71248     -2309.65248        47.500    21041217.08246
  83944803.53546     -1799.73046        41.600
  23500070.03446 123493725.82246     -3201.96546        41.500    23500070.36543
  96228893.31043     -2495.03943        34.600
  20259920.66949 106466606.96649       446.04349        47.900    20259920.03846
  82961024.87546       347.56346        43.200
  22796646.29247 119797227.42247      2702.05147        43.600    22796646.15244
  93348510.28044      2105.49244        38.600
 04 09 01 21 44  0.0000000  0  8G 8G 1G 3G27G23G16G13G19
  23908484.11545 125639949.33445      2807.93445        40.900    23908486.52842
  97901272.95542      2187.99642        34.000
  23601823.74546 121184556.50046     -3363.25846        42.300    23601826.43244
  94430009.97344     -2620.72744        36.800
  21807479.75747 114599123.88147       584.92247        44.900    21807481.00444
  89298035.05044       455.78144        38.600
  22189744.39347 116607928.28047      1927.84447        44.800    22189745.26245
  90863349.08745      1502.21145        41.000
  21067753.04048 107867982.52748     -2338.23448        47.000    21067750.89546
  84053454.76746     -1822.00446        41.500
  23536672.02745 123686071.01145     -3209.66445        41.100    23536672.12142
  96378772.60442     -2501.03942        34.000
  20255026.85049 106440889.96949       411.14849        47.800    20255026.27646
  82940985.64946       320.37146        43.300
  22765902.33047 119635665.46247      2683.05547        44.000    22765901.97444
  93222617.96944      2090.68844        38.700
 04 09 01 21 45  0.0000000  0  8G 8G 1G 3G27G23G16G13G19
  23876439.20245 125471553.62645      2804.95745        40.200    23876441.88843
  97770055.64643      2185.68043        35.100
  23640300.85346 121386753.38646     -3376.87146        42.600    23640303.86243
  94587565.75743     -2631.33643        36.400
  21801023.50847 114565194.74647       545.91047        44.800    21801024.54144
  89271596.78444       425.37544        37.200
  22167764.98447 116492425.78347      1922.03147        45.100    22167765.85445
  90773347.17345      1497.68445        40.300
  21094615.78748 108009146.94648     -2367.22748        47.200    21094613.56145
  84163452.95245     -1844.59445        40.900
  23573363.10245 123878883.30845     -3217.65645        41.100    23573363.17942
  96529015.86042     -2507.27042        33.900
  20250535.45549 106417287.75949       375.62549        47.900    20250535.03946
  82922594.32146       292.69146        43.200
  22735380.52647 119475272.56347      2663.09847        43.900    22735379.94745
  93097636.63845      2075.13745        38.900
 04 09 01 21 46  0.0000000  0  8G 8G 1G 3G27G23G16G13G19
  23844429.73345 125303342.84145      2801.98845        40.400    23844432.55041
  97638982.42541      2183.36341        31.100
  23678930.06046 121589751.19246     -3389.65646        42.400    23678933.38943
  94745745.64543     -2641.29343        35.100
  21795011.98947 114533602.70647       507.12947        45.400    21795012.82345
  89246979.62545       395.16445        39.000
  22145853.26947 116377279.33647      1916.38747        44.600    22145854.26945
  90683622.70345      1493.29345        40.200
  21121806.17148 108152031.75548     -2395.48448        47.400    21121803.66045
  84274791.68445     -1866.61345        40.700
  23610140.07746 124072148.66746     -3224.70746        41.400    23610140.45742
  96679612.12642     -2512.76642        32.800
  20246448.97249 106395812.92449       340.30949        48.000    20246448.53746
  82905860.67246       265.17246        43.300
  22705085.87347 119316074.35247      2643.34847        43.700    22705085.33244
  92973586.18544      2059.75044        37.600
 04 09 01 21 47  0.0000000  0  8G 8G 1G 3G27G23G16G13G19
  23812455.04345 125135314.56145      2798.66045        39.600    23812457.41943
  97508051.43343      2180.77343        34.900
  23717708.22646 121793531.46246     -3402.80946        42.000    23717711.88044
  94904535.22344     -2651.54744        36.900
  21789445.20347 114504350.50947       468.03947        44.700    21789446.52144
  89224185.71844       364.70344        38.700
  22124008.85147 116262486.97247      1910.16447        44.600    22124009.90545
  90594174.14045      1488.43845        40.100
  21149320.64348 108296621.06048     -2423.95348        47.300    21149318.18445
  84387458.60045     -1888.79745        40.600
  23646999.69646 124265845.40646     -3231.86346        42.200    23646999.75343
  96830544.54843     -2518.34043        34.600
  20242767.85449 106376468.88049       304.55949        47.800    20242767.30446
  82890787.38446       237.31646        43.200
  22675022.18747 119158089.34347      2622.59847        43.600    22675021.97244
  92850481.05044      2043.57844        38.500
 04 09 01 21 48  0.0000000  0  8G 8G 1G 3G27G23G16G13G19
  23780516.33645 124967476.39845      2795.83645        39.900    23780518.51644
  97377268.53544      2178.57044        36.700
  23756633.62446 121998084.35446     -3415.68046        42.200    23756637.32543
  95063926.83943     -2661.57443        36.100
  21784325.94647 114477449.79047       428.95347        45.300    21784327.38344
  89203224.14444       334.25444        38.800
  22102233.44947 116148055.90947      1904.39547        44.800    22102234.52345
  90505007.12045      1483.94145        40.500
  21177157.96148 108442907.42748     -2452.01248        47.100    21177155.88245
  84501447.91345     -1910.66045        41.000
  23683938.77446 124459961.38346     -3238.53146        41.700    23683938.76243
  96981803.64343     -2523.53943        34.900
  20239494.72248 106359268.59848       268.98848        47.700    20239494.34446
  82877384.55946       209.59846        42.900
  22645194.43847 119001344.78247      2601.96147        43.500    22645194.51044
  92728342.51944      2027.50044        38.800
 04 09 01 21 49  0.0000000  0  8G 8G 1G 3G27G23G16G13G19
  23748613.94445 124799828.72845      2792.70745        40.500    23748616.36943
  97246634.09143      2176.13343        35.100
  23795703.02446 122203393.95246     -3428.07446        42.400    23795706.67744
  95223908.10844     -2671.23444        36.700
  21779655.42247 114452905.17047       389.45347        45.100    21779656.43044
  89184098.46244       303.46544        38.500
  22080527.01847 116033987.46847      1898.15647        45.100    22080528.04345
  90416122.65245      1479.02345        40.800
  21205315.71548 108590877.15048     -2480.12948        47.200    21205313.63645
  84616748.94245     -1932.57045        40.300
  23720954.31446 124654478.03046     -3245.19146        42.100    23720954.26842
  97133374.95442     -2528.72342        33.400
  20236630.66848 106344217.76648       232.84848        47.700    20236630.52647
  82865656.63647       181.43847        43.900
  22615607.28447 118845861.83047      2580.66447        44.000    22615606.70145
  92607187.05045      2010.90245        39.800
 04 09 01 21 50  0.0000000  0  8G 8G 1G 3G27G23G16G13G19
  23716749.01045 124632377.28745      2789.07045        40.800    23716751.61942
  97116152.59142      2173.30142        33.500
  23834914.23346 122409449.11846     -3440.51646        42.600    23834917.91243
  95384470.31043     -2680.93043        36.400
  21775434.94447 114430726.02947       349.85547        45.300    21775435.92944
  89166816.04644       272.61344        38.400
  22058890.54447 115920288.17047      1891.89147        45.200    22058891.60945
  90327525.83245      1474.19945        40.800
  21233792.16448 108740521.78448     -2507.95748        47.000    21233790.10045
  84733355.08745     -1954.25445        39.900
  23758043.39746 124849382.44746     -3251.63746        41.700    23758043.76742
  97285248.41842     -2533.74642        32.500
  20234178.06948 106331328.68648       196.66048        47.600    20234177.79847
  82855613.19447       153.23847        43.600
  22586265.06247 118691666.83547      2558.93047        43.900    22586264.23144
  92487035.19444      1993.96944        38.600
 04 09 01 21 51  0.0000000  0  8G 8G 1G 3G27G23G16G13G19
  23684921.61246 124465123.24846      2785.65646        41.800    23684923.77542
  96985824.87442      2170.63742        34.200
  23874264.33346 122616233.30846     -3452.76646        42.700    23874267.82544
  95545600.59644     -2690.46944        37.600
  21771665.06347 114410915.58847       310.16047        44.900    21771666.11944
  89151379.35144       241.64144        38.100
  22037324.72047 115806958.86847      1885.36347        45.000    22037325.94846
  90239217.32546      1469.10946        41.500
  21262584.68748 108891826.50948     -2535.73448        47.200    21262582.47745
  84851254.79345     -1975.89845        40.600
  23795202.95545 125044655.94645     -3257.70745        41.000    23795203.23543
  97437409.47743     -2538.47743        35.100
  20232137.62349 106320605.88149       160.28149        47.800    20232137.16546
  82847257.76046       124.89146        43.200
  22557171.17647 118538779.88447      2536.66047        43.500    22557170.78645
  92367902.59545      1976.61345        39.000
 04 09 01 21 52  0.0000000  0  8G 8G 1G 3G27G23G16G13G19
  23653132.34346 124298070.77846      2782.41846        41.200    23653134.47543
  96855654.25443      2168.11743        34.900
  23913750.64446 122823733.67346     -3464.26246        42.300    23913753.95842
  95707288.92542     -2699.43042        33.900
  21768347.23247 114393480.77747       270.53147        45.300    21768348.46545
  89137793.81145       210.80145        39.100
  22015830.22047 115694004.49747      1879.43047        45.000    22015831.45346
  90151200.96246      1464.48846        41.300
  21291691.08448 109044781.25648     -2563.02748        47.200    21291688.81345
  84970440.23945     -1997.16845        40.500
  23832429.98246 125240283.80046     -3263.12146        41.600    23832430.17442
  97589846.64442     -2542.69942        34.100
  20230511.07648 106312058.63748       124.17648        47.700    20230510.52446
  82840597.55246        96.75846        43.200
  22528331.16747 118387225.32947      2514.57847        43.400    22528330.90045
  92249808.22245      1959.41045        39.100
 04 09 01 21 53  0.0000000  0  8G 8G 1G 3G27G23G16G13G19
  23621382.25845 124131224.51945      2778.99645        41.000    23621384.60542
  96725644.32542      2165.44942        32.500
  23953370.69646 123031936.94146     -3475.48446        42.400    23953374.08843
  95869524.96043     -2708.17243        36.400
  21765482.70547 114378427.44247       231.14147        45.000    21765483.86344
  89126063.94344       180.10544        37.900
  21994407.81848 115581429.73848      1873.13348        45.600    21994408.94845
  90063480.41245      1459.54345        40.300
  21321109.16548 109199374.33948     -2589.98448        46.800    21321106.97245
  85090902.30745     -2018.17245        40.100
  23869721.47845 125436251.68145     -3268.88345        41.000    23869721.34942
  97742548.77242     -2547.18842        32.800
  20229300.10548 106305695.09048        87.93848        47.500    20229299.58346
  82835638.93446        68.52046        43.000
  22499749.20947 118237026.80647      2491.96547        44.000    22499748.91144
  92132770.51444      1941.78944        38.600
 04 09 01 21 54  0.0000000  0  8G 8G 1G 3G27G23G16G13G19
  23589672.12246 123964586.58446      2775.21546        41.800    23589674.28041
  96595796.72541      2162.50041        31.400
  23993121.49746 123240828.34646     -3487.40646        42.100    23993125.11644
  96032297.19844     -2717.46544        36.900
  21763072.16847 114365760.24147       191.20347        45.400    21763073.42745
  89116193.42045       148.98445        38.900
  21973058.42247 115469237.73147      1866.63747        45.500    21973059.40645
  89976058.11645      1454.52045        40.700
  21350836.35348 109355592.29548     -2617.14548        46.600    21350834.32545
  85212630.51445     -2039.33645        41.000
  23907074.56845 125632543.10845     -3274.14845        40.800    23907074.65841
  97895503.03841     -2551.28941        32.100
  20228505.97448 106301521.62648        51.14848        47.600    20228505.47647
  82832386.88347        39.85247        43.800
  22471429.86847 118088206.51947      2468.58647        44.100    22471429.18845
  92016806.74545      1923.57045        39.200
 04 09 01 21 55  0.0000000  0  8G 8G 1G 3G27G23G16G13G19
  23558003.35546 123798165.65346      2772.49246        41.200    23558005.19642
  96466118.19642      2160.37942        32.800
  24033001.35746 123450398.05946     -3497.69546        41.900    24033005.00543
  96195598.01343     -2725.48443        35.900
  21761117.58948 114355487.93748       151.94148        45.600    21761118.72345
  89108189.04545       118.43845        39.000
  21951783.52047 115357437.35747      1860.71947        45.300    21951784.45945
  89888940.96945      1449.90645        41.100
  21380871.33048 109513427.32048     -2643.28948        46.400    21380869.51245
  85335618.76445     -2059.70745        40.400
  23944487.06145 125829147.92645     -3279.01245        40.000    23944487.30041
  98048701.48541     -2555.07841        32.100
  20228130.74649 106299549.52749        15.14149        47.800    20228130.21947
  82830850.18147        11.79347        43.600
  22443377.65847 117940791.54547      2445.60547        43.600    22443377.11445
  91901938.06145      1905.66445        39.300
 04 09 01 21 56  0.0000000  0  8G 8G 1G 3G27G23G16G13G19
  23526373.23845 123631949.34145      2768.54745        41.000    23526375.33542
  96336599.11742      2157.30942        33.300
  24073004.59146 123660616.36646     -3509.13746        41.600    24073008.56243
  96359404.20343     -2734.39843        34.700
  21759616.44547 114347599.21747       111.37547        45.400    21759617.50544
  89102042.00544        86.78144        38.700
  21930580.91348 115246017.29748      1853.68448        45.700    21930582.05145
  89802120.18945      1444.42645        40.000
  21411208.79948 109672851.30248     -2670.35548        46.600    21411207.05245
  85459845.14645     -2080.80145        40.300
  23981953.43345 126026035.04045     -3284.14845        40.300    23981953.86441
  98202119.90341     -2559.08241        30.900
  20228172.68749 106299770.01549       -22.07849        47.900    20228172.31546
  82831021.98746       -17.20746        43.200
  22415594.20447 117794789.21047      2421.33247        43.600    22415593.74245
  91788170.12045      1886.75045        39.800
 04 09 01 21 57  0.0000000  0  8G 8G 1G 3G27G23G16G13G19
  23494786.02745 123465958.17645      2764.73445        40.800    23494788.00442
  96207255.45842      2154.33642        32.400
  24113131.69446 123871485.07046     -3519.72746        41.500    24113135.70143
  96523717.16843     -2742.65243        34.600
  21758572.48347 114342113.83147        71.51647        45.300    21758573.56344
  89097767.67344        55.72344        38.800
  21909454.71548 115134998.01348      1847.16048        45.700    21909455.48245
  89715611.69145      1439.34445        40.800
  21441849.36348 109833867.13548     -2696.59048        46.600    21441847.44045
  85585311.93545     -2101.24245        39.700
  24019473.88946 126223205.85746     -3288.39546        41.800    24019474.69141
  98355759.39641     -2562.39141        28.700
  20228636.11349 106302205.41749       -58.90649        47.900    20228635.60146
  82832919.69146       -45.90246        43.200
  22388086.83847 117650237.56947      2397.17647        44.100    22388086.24845
  91675532.57845      1867.92645        40.100
 04 09 01 21 58  0.0000000  0  8G 8G 1G 3G27G23G16G13G19
  23463241.13345 123300188.92345      2761.21145        40.800    23463243.25742
  96078084.73342      2151.59042        33.000
  24153378.62945 124082982.80945     -3529.64145        41.100    24153382.45742
  96688520.31742     -2750.37542        33.800
  21757985.21847 114339028.28847        31.66447        44.900    21757986.52845
  89095363.38045        24.67245        39.200
  21888404.31748 115024377.34148      1840.48848        45.800    21888405.14246
  89629413.78746      1434.14546        41.600
  21472788.81548 109996455.37448     -2722.64848        46.600    21472787.19445
  85712003.97045     -2121.54745        41.100
  24057044.24545 126420638.72245     -3292.43045        39.600    24057045.59342
  98509603.07342     -2565.53142        32.700
  20229520.78948 106306854.68148       -95.75848        47.700    20229520.31846
  82836542.48246       -74.62146        43.100
  22360858.45547 117507152.41447      2372.68847        44.100    22360858.21645
  91564037.75345      1848.84445        40.100
 04 09 01 21 59  0.0000000  0  8G 8G 1G 3G27G23G16G13G19
  23431739.15345 123134647.41345      2757.13745        40.300    23431741.75943
  95949091.46443      2148.41443        35.100
  24193742.77345 124295097.54545     -3540.30945        39.900    24193746.95243
  96853804.22343     -2758.68843        35.400
  21757855.65647 114338347.76847        -8.69547        45.000    21757856.93344
  89094833.10544        -6.77744        38.300
  21867430.94448 114914161.89848      1833.58648        45.800    21867431.87445
  89543531.65845      1428.76645        40.900
  21504025.53848 110160604.99748     -2748.73448        46.400    21504023.82145
  85839912.68545     -2141.87545        40.400
  24094662.10745 126618321.49245     -3296.54345        40.600    24094662.73741
  98663641.47341     -2568.74241        31.900
  20230828.33449 106313726.01449      -133.06349        47.800    20230827.91447
  82841896.75247      -103.68847        43.700
  22333913.95947 117365558.28347      2347.43847        44.300    22333913.75345
  91453704.75545      1829.16845        40.900
 04 09 01 22 00  0.0000000  0  8G 8G 1G 3G27G23G16G13G19
  23400281.73646 122969336.37846      2753.26246        41.500    23400283.78043
  95820277.77643      2145.39543        34.600
  24234221.00045 124507812.94145     -3550.20345        38.900    24234225.98442
  97019556.19142     -2766.39542        33.500
  21758183.99847 114340072.64847       -48.85947        44.900    21758185.20844
  89096177.18444       -38.07444        38.500
  21846535.24848 114804354.65348      1826.77048        45.900    21846536.37645
  89457967.60945      1423.45345        41.100
  21535556.36548 110326300.49748     -2774.55548        46.500    21535554.41545
  85969026.00945     -2161.99245        40.400
  24132324.46545 126816237.77845     -3300.60245        39.500    24132324.73842
  98817861.85942     -2571.90242        33.000
  20232559.53748 106322822.86148      -170.25448        47.700    20232559.09947
  82848985.18847      -132.66847        43.600
  22307257.08847 117225475.00647      2321.78947        44.500    22307256.47745
  91344549.06145      1809.18445        40.500
 04 09 01 22 01  0.0000000  0  8G 8G 1G 3G27G23G16G13G19
  23368868.53746 122804259.07946      2749.09846        41.300    23368870.86842
  95691646.20942      2142.15242        34.100
  24274810.90945 124721113.25745     -3560.22345        38.900    24274815.92141
  97185763.88941     -2774.20741        31.700
  21758970.25647 114344204.59947       -89.00447        45.300    21758971.31645
  89099396.90045       -69.35545        38.900
  21825717.91748 114694959.48948      1819.70348        45.900    21825718.97145
  89372724.66145      1417.94945        40.600
  21567378.63848 110493527.46048     -2800.07448        46.500    21567376.78845
  86099332.69345     -2181.87945        40.100
  24170028.24445 127014372.04545     -3304.21545        39.400    24170028.17341
  98972252.09441     -2574.71541        28.000
  20234714.88049 106334149.18049      -207.56349        47.800    20234714.46546
  82857810.87846      -161.73846        43.300
  22280891.61647 117086923.72347      2296.19947        44.600    22280890.85245
  91236587.12745      1789.24245        39.200
 04 09 01 22 02  0.0000000  0  8G 8G 1G 3G27G23G16G13G19
  23337501.02446 122639421.74246      2745.34846        43.000    23337503.06642
  95563201.63442      2139.23042        34.000
  24315509.75245 124934985.62945     -3569.30545        39.400    24315514.71543
  97352417.36143     -2781.28543        35.500
  21760215.29748 114350746.78648      -129.02048        45.700    21760216.26744
  89104494.73144      -100.53944        37.300
  21804980.42048 114585983.22848      1812.78548        46.100    21804981.57845
  89287808.14145      1412.55945        40.600
  21599490.10248 110662273.52848     -2824.81348        46.600    21599488.16045
  86230823.05245     -2201.15645        40.100
  24207771.03845 127212712.12245     -3307.01645        39.900    24207771.13641
  99126802.71541     -2576.89841        27.600
  20237295.48848 106347710.97948      -244.56348        47.600    20237295.12646
  82868378.49646      -190.57046        43.200
  22254821.85447 116949927.95547      2270.39147        44.300    22254821.41345
  91129837.27445      1769.13345        40.300
 04 09 01 22 03  0.0000000  0  8G 8G 1G 3G27G23G16G13G19
  23306179.42346 122474824.81646      2741.30546        42.700    23306180.75742
  95434944.35942      2136.07842        32.400
  24356314.30845 125149411.31345     -3578.20345        39.300    24356318.27242
  97519501.98142     -2788.22342        34.200
  21761918.42048 114359696.28748      -169.16448        45.700    21761919.53544
  89111468.38144      -131.82044        38.700
  21784322.83448 114477426.57248      1805.79348        46.100    21784323.97746
  89203218.57346      1407.10946        41.600
  21631887.06848 110832520.66048     -2849.87948        46.200    21631885.21445
  86363483.07745     -2220.68845        40.400
  24245549.91044 127411239.48344     -3310.12144        38.500    24245549.70341
  99281499.23241     -2579.31641        32.100
  20240301.81048 106363509.17148      -281.79748        47.600    20240301.35646
  82880688.76846      -219.58646        43.200
  22229051.68647 116814504.98047      2244.07847        44.700    22229051.23145
  91024312.95745      1748.62945        40.300
 04 09 01 22 04  0.0000000  0  8G 8G 1G 3G27G23G16G13G19
  23274904.78547 122310475.79047      2737.33247        43.400    23274906.03742
  95306880.30142      2132.98442        33.900
  24397222.14445 125364379.55645     -3586.85245        39.400    24397225.70241
  97687009.38141     -2794.96141        28.200
  21764080.36248 114371057.49848      -209.39548        45.600    21764081.33344
  89120321.29544      -163.16844        38.200
  21763746.91948 114369299.19148      1799.01648        46.200    21763747.91545
  89118963.50545      1401.82845        40.900
  21664567.84048 111004259.08048     -2874.29748        46.100    21664566.10145
  86497305.13845     -2239.71545        40.800
  24283362.24845 127609944.86345     -3313.10545        38.900    24283361.97541
  99436334.48341     -2581.64841        26.200
  20243735.11649 106381551.27749      -319.14849        47.800    20243734.67646
  82894747.53846      -248.69146        43.200
  22203585.62847 116680680.47147      2217.28547        44.600    22203585.05745
  90920034.20845      1727.75045        40.300
 04 09 01 22 05  0.0000000  0  8G 8G 1G 3G27G23G16G13G19
  23243677.87146 122146378.46946      2732.94146        43.200    23243678.96243
  95179012.34043      2129.56343        35.300
  24438230.35245 125579874.55645     -3595.81345        39.200    24438233.81041
  97854927.23041     -2801.93841        31.700
  21766701.09947 114384830.39047      -249.41447        45.100    21766702.24044
  89131053.43244      -194.35244        38.400
  21743253.31048 114261604.90848      1791.42648        46.100    21743254.20246
  89035045.90246      1395.87146        41.500
  21697529.33648 111177473.16348     -2898.93048        46.300    21697527.99945
  86632277.06145     -2258.91045        40.000
  24321205.77544 127808813.40344     -3315.34044        38.500    24321204.97041
  99591296.92041     -2583.38741        31.200
  20247596.07849 106401840.40849      -356.69149        47.900    20247595.54946
  82910557.22846      -277.94546        43.000
  22178427.63247 116548474.35347      2189.92647        44.300    22178427.05145
  90817016.53545      1706.43445        40.300
 04 09 01 22 06  0.0000000  0  8G 8G 1G 3G27G23G16G13G19
  23212499.87047 121982538.25847      2728.63347        43.600    23212501.57743
  95051344.73743      2126.20343        35.400
  24479335.42545 125795881.65545     -3603.87145        39.000    24479339.09441
  98023244.16241     -2808.21541        29.100
  21769780.89047 114401015.49747      -289.74647        45.000    21769782.15444
  89143665.20944      -225.78144        38.500
  21722843.38148 114154349.79648      1783.88348        46.300    21722844.31146
  88951470.51246      1390.03546        41.600
  21730769.24348 111352148.99148     -2923.36748        46.300    21730767.89145
  86768387.99945     -2277.95345        40.600
  24359078.02144 128007832.00244     -3318.10944        38.400    24359077.80842
  99746376.22942     -2585.54742        33.800
  20251885.38949 106424380.04949      -394.34049        47.900    20251884.77647
  82928120.56847      -307.28147        43.400
  22153581.60747 116417907.92547      2162.27347        44.800    22153580.84845
  90715276.53745      1684.88745        39.200
 04 09 01 22 07  0.0000000  0  8G 8G 1G 3G27G23G16G13G19
  23181371.24046 121818957.11446      2724.12146        43.200    23181373.22243
  94923879.00343      2122.68843        34.500
  24520534.65844 126012383.10944     -3612.26244        38.500    24520538.89641
  98191946.22941     -2814.75841        30.400
  21773319.16747 114419609.17447      -329.96947        45.000    21773320.31545
  89158153.79945      -257.12145        39.300
  21702517.72448 114047536.76048      1776.27748        46.300    21702518.55746
  88868239.59646      1384.10946        41.600
  21764284.12048 111528269.36448     -2947.34848        46.400    21764282.47645
  86905624.54545     -2296.63745        39.900
  24396975.95244 128206984.57444     -3320.25444        38.400    24396975.47641
  99901559.94741     -2587.21941        25.700
  20256602.86649 106449171.24949      -432.03549        47.900    20256602.47446
  82947438.37246      -336.65246        43.300
  22129051.11747 116288999.86947      2134.51247        44.800    22129050.38045
  90614828.77045      1663.25445        40.800
 04 09 01 22 08  0.0000000  0  8G 8G 1G 3G27G23G16G13G19
  23150293.41046 121655640.81146      2719.37146        43.100    23150294.89643
  94796619.62943      2118.99243        35.900
  24561825.08344 126229365.40844     -3620.64144        38.700    24561829.05842
  98361023.01542     -2821.28942        33.400
  21777315.71247 114440611.79547      -370.30947        45.000    21777316.83344
  89174519.48844      -288.55544        38.800
  21682277.17148 113941172.88448      1768.60548        46.400    21682278.07146
  88785358.69246      1378.16846        41.600
  21798071.23148 111705820.83748     -2971.41448        45.900    21798069.33645
  87043976.23245     -2315.39145        39.700
  24434896.59944 128406259.22744     -3322.39844        36.900    24434896.01541
 100056838.79641     -2588.88741        15.300
  20261749.48648 106476217.46448      -469.78548        47.700    20261749.14746
  82968513.32546      -366.07046        43.100
  22104840.50247 116161771.82247      2105.94547        45.300    22104839.57745
  90515690.07845      1640.99245        40.200
 04 09 01 22 09  0.0000000  0  8G 8G 1G 3G27G23G16G13G19
  23119267.63646 121492598.98846      2715.21546        42.800    23119269.22243
  94669574.13343      2115.75043        35.600
  24603205.01044 126446818.03344     -3627.85944        38.600    24603209.29841
  98530466.28841     -2826.91441        32.000
  21781771.51447 114464026.82747      -410.24247        45.000    21781772.35644
  89192764.97044      -319.67244        38.500
  21662124.11548 113835268.22848      1761.29348        46.400    21662124.87746
  88702835.61946      1372.46946        41.500
  21832128.12947 111884792.81747     -2994.61747        45.000    21832126.64845
  87183434.80545     -2333.47345        40.200
  24472838.22743 128605647.13243     -3323.86743        36.600    24472838.36641
 100212205.91341     -2590.03141        26.000
  20267326.74149 106505525.20949      -507.30149        48.100    20267326.34046
  82991350.50746      -395.30146        43.100
  22080954.48647 116036248.84247      2077.65247        45.000    22080953.35745
  90417880.03445      1618.94545        40.900
 04 09 01 22 10  0.0000000  0  8G 8G 1G 3G27G23G16G13G19
  23088294.18846 121329833.15746      2710.69946        42.700    23088295.77344
  94542743.68944      2112.23044        37.100
  24644670.90945 126664722.13045     -3635.10545        39.000    24644673.84841
  98700261.33241     -2832.55541        26.300
  21786685.52447 114489849.44247      -450.15247        45.300    21786686.27444
  89212886.50144      -350.77044        38.800
  21642058.85748 113729825.00848      1753.72748        46.600    21642059.74546
  88620672.12046      1366.53546        41.900
  21866451.87747 112065166.40047     -3017.45747        45.000    21866450.58145
  87323985.54545     -2351.27045        39.800
  24510798.04242 128805131.79042     -3324.85242        32.400

  20273333.97349 106537093.39649      -544.71949        47.900    20273333.52247
  83015949.07447      -424.46147        43.400
  22057395.65947 115912447.27447      2049.15247        45.300    22057394.67645
  90321411.36245      1596.73845        40.500
 04 09 01 22 11  0.0000000  0  8G 8G 1G 3G27G23G16G13G19
  23057373.04946 121167343.54646      2705.94546        42.300    23057374.85144
  94416128.49544      2108.52744        36.800
  24686219.17944 126883058.41644     -3642.63344        38.300    24686222.16842
  98870393.12942     -2838.42242        32.300
  21792056.31947 114518072.59247      -490.48047        45.300    21792057.13645
  89234878.58545      -382.19545        39.500
  21622081.91048 113624844.66648      1745.69548        46.800    21622082.58645
  88538869.29245      1360.27745        41.100
  21901038.82447 112246922.07247     -3040.75847        44.800    21901037.46045
  87465613.21845     -2369.42645        39.200
  24548773.18243 129004696.15143     -3326.69543        35.100    24548776.18441
 100523123.93551     -2592.24641        17.100
  20279770.65349 106570918.86949      -582.59849        48.000    20279770.16746
  83042306.56946      -453.97746        43.200
  22034167.32647 115790382.58047      2019.89847        45.100    22034166.35445
  90226296.09245      1573.94545        40.500
 04 09 01 22 12  0.0000000  0  8G 8G 1G 3G27G23G16G13G19
  23026503.62546 121005123.02646      2696.21946        42.500    23026505.12443
  94289722.97043      2100.94543        35.100
  24727844.31044 127101799.13244     -3653.98844        37.600    24727847.97441
  99040840.06941     -2847.27041        14.200
  21797880.85647 114548681.35147      -535.09847        45.500    21797881.92645
  89258729.55945      -416.96145        39.600
  21602191.67548 113520321.13548      1732.75848        46.800    21602192.35046
  88457422.42746      1350.24246        41.600
  21935883.70347 112430031.82447     -3068.34047        45.000    21935882.10845
  87608296.04045     -2390.91845        39.300
  24586759.46342 129204314.91442     -3332.52042        33.300    24586760.62841
 100678646.93751     -2596.77341        31.700
  20286634.89749 106606990.32449      -625.12149        48.100    20286634.39446
  83070414.17146      -487.10946        43.200
  22011271.12547 115670062.03647      1985.38347        45.300    22011269.93845
  90132539.90845      1547.04745        40.500
 04 09 01 22 13  0.0000000  0  8G 8G 1G 3G27G23G16G13G19
  22995693.10746 120843212.15046      2696.30946        42.600    22995694.62344
  94163558.73044      2101.01644        37.100
  24769550.09743 127320963.81043     -3655.83643        36.600    24769552.72141
  99211617.31441     -2848.71941        15.900
  21804165.62347 114581708.04747      -570.30947        44.900    21804166.76744
  89284464.65144      -444.39844        38.200
  21582396.23848 113416295.39548      1730.02048        46.400    21582396.72445
  88376363.44045      1348.07845        41.000
  21970989.97847 112614515.07747     -3085.52347        45.100    21970988.56344
  87752049.10744     -2404.30944        38.800
  24624762.29143 129403993.36953     -3328.23843        35.000    24624764.06341
 100834285.66051     -2593.43841        31.300
  20293933.31349 106645344.19949      -657.82449        47.900    20293933.08547
  83100300.27647      -512.59447        43.700
  21988717.23247 115551540.38547      1960.70747        45.500    21988715.70445
  90040185.46345      1527.82045        41.000
 04 09 01 22 14  0.0000000  0  8G 8G 1G 3G27G23G16G13G19
  22964936.46446 120681586.85046      2691.30146        43.000    22964937.91943
  94037617.04143      2097.11343        36.600
  24811327.84343 127540508.33343     -3662.18043        34.800

  21810904.11647 114617119.69847      -610.30947        45.200    21810905.24344
  89312058.14944      -475.56644        38.300
  21562691.03148 113312744.50348      1721.80548        46.800    21562691.60645
  88295674.47245      1341.64545        40.500
  22006349.08047 112800327.13247     -3107.91047        44.800    22006347.58945
  87896837.61745     -2421.75045        39.400
  24662771.05843 129603724.16543     -3329.10243        34.600    24662773.00441
 100989919.95441     -2594.10941        17.600
  20301660.73049 106685951.59949      -695.80949        47.800    20301660.50247
  83131942.39147      -542.19147        43.400
  21966503.61747 115434807.89347      1930.42647        45.400    21966502.37745
  89949225.16245      1504.22745        40.400
 04 09 01 22 15  0.0000000  0  8G 8G 1G 3G27G23G16G13G19
  22934237.12946 120520260.40346      2686.66046        43.300    22934238.66843
  93911908.20843      2093.50043        36.300
  24853177.28042 130604318.12552     -3667.91042        34.200    24853187.37943
 101769602.94853     -2858.11343        35.800
  21818097.22847 114654920.18047      -649.62147        45.000    21818098.43044
  89341513.06144      -506.20344        38.600
  21543078.86148 113209682.74248      1713.90648        46.300    21543079.61145
  88215366.63545      1335.50845        41.000
  22041959.26047 112987459.47647     -3129.57447        44.700    22041957.69244
  88042654.90944     -2438.63344        38.700
  24700785.16443 129803485.67943     -3329.36343        35.600    24700786.19241
 101145578.24641     -2594.29741        16.600
  20309818.44549 106728820.36049      -732.99249        47.800    20309818.03946
  83165346.59646      -571.16446        43.000
  21944635.34747 115319890.74747      1900.27347        45.300    21944634.33145
  89859679.40145      1480.73045        40.000
 04 09 01 22 16  0.0000000  0  8G 8G 1G 3G27G23G16G13G19
  22903595.79647 120359239.35147      2681.41447        43.900    22903597.38643
  93786437.34543      2089.41043        35.500
  24895094.31642 130824592.89842     -3673.43442        33.600    24895094.82141
 101941262.23451     -2862.41841        32.200
  21825744.56247 114695106.47147      -688.96947        45.000    21825745.52844
  89372827.05644      -536.86344        38.600
  21523561.18848 113107117.76348      1705.68048        46.700    21523562.15346
  88135445.90346      1329.09846        41.300
  22077817.85247 113175897.29147     -3150.80547        44.400    22077816.02444
  88189489.46344     -2455.17644        38.800
  24738802.35843 130003267.16743     -3328.98443        35.300    24738799.95542
 101301257.03352     -2594.01642        33.200
  20318406.53348 106773951.51548      -770.65648        47.700    20318406.26846
  83200513.70946      -600.51646        43.300
  21923116.55247 115206809.33547      1869.66847        45.500    21923115.64946
  89771564.09046      1456.88346        41.300
 04 09 01 22 17  0.0000000  0  7G 8G 3G27G23G16G13G19
  22873015.28247 120198537.12347      2673.57047        43.900    22873016.51142
  93661214.91542      2083.29742        34.300
  21833846.58647 114737682.66047      -731.85247        45.200    21833847.46044
  89406003.29444      -570.27744        37.900
  21504141.13648 113005064.03548      1694.19148        46.700    21504141.97446
  88055923.52846      1320.14546        41.200
  22113922.96447 113365632.20047     -3175.10947        43.800    22113921.49545
  88337334.72845     -2474.11345        40.100
  24776820.10343 130203087.60353     -3332.59043        34.800

  20327426.60049 106821352.49049      -811.27749        47.800    20327426.55946
  83237449.51246      -632.16846        43.200
  21901952.28048 115095589.56948      1835.73448        45.800    21901951.23946
  89684899.41646      1430.43846        41.200
 04 09 01 22 18  0.0000000  0  7G 8G 3G27G23G16G13G19
  22842494.82747 120038152.18047      2670.25047        44.000    22842496.32143
  93536239.72643      2080.71143        35.200
  21842401.09847 114782636.17647      -769.22347        45.400    21842401.84344
  89441031.99844      -599.39844        38.400
  21484818.22648 112903520.74648      1687.90248        46.600    21484819.02646
  87976798.91246      1315.27746        41.200
  22150270.39747 113556640.99347     -3194.19147        43.600    22150269.45245
  88486172.63845     -2488.98445        39.800
  24814840.28242 130402866.53252     -3330.17242        32.800    24814847.06741
 101612648.69451     -2594.94141        30.400
  20336877.10349 106871015.01949      -846.86749        47.900    20336876.96546
  83276147.56846      -659.89846        43.300
  21881144.45848 114986242.91748      1806.43448        45.700    21881143.33145
  89599694.28445      1407.60545        41.100
 04 09 01 22 19  0.0000000  0  6G 8G 3G27G23G13G19
  22812032.76647 119878073.41447      2662.70347        44.100    22812034.24344
  93411503.10244      2074.83244        37.700
  21851403.62347 114829944.74847      -811.12147        45.200    21851404.15444
  89477895.81244      -632.04744        38.300
  21465590.37748 112802478.01948      1676.62948        46.900    21465591.19845
  87898064.34445      1306.43845        40.900
  22186854.33147 113748889.84347     -3217.59047        44.200    22186853.87145
  88635976.78545     -2507.21545        39.800
  20346754.60249 106922921.27349      -886.81349        48.000    20346754.38146
  83316593.97746      -691.02746        42.000
  21860692.83248 114878770.52448      1772.54748        45.600    21860691.78445
  89515949.62845      1381.20345        40.900
 04 09 01 22 20  0.0000000  0  7G 8G 3G27G23G16G13G19
  22781634.80547 119718331.40747      2661.35547        44.000    22781636.63443
  93287028.90243      2073.78143        36.600
  21860857.82647 114879626.70547      -845.97347        45.300    21860858.36244
  89516609.01844      -659.20344        38.300
  21446463.93548 112701967.12748      1672.48848        47.300    21446464.42145
  87819744.17345      1303.27045        40.600
  22223676.37847 113942386.89947     -3233.44147        44.900    22223675.29445
  88786753.58745     -2519.56645        39.600
  24890864.54242 130802367.88752     -3327.11342        33.200    24890867.08341
 101923939.45651     -2592.55941        26.400
  20357063.35749 106977093.44249      -919.86349        48.000    20357063.09446
  83358806.02446      -716.78146        42.700
  21840605.93348 114773213.97048      1745.02748        45.600    21840604.78946
  89433697.82946      1359.75846        41.200
 04 09 01 22 21  0.0000000  0  6G 8G 3G27G23G13G19
  22751295.94147 119558898.68647      2654.16847        43.800    22751297.36743
  93162795.66543      2068.18043        35.600
  21870755.90547 114931642.41847      -886.90647        44.600    21870756.87045
  89557140.73545      -691.09845        39.000
  21427433.61148 112601961.55548      1661.88748        47.100    21427433.85046
  87741817.76146      1294.99646        41.600
  22260726.10047 114137081.79847     -3255.49647        45.100    22260724.57244
  88938463.76644     -2536.75444        38.800
  20367796.35149 107033496.47649      -959.25849        48.000    20367796.25646
  83402756.41546      -747.47746        43.200
  21820880.95548 114669557.60948      1711.12548        45.900    21820879.54045
  89352926.70545      1333.34045        41.000
 04 09 01 22 22  0.0000000  0  6G 8G 3G27G23G13G19
  22721026.24946 119399831.40446      2648.55546        42.900    22721027.75644
  93038847.22944      2063.80544        37.700
  21881106.38047 114986035.21547      -925.90647        44.600    21881107.78545
  89599524.70945      -721.48845        39.100
  21408509.82848 112502518.19648      1653.15248        47.100    21408510.62945
  87664329.45745      1288.16845        41.100
  22298009.42247 114333007.34547     -3275.05947        44.000    22298007.74645
  89091132.86545     -2551.99645        39.200
  20378962.95549 107092177.56149      -996.60249        48.100    20378962.80746
  83448481.91646      -776.57446        42.900
  21801530.24548 114567868.29248      1678.80548        46.100    21801528.96746
  89273688.34546      1308.15646        41.400
 04 09 01 22 23  0.0000000  0  6G 8G 3G27G23G13G19
  22690822.57046 119241111.32246      2642.41446        42.700    22690824.25944
  92915169.31444      2059.02044        37.800
  21891903.49347 115042774.59647      -965.19147        44.600    21891905.08244
  89643737.18744      -752.10244        38.600
  21389690.35548 112403621.13048      1643.58648        46.900    21389691.20446
  87587266.83646      1280.71546        41.200
  22335519.01947 114530123.45047     -3295.14547        44.100    22335517.63944
  89244729.64944     -2567.64844        38.000
  20390558.40849 107153110.73449     -1034.40649        48.300    20390558.01146
  83495962.27646      -806.03546        42.600
  21782552.45748 114468139.83548      1645.54348        45.900    21782551.23846
  89195977.93646      1282.23846        41.200
 04 09 01 22 24  0.0000000  0  7G 8G 3G27G23G13G19G28
  22660685.24346 119082739.20646      2636.43846        42.100    22660687.02344
  92791762.55844      2054.36344        38.400
  21903144.78047 115101846.64447     -1003.88347        44.900    21903145.84544
  89689767.35244      -782.25044        38.400
  21370974.94548 112305271.26548      1634.64848        46.900    21370975.64246
  87510630.60046      1273.75046        41.500
  22373251.36247 114728406.57847     -3314.41047        44.600    22373249.98145
  89399235.82145     -2582.66045        39.000
  20402580.30049 107216287.05549     -1071.50449        47.900    20402580.27246
  83545190.55146      -834.94146        42.900
  21763949.72148 114370382.08648      1612.79348        45.900    21763948.45746
  89119803.14146      1256.71946        41.500
  24818956.10345 130424485.40655      3090.80145        40.800    24818959.02442
 101629481.47352      2408.42242        33.400
 04 09 01 22 25  0.0000000  0  7G 8G 3G27G23G13G19G28
  22630615.91846 118924722.92846      2630.34446        42.900    22630617.39744
  92668633.05444      2049.61744        37.200
  21914828.39147 115163245.33647     -1042.79747        44.700    21914829.54744
  89737610.47344      -812.57044        38.600
  21352365.43848 112207477.16648      1625.17248        47.100    21352365.80545
  87434427.42645      1266.36345        40.700
  22411202.63547 114927841.01947     -3333.41047        44.300    22411201.32244
  89554639.07844     -2597.46544        37.200
  20415028.66249 107281703.92249     -1108.95349        48.100    20415028.57446
  83596164.71546      -864.12146        43.000
  21745725.18848 114274612.88148      1579.29748        45.700    21745723.99846
  89045177.85846      1230.61746        41.500
  24783717.30745 130239306.13045      3081.85545        40.600    24783720.11642
 101485186.22542      2401.44542        32.700
 04 09 01 22 26  0.0000000  0  7G 8G 3G27G23G13G19G28
  22600616.74646 118767077.08946      2623.48446        43.000    22600618.38544
  92545792.24244      2044.27044        37.300
  21926955.09647 115226970.65947     -1082.04747        45.300    21926955.92344
  89787266.56844      -843.15644        38.200
  21333864.53248 112110254.48348      1614.92248        46.800    21333864.81545
  87358669.50845      1258.37945        41.000
  22449371.01047 115128417.15147     -3353.07847        44.400    22449369.88144
  89710931.96944     -2612.79344        38.000
  20427904.35449 107349365.30149     -1147.05549        48.300    20427904.13046
  83648887.83446      -893.81346        42.600
  21727883.66748 114180855.88448      1545.10948        45.700    21727882.48046
  88972120.50646      1203.97746        41.500
  24748579.41245 130054658.86645      3072.40245        39.800    24748582.62741
 101341305.53441      2394.07841        29.300
 04 09 01 22 27  0.0000000  0  7G 8G 3G27G23G13G19G28
  22570685.99546 118609789.61746      2618.37146        43.200    22570687.32144
  92423230.66344      2040.28544        38.400
  21939519.55747 115292995.84047     -1119.65247        45.300    21939519.95244
  89838714.76544      -872.46144        37.500
  21315470.28548 112013593.20648      1606.24648        47.100    21315470.82946
  87283349.05346      1251.61746        41.300
  22487750.24247 115330100.00747     -3370.65247        44.400    22487749.21344
  89868087.28044     -2626.48444        37.800
  20441202.96449 107419249.69949     -1183.34449        48.400    20441202.68346
  83703343.18146      -922.09046        43.100
  21710424.87748 114089109.07348      1512.16848        46.000    21710423.64646
  88900629.54846      1178.30946        41.300
  24713541.35045 129870533.72645      3064.30145        40.000    24713544.74243
 101197831.72043      2387.76643        35.700
 04 09 01 22 28  0.0000000  0  7G 8G 3G27G23G13G19G28
  22540828.23847 118452886.09647      2611.73447        43.800    22540829.61044
  92300968.26544      2035.11344        38.400
  21952523.05047 115361330.22647     -1158.21947        45.100    21952523.61644
  89891962.33744      -902.51244        37.300
  21297188.23948 111917519.12648      1596.14548        47.200    21297188.80946
  87208486.14946      1243.74646        41.900
  22526340.01747 115532889.97047     -3389.16847        44.800    22526339.05044
  90026105.27544     -2640.91444        38.200
  20454927.01449 107491370.61849     -1220.63349        48.400    20454926.83646
  83759541.28146      -951.14546        42.900
  21693355.10948 113999406.34848      1477.84048        46.000    21693353.65346
  88830731.36346      1151.55946        41.300
  24678607.38745 129686956.73845      3054.75045        39.700    24678611.14942
 101054784.97842      2380.32442        33.600
 04 09 01 22 29  0.0000000  0  7G 8G 3G27G23G13G19G28
  22511043.56547 118296366.50147      2605.37947        44.400    22511044.77745
  92179005.01045      2030.16445        39.000
  21965963.05647 115431958.98347     -1196.09847        44.900    21965963.84144
  89946997.70644      -932.02744        37.400
  21279018.00348 111822033.48548      1586.46948        46.800    21279018.57646
  87134081.77646      1236.20746        42.800
  22565135.95147 115736762.94347     -3406.65247        44.300    22565134.98744
  90184967.13744     -2654.54344        38.100
  20469074.74249 107565717.06849     -1257.61749        48.300    20469074.71246
  83817473.54346      -979.96546        42.600
  21676675.68348 113911756.12448      1443.63348        45.900    21676674.24545
  88762432.53045      1124.90645        41.000
  24643778.08045 129503928.80045      3046.13345        40.400    24643781.86241
 100912166.03041      2373.60541        31.600
 04 09 01 22 30  0.0000000  0  7G 8G 3G27G23G13G19G28
  22481333.10347 118140237.82847      2598.92647        44.200    22481334.32144
  92057346.38244      2025.13344        37.300
  21979837.65447 115504871.26247     -1233.97747        44.800    21979838.83744
  90003812.48444      -961.54344        37.700
  21260961.02548 111727144.38248      1576.68848        46.900    21260961.77146
  87060142.24046      1228.58646        41.800
  22604134.55047 115941701.49847     -3424.32047        43.700    22604133.72044
  90344659.34144     -2668.30944        37.200
  20483644.85549 107642283.21049     -1294.52349        48.400    20483644.78746
  83877135.44846     -1008.72346        42.600
  21660389.62348 113826172.83848      1409.32448        46.300    21660388.41046
  88695744.29646      1098.17246        41.500
  24609054.78345 129321457.20445      3036.63745        40.300    24609058.15841
 100769980.67341      2366.21541        30.300
 04 09 01 22 31  0.0000000  0  7G 8G 3G27G23G13G19G28
  22451697.14247 117984500.08447      2591.81647        44.100    22451698.29944
  91935992.34644      2019.59444        38.700
  21994143.75047 115580049.65347     -1272.18047        44.700    21994144.87945
  90062393.02945      -991.31345        39.100
  21243017.78348 111632851.94748      1566.26248        47.200    21243018.49746
  86986667.64846      1220.46146        42.400
  22643330.98047 116147679.80547     -3441.96547        43.500    22643330.24844
  90505161.75944     -2682.05544        38.000
  20498634.78549 107721055.89849     -1331.52349        48.100    20498634.57846
  83938516.73646     -1037.55546        42.300
  21644498.41748 113742663.37948      1374.09848        46.200    21644497.11645
  88630672.03245      1070.72345        40.700
  24574437.78645 129139541.88845      3026.90645        40.100    24574440.71742
 100628228.71942      2358.62542        33.600
 04 09 01 22 32  0.0000000  0  7G 8G 3G27G23G13G19G28
  22422139.35447 117829174.26447      2585.24247        44.000    22422140.66443
  91814959.30143      2014.47343        35.900
  22008881.93047 115657499.04447     -1309.66047        45.100    22008883.12544
  90122743.19544     -1020.52044        38.400
  21225192.53748 111539179.53848      1555.97748        47.300    21225193.34646
  86913676.19746      1212.44546        42.000
  22682724.69147 116354694.92747     -3458.94947        43.700    22682724.12244
  90666472.06944     -2695.29344        37.700
  20514046.35349 107802044.07849     -1368.15249        48.400    20514046.11446
  84001624.36646     -1066.09846        41.900
  21629007.15148 113661256.51948      1339.21148        46.100    21629005.90645
  88567238.15345      1043.53945        40.800
  24539930.44045 128958205.07045      3017.72745        39.800    24539933.05141
 100486927.59541      2351.47341        29.500
 04 09 01 22 33  0.0000000  0  7G 8G 3G27G23G13G19G28
  22392659.84347 117674257.39247      2578.65647        43.600    22392660.94944
  91694244.92244      2009.34044        37.500
  22024048.18347 115737198.07547     -1346.74247        45.000    22024049.14044
  90184846.32144     -1049.41444        37.900
  21207484.72648 111446124.27248      1545.86348        47.100    21207485.34046
  86841165.63246      1204.56646        42.700
  22722310.34547 116562718.09847     -3475.35947        44.000    22722309.76345
  90828567.87645     -2708.07445        39.500
  20529876.25649 107885230.91349     -1404.64849        48.200    20529876.08646
  84066445.24146     -1094.53546        42.300
  21613916.63848 113581955.40248      1304.22748        46.300    21613915.49045
  88505445.12645      1016.27745        41.000
  24505532.26644 128777442.88444      3008.02744        38.500    24505534.58541
 100346074.22241      2343.91841        30.800
 04 09 01 22 34  0.0000000  0  7G 8G 3G27G23G13G19G28
  22363259.76646 117519760.30046      2571.46546        43.300    22363261.06144
  91573857.62144      2003.73444        37.900
  22039641.06047 115819139.26747     -1384.35947        44.800    22039642.10245
  90248696.59045     -1078.72745        38.900
  21189896.50848 111353698.18948      1535.27348        46.800    21189897.12946
  86769145.35146      1196.31346        41.800
  22762084.91347 116771734.46747     -3491.62547        43.400    22762084.36045
  90991437.60245     -2720.75045        38.900
  20546123.93149 107970613.13549     -1441.23049        48.200    20546123.82746
  84132976.81146     -1123.03946        42.200
  21599229.98248 113504776.92148      1268.52048        46.300    21599228.56646
  88445306.09946       988.45346        41.400
  24471245.47844 128597266.27344      2997.88344        37.700    24471247.31741
 100205677.10941      2336.00841        31.300
 04 09 01 22 35  0.0000000  0  7G 8G 3G27G23G13G19G28
  22333941.32646 117365690.44246      2564.15246        43.200    22333942.53244
  91453803.25444      1998.03944        37.600
  22055658.44747 115903310.88147     -1421.27347        44.500    22055659.71244
  90314284.84844     -1107.48844        38.500
  21172429.63248 111261909.50448      1524.46548        47.000    21172430.34646
  86697621.74046      1187.89146        42.100
  22802045.32247 116981725.85247     -3508.06647        43.400    22802044.66544
  91155067.05344     -2733.56344        37.900
  20562787.95149 108058183.36449     -1477.66449        48.200    20562788.12546
  84201213.30746     -1151.43046        41.700
  21584949.56748 113429733.97548      1232.87148        46.200    21584948.27046
  88386831.12346       960.67646        41.200
  24437070.88644 128417682.05944      2988.02744        38.600    24437074.00243
 100065741.57343      2328.32843        34.600
 04 09 01 22 36  0.0000000  0  7G 8G 3G27G23G13G19G28
  22304705.24446 117212054.23246      2557.18046        43.100    22304706.41544
  91334086.78444      1992.60544        37.400
  22072097.90447 115989701.08647     -1458.14147        44.300    22072099.12144
  90381601.86944     -1136.21544        38.800
  21155085.67748 111170766.44148      1513.77348        46.800    21155086.22146
  86626601.20246      1179.55946        41.800
  22842187.80947 117192673.76347     -3523.48847        43.600    22842186.92644
  91319441.90644     -2745.57844        37.800
  20579867.10849 108147934.35249     -1513.94549        48.100    20579867.11446
  84271149.10746     -1179.69946        42.700
  21571078.06748 113356839.13048      1196.92648        46.100    21571076.89346
  88330029.99346       932.66846        41.500
  24403010.88245 128238696.79045      2978.18845        40.000    24403014.33442
  99926272.76742      2320.66442        32.800
 04 09 01 22 37  0.0000000  0  7G 8G 3G27G23G13G19G28
  22275552.79547 117058856.84947      2549.80947        43.800    22275553.87544
  91214712.27444      1986.85944        38.300
  22088956.63547 116078294.04247     -1494.92647        44.300    22088957.71845
  90450635.32845     -1164.87945        39.500
  21137865.38748 111080274.14648      1502.98048        46.600    21137866.00146
  86556087.74846      1171.15246        42.100
  22882507.82147 117404556.18747     -3538.87147        43.900    22882506.90144
  91484544.90044     -2757.56644        37.700
  20597359.03649 108239854.82049     -1549.97749        48.100    20597359.02146
  84342775.41446     -1207.77746        41.700
  21557617.20048 113286101.00948      1161.16848        46.200    21557616.06846
  88274909.41446       904.80546        41.900
  24369065.95145 128060313.92045      2968.08245        40.000    24369068.82741
  99787273.36441      2312.79341        31.400
 04 09 01 22 38  0.0000000  0  7G 8G 3G27G23G13G19G28
  22246485.33147 116906106.96647      2542.09047        43.900    22246486.18243
  91095686.46143      1980.84843        36.000
  22106232.62847 116169080.18947     -1531.32047        43.700    22106233.82544
  90521377.76144     -1193.23844        38.000
  21120771.05748 110990443.34248      1491.49248        47.000    21120771.67946
  86486089.75546      1162.19946        41.700
  22923002.36347 117617356.63647     -3554.37547        43.600    22923001.93644
  91650363.21844     -2769.64844        37.100
  20615262.53149 108333938.47149     -1586.03149        48.100    20615262.64846
  84416087.30446     -1235.87146        41.600
  21544569.36048 113217533.89948      1124.67248        46.600    21544567.99546
  88221480.53546       876.36346        41.800
  24335237.04745 127882541.92945      2957.82045        41.000    24335239.71341
  99648749.98941      2304.80141        31.000
 04 09 01 22 39  0.0000000  0  8G 8G10G 3G27G23G13G19G28
  22217505.68147 116753817.98547      2534.42647        44.600    22217506.60744
  90977019.79644      1974.87544        37.500
  24518078.24141 128843361.61951       530.94541        31.600    24518080.27541
 100397443.54751       413.76241        23.000
  22123924.04947 116262050.31947     -1567.59447        43.700    22123925.40644
  90593822.00444     -1221.50444        38.500
  21103805.26648 110901286.62248      1480.49248        47.500    21103805.69546
  86416617.01246      1153.62946        41.700
  22963668.58746 117831060.47846     -3569.08246        43.200    22963668.35743
  91816885.51243     -2781.10943        35.500
  20633576.99749 108430180.83949     -1621.81649        48.500    20633576.97146
  84491081.31046     -1263.75846        42.000
  21531937.48048 113151152.66248      1088.02348        46.600    21531935.86446
  88169754.93846       847.80946        42.100
  24301526.41346 127705391.19246      2947.49646        41.500    24301528.56142
  99510710.63942      2296.74642        32.400
 04 09 01 22 40  0.0000000  0  7G 8G 3G27G23G13G19G28
  22188614.47447 116601993.37647      2526.65247        44.600    22188615.40144
  90858714.96544      1968.81644        38.000
  22142028.24447 116357188.30747     -1603.49647        44.100    22142029.41244
  90667955.49644     -1249.48044        38.100
  21086968.79048 110812810.13248      1468.99248        47.500    21086969.08446
  86347674.30846      1144.66846        41.800
  23004503.01647 118045646.43947     -3583.53547        43.700    23004502.87444
  91984095.15744     -2792.36744        38.600
  20652299.99849 108528570.59249     -1657.46149        48.400    20652299.83646
  84567748.60046     -1291.53146        41.500
  21519723.15448 113086966.11248      1051.64848        46.400    21519721.51346
  88119739.47046       819.46546        41.400
  24267934.56846 127528865.66946      2937.09446        41.500    24267936.71641
  99373158.48841      2288.64541        32.000
 04 09 01 22 41  0.0000000  0  7G 8G 3G27G23G13G19G28
  22159811.85847 116450635.65747      2518.35247        44.500    22159812.98844
  90740773.94644      1962.34844        37.300
  22160541.29647 116454474.57647     -1639.84447        44.000    22160542.34245
  90743762.97045     -1277.80545        39.400
  21070262.17349 110725016.45449      1457.05549        47.800    21070262.43846
  86279263.66946      1135.36346        41.400
  23045500.57747 118261089.58147     -3598.27747        44.100    23045500.29244
  92151972.70944     -2803.85544        37.600
  20671428.75449 108629091.81549     -1693.36349        48.300    20671428.41446
  84646076.78246     -1319.50846        41.600
  21507927.29748 113024979.04948      1014.37948        46.200    21507925.83846
  88071437.89746       790.42246        41.600
  24234461.63646 127352965.20846      2926.04346        41.400    24234464.30443
  99236093.41543      2280.03143        35.300
 04 09 01 22 42  0.0000000  0  8G 8G10G 3G27G23G13G19G28
  22131102.19947 116299767.50447      2510.41047        44.600    22131103.55444
  90623214.41344      1956.16044        37.500
  24501745.16742 128757531.83052       422.85242        34.200    24501753.64641
 100330569.68551       329.50041        28.500
  22179463.28047 116553910.16347     -1675.00847        44.000    22179464.43944
  90821245.22644     -1305.20344        38.500
  21053690.09149 110637929.40349      1445.53549        47.800    21053690.43346
  86211403.65246      1126.38746        42.100
  23086660.69647 118477385.66347     -3611.71947        43.700    23086659.96044
  92320514.91644     -2814.33244        37.700
  20690964.06549 108731750.47249     -1728.72349        48.400    20690963.74246
  84726070.49946     -1347.05946        41.400
  21496554.64648 112965216.52448       977.60948        46.200    21496553.38746
  88024869.73346       761.77046        41.900
  24201111.34245 127177710.87245      2915.50845        40.700    24201113.84541
  99099531.80141      2271.82041        32.100
 04 09 01 22 43  0.0000000  0  8G 8G10G 3G27G23G13G19G28
  22102485.04547 116149382.74247      2502.45747        44.300    22102486.34643
  90506031.54043      1949.96543        36.600
  24497130.99443 128733287.60753       385.45343        35.600    24497133.19341
 100311674.05851       300.35241        20.500
  22198788.68047 116655466.13047     -1709.96947        44.100    22198790.06344
  90900379.73444     -1332.44544        38.000
  21037251.32548 110551542.81148      1433.85548        47.700    21037251.68146
  86144089.43546      1117.28546        41.400
  23127976.77047 118694500.70047     -3625.43047        44.400    23127975.92044
  92489695.26444     -2825.01244        36.700
  20710900.85349 108836521.03149     -1763.68449        48.300    20710900.90746
  84807709.86046     -1374.30146        41.700
  21485604.37148 112907673.40548       940.51648        46.300    21485603.24646
  87980030.97646       732.86746        41.800
  24167882.56645 127003093.78945      2904.77045        40.400    24167884.88442
  98963466.77342      2263.45342        32.300
 04 09 01 22 44  0.0000000  0  8G 8G10G 3G27G23G13G19G28
  22073962.32947 115999494.58547      2494.34047        44.600    22073963.43343
  90389235.62143      1943.63743        36.000
  24492935.01043 128711227.15353       350.27043        35.400    24492935.70841
 100294448.12651       272.93041        31.500
  22218516.06047 116759134.37447     -1744.77347        43.800    22218517.50144
  90981160.15744     -1359.56644        38.200
  21020948.65348 110465871.90548      1422.26648        47.600    21020948.94246
  86077332.89946      1108.25446        41.900
  23169445.92047 118912421.57947     -3638.35947        43.900    23169445.55544
  92659503.55244     -2835.09044        36.700
  20731239.31549 108943399.33149     -1798.39849        48.400    20731239.40845
  84890991.60845     -1401.35245        41.100
  21475079.52448 112852365.53248       903.38348        46.100    21475078.42346
  87936933.97046       703.93046        41.500
  24134777.56746 126829125.59746      2894.31346        41.300    24134779.53841
  98827907.33341      2255.30941        30.300
 04 09 01 22 45  0.0000000  0  8G 8G10G 3G27G23G13G19G28
  22045536.64147 115850115.68047      2485.34447        44.800    22045537.56544
  90272836.51744      1936.62944        38.000
  24489151.68843 128691349.22553       313.20343        36.200    24489154.79541
 100278969.95251       244.05141        17.700
  22238643.23547 116864902.88847     -1780.27347        44.200    22238644.51944
  91063577.16344     -1387.23044        38.400
  21004784.36248 110380928.84148      1409.64148        47.700    21004784.99346
  86011143.51946      1098.41846        41.800
  23211065.33947 119131132.49047     -3651.56347        44.200    23211064.98844
  92829927.45044     -2845.37544        36.700
  20751977.39049 109052378.38649     -1833.78149        48.300    20751977.47846
  84975910.29746     -1428.92246        41.800
  21464982.61048 112799305.03648       865.61348        46.600    21464981.30846
  87895588.16946       674.50046        42.000
  24101797.61446 126655815.07646      2883.23046        41.600    24101799.40141
  98692860.38441      2246.67241        29.600
 04 09 01 22 46  0.0000000  0  8G 8G10G 3G27G23G13G19G28
  22017208.51147 115701251.01647      2476.98447        45.000    22017209.36744
  90156838.14144      1930.11344        37.400
  24485784.29943 128673658.08943       276.31643        35.600    24485787.48241
 100265211.67751       215.30541        28.400
  22259166.88047 116972754.67347     -1814.61347        43.900    22259168.20145
  91147617.48045     -1413.98845        39.100
  20988760.10448 110296720.48548      1397.37948        47.700    20988760.76946
  85945526.64246      1088.86346        42.200
  23252830.93447 119350612.17647     -3664.14847        44.200    23252830.93343
  93000950.38643     -2855.18443        35.200
  20773112.70449 109163444.52749     -1868.32049        48.400    20773112.62045
  85062455.30245     -1455.83645        41.100
  21455314.73248 112748498.30848       828.04748        46.900    21455313.09946
  87855998.55346       645.22746        42.000
  24068943.59346 126483165.83746      2871.95346        41.700    24068945.47341
  98558328.66441      2237.88341        28.500
 04 09 01 22 47  0.0000000  0  8G 8G10G 3G27G23G13G19G28
  21988979.82947 115552908.99847      2467.98047        44.800    21988981.01044
  90041247.02144      1923.09844        37.800
  24482833.10843 128658147.99543       239.81343        35.400    24482835.07141
 100253125.86441       186.85941        31.500
  22280083.92647 117082673.66447     -1849.06647        44.400    22280084.93344
  91233268.61844     -1440.83644        37.800
  20972877.43449 110213255.72049      1384.82049        48.000    20972877.93246
  85880489.17846      1079.07846        42.700
  23294738.99947 119570840.36447     -3676.59447        43.700    23294738.98343
  93172556.55943     -2864.88343        35.300
  20794642.80249 109276586.02149     -1902.89149        48.600    20794642.90746
  85150617.43746     -1482.77346        41.400
  21446077.00248 112699953.64348       790.06648        46.800    21446075.41846
  87818171.57946       615.63346        42.400
  24036216.11445 126311183.19445      2860.95745        41.100    24036217.91841
  98424316.40341      2229.31641        28.700
 04 09 01 22 48  0.0000000  0  8G 8G10G 3G27G23G13G19G28
  21960852.84547 115405099.87247      2459.07047        45.300    21960853.72944
  89926071.14244      1916.15644        37.900
  24480296.18443 128644817.79043       204.27043        36.400    24480297.42441
 100242738.71441       159.16841        27.000
  22301391.50347 117194645.94247     -1883.21147        44.300    22301392.41444
  91320519.72544     -1467.44144        37.800
  20957138.12949 110130545.44549      1372.16849        47.800    20957138.57246
  85816039.64246      1069.21946        41.700
  23336786.42947 119791799.54247     -3688.68047        44.400    23336786.17144
  93344732.35744     -2874.30144        36.700
  20816565.99749 109391792.72749     -1937.14549        48.300    20816566.10545
  85240388.83845     -1509.46545        41.100
  21437271.42048 112653680.49748       752.19948        46.600    21437269.96346
  87782114.61146       586.12546        42.000
  24003616.77146 126139873.60346      2849.66846        41.400    24003618.78341
  98290828.54941      2220.51641        30.900
 04 09 01 22 49  0.0000000  0  8G 8G10G 3G27G23G13G19G28
  21932828.58648 115257831.71248      2450.04348        45.800    21932829.50544
  89811316.80044      1909.12144        38.800
  24478174.28743 128633665.20943       167.93443        35.300    24478175.17341
 100234048.43741       130.85541        32.000
  22323086.63947 117308655.30647     -1916.90647        44.400    22323087.92144
  91409358.16244     -1493.69544        38.400
  20941543.89049 110048598.39549      1359.52049        47.800    20941544.54846
  85752184.83246      1059.36346        42.700
  23378968.81047 120013469.83347     -3700.34047        43.700    23378968.50843
  93517462.17843     -2883.39543        34.600
  20838879.90749 109509052.56549     -1971.39849        48.400    20838879.99045
  85331760.09445     -1536.15645        41.100
  21428899.26448 112609685.78848       714.27348        46.700    21428898.07646
  87747833.05646       556.57446        42.700
  23971146.29746 125969242.22146      2838.21946        41.400    23971148.78043
  98157869.22943      2211.59843        35.500
 04 09 01 22 50  0.0000000  0  8G 8G10G 3G27G23G13G19G28
  21904908.48948 115111111.18248      2440.69548        45.600    21904909.54745
  89696989.17845      1901.83645        39.000
  24476465.61743 128624685.21043       131.17643        36.000    24476466.90041
 100227050.98641       102.21141        28.200
  22345166.30747 117424683.51347     -1950.62547        44.900    22345167.27444
  91499769.73644     -1519.97344        38.300
  20926096.55049 109967422.21149      1346.40249        47.800    20926097.22546
  85688930.68746      1049.14146        42.600
  23421282.72847 120235829.66947     -3711.60947        43.900    23421281.64742
  93690729.37742     -2892.17242        32.800
  20861581.46449 109628350.95849     -2005.27349        48.200    20861581.68345
  85424719.81245     -1562.55545        40.700
  21420961.97848 112567975.02448       676.02048        46.500    21420960.75346
  87715331.17446       526.76646        41.700
  23938805.84246 125799292.27046      2826.69946        42.100    23938808.18842
  98025440.87642      2202.62142        33.800
 04 09 01 22 51  0.0000000  0  8G 8G10G 3G27G23G13G19G28
  21877095.47548 114964952.26348      2431.46948        45.700    21877096.46644
  89583099.18744      1894.64844        37.900
  24475170.46043 128617878.56343        95.57043        36.400    24475175.19241
 100221739.07251        74.46941        29.600
  22367627.64547 117542718.80347     -1983.93847        44.600    22367628.61145
  91591745.26845     -1545.93045        39.100
  20910798.52449 109887030.66049      1333.33649        47.800    20910799.01946
  85626287.94346      1038.96146        42.200
  23463725.04146 120458864.29246     -3722.67246        43.200    23463723.75843
  93864522.38843     -2900.78943        35.700
  20884669.48949 109749679.37749     -2038.93449        47.900    20884669.76546
  85519261.38446     -1588.78146        41.400
  21413461.24648 112528559.01248       637.80548        46.700    21413459.92846
  87684617.42746       496.98846        41.900
  23906596.87346 125630032.69846      2815.20346        42.400    23906598.64843
  97893550.48343      2193.66043        35.000
 04 09 01 22 52  0.0000000  0  8G 8G10G 3G27G23G13G19G28
  21849390.46648 114819362.77448      2421.82848        45.700    21849391.38444
  89469652.89944      1887.13744        37.500
  24474287.87842 128613241.59842        59.36742        33.800    24474289.95343
 100218125.87053        46.25843        36.000
  22390467.54447 117662743.54547     -2016.73447        44.400    22390468.65044
  91685271.02144     -1571.48444        37.700
  20895651.58649 109807432.56049      1320.14149        48.000    20895652.02046
  85564263.47946      1028.68046        43.100
  23506291.86646 120682553.02446     -3733.36346        43.100    23506290.55243
  94038825.00143     -2909.11743        35.000
  20908141.33049 109873024.61649     -2072.27749        48.100    20908141.33945
  85615374.50845     -1614.76645        40.700
  21406398.46548 112491443.41848       599.54348        47.000    21406396.84146
  87655696.21746       467.17246        41.700
  23874520.04846 125461468.02746      2803.76246        42.300    23874522.04142
  97762201.59242      2184.74642        33.400
 04 09 01 22 53  0.0000000  0  8G 8G10G 3G27G23G13G19G28
  21821795.67848 114674351.28548      2411.94148        45.700    21821796.59744
  89356656.99744      1879.43444        38.000
  24473817.43043 128610769.49343        23.33643        35.600    24473820.64141
 100216199.51141        18.17241        24.600
  22413682.81547 117784740.09647     -2049.64147        44.200    22413683.72443
  91780333.24143     -1597.12543        36.200
  20880657.42749 109728637.24049      1306.48449        48.200    20880657.94146
  85502864.53946      1018.03546        43.000
  23548979.45847 120906876.16647     -3743.94147        43.600    23548978.19841
  94213622.03441     -2917.35941        30.800
  20931994.48349 109998372.97049     -2105.80149        48.400    20931994.58945
  85713048.47645     -1640.88745        40.400
  21399774.47548 112456633.99648       560.84448        46.900    21399772.84046
  87628572.02646       437.02046        42.000
  23842576.12646 125293602.63146      2791.77746        42.000    23842577.58943
  97631397.56743      2175.41043        35.600
 04 09 01 22 54  0.0000000  0  8G 8G10G 3G27G23G13G19G28
  21794312.94148 114529928.64148      2402.16848        45.900    21794313.73044
  89244119.91244      1871.81644        38.100
  24473758.51844 128610459.16744       -12.43044        37.900    24473762.08941
 100215957.61241        -9.69941        26.100
  22437270.09547 117908692.84547     -2082.04347        44.200    22437271.18844
  91876919.76544     -1622.37544        38.400
  20865818.01849 109650655.82649      1292.96549        48.200    20865818.47046
  85442099.81546      1007.50046        42.600
  23591784.19646 121131815.44046     -3754.00846        42.700    23591783.25042
  94388899.15642     -2925.20742        34.400
  20956226.55549 110125712.49049     -2138.77749        47.900    20956226.58645
  85812274.02245     -1666.58245        40.400
  21393590.66548 112424137.54948       522.41848        46.900    21393588.94846
  87603250.15246       407.07446        41.300
  23810766.39546 125126442.39346      2780.20346        42.400    23810767.95341
  97501143.01541      2166.39141        31.600
 04 09 01 22 55  0.0000000  0  8G 8G10G 3G27G23G13G19G28
  21766943.43548 114386102.34248      2392.33248        46.000    21766944.51744
  89132047.52444      1864.15244        38.600
  24474109.54043 128612304.05143       -48.77743        34.600    24474112.21741
 100217391.20151       -38.01241        27.500
  22461226.30847 118034582.97047     -2114.14847        43.700    22461227.25244
  91975015.93444     -1647.39144        37.000
  20851135.05349 109573496.40149      1279.18449        48.100    20851135.37046
  85381975.59346       996.76246        42.000
  23634701.98247 121357349.34947     -3763.70347        43.700    23634701.64143
  94564639.58043     -2932.75843        35.800
  20980834.42749 110255027.80749     -2171.47349        48.400    20980834.64946
  85913039.14646     -1692.05946        41.200
  21387847.67248 112393957.82148       483.97348        46.800    21387845.98646
  87579733.51346       377.11746        41.900
  23779091.89146 124959990.87346      2768.60946        42.600    23779093.25442
  97371440.68642      2157.35542        32.300
 04 09 01 22 56  0.0000000  0  7G 8G 3G27G23G13G19G28
  21739689.73148 114242882.61648      2381.73048        46.200    21739690.61044
  89020447.78344      1855.89144        38.500
  22485548.11947 118162394.65947     -2146.29747        43.600    22485549.37344
  92074609.42344     -1672.44144        38.500
  20836610.70149 109497170.30849      1264.99649        48.100    20836611.02046
  85322500.72146       985.70746        42.900
  23677729.63846 121583459.84846     -3773.28146        42.900    23677729.32942
  94740829.34542     -2940.22342        34.100
  21005815.59349 110386305.92249     -2204.38749        47.900    21005816.21745
  86015333.72245     -1717.70745        40.400
  21382546.64448 112366100.79748       444.74248        46.900    21382545.05646
  87558026.77046       346.55146        42.100
  23747552.98046 124794253.75046      2756.16846        42.400    23747554.51742
  97242295.07342      2147.66042        33.700
 04 09 01 22 57  0.0000000  0  8G 8G10G 3G27G23G13G19G28
  21712553.79648 114100282.15548      2371.41848        46.300    21712554.49745
  88909330.58845      1847.85545        39.100
  24476038.66042 128622461.45952      -120.10542        34.200    24476041.03841
 100225322.61151       -93.59441        17.600
  22510232.58147 118292112.44647     -2178.07047        43.500    22510233.97943
  92175688.17443     -1697.19943        36.600
  20822247.27249 109421690.41749      1250.93049        48.000    20822247.81946
  85263685.23146       974.74646        43.200
  23720863.76946 121810130.13746     -3782.27346        43.000    23720863.75543
  94917455.28543     -2947.23443        35.700
  21031168.48649 110519535.00249     -2236.60249        48.100    21031168.82945
  86119148.52545     -1742.80945        40.400
  21377688.89648 112340573.65148       406.01648        46.600    21377687.39946
  87538135.51046       316.37146        41.700
  23716151.16946 124629238.11546      2744.27346        42.400    23716152.94642
  97113711.62342      2138.39142        34.300
 04 09 01 22 58  0.0000000  0  8G 8G10G 3G27G23G13G19G28
  21685535.91248 113958302.15848      2360.92248        46.300    21685536.54845
  88798696.86245      1839.67645        38.900
  24477616.75543 128630754.73253      -155.91843        35.800    24477623.34541
 100231763.30551      -121.49641        22.000
  22535274.61347 118423709.16647     -2209.00047        43.800    22535276.10244
  92278231.04344     -1721.30144        37.900
  20808044.99349 109347056.91449      1236.58649        48.000    20808045.70446
  85205529.26946       963.57046        42.800
  23764099.01046 122037330.93546     -3791.37546        43.000    23764099.12443
  95094494.60143     -2954.32443        36.400
  21056887.72349 110654691.07349     -2268.82049        48.200    21056888.03445
  86224464.87445     -1767.91445        40.300
  21373273.35848 112317371.07048       367.09048        46.600    21373272.12846
  87520055.60146       286.03946        42.800
  23684885.96946 124464938.99946      2732.33646        41.700    23684887.74244
  96985686.47044      2129.09044        37.100
 04 09 01 22 59  0.0000000  0  8G 8G10G 3G27G23G13G19G28
  21658641.14548 113816969.25648      2350.37948        45.800    21658641.87245
  88688567.36645      1831.46145        39.400
  24479598.16042 128641160.28052      -191.51242        32.600    24479595.14043
 100239874.46653      -149.23843        35.800
  22560674.12347 118557183.87847     -2239.94947        43.900    22560675.27544
  92382237.29044     -1745.41844        37.400
  20794009.15049 109273297.77749      1222.09449        47.900    20794009.63546
  85148054.63346       952.27746        42.100
  23807434.52646 122265060.26746     -3799.64546        42.000    23807434.92944
  95271945.73644     -2960.77044        37.800
  21082974.58449 110791777.37449     -2300.58649        47.800    21082974.75945
  86331285.32145     -1792.66845        40.700
  21369304.36148 112296513.90548       328.41848        46.300    21369303.03346
  87503803.29046       255.90646        42.000
  23653761.17746 124301378.38946      2720.04346        42.500    23653762.87343
  96858236.80443      2119.51243        35.000
 04 09 01 23 00  0.0000000  0  8G 8G10G 3G27G23G13G19G28
  21631868.53348 113676278.94448      2339.39548        46.000    21631869.42245
  88578938.58345      1822.90245        39.300
  24481985.56243 128653700.13253      -226.73843        34.600    24481987.84741
 100249653.24951      -176.68841        32.200
  22586424.64747 118692503.99847     -2270.53147        43.900    22586425.62844
  92487681.51644     -1769.25044        37.800
  20780138.75048 109200408.70448      1207.51648        47.700    20780139.23046
  85091257.96446       940.91846        42.700
  23850864.22046 122493283.75146     -3807.98046        41.200    23850864.86843
  95449781.93343     -2967.26243        35.500
  21109422.92749 110930764.04149     -2332.33649        48.300    21109423.14645
  86439586.55345     -1817.40645        39.900
  21365779.65948 112277991.57848       289.14148        46.600    21365778.36946
  87489370.32946       225.30146        42.800
  23622775.22046 124138545.82346      2707.56646        42.900    23622776.55842
  96731354.42642      2109.78942        33.500
 04 09 01 23 01  0.0000000  0  8G 8G10G 3G27G23G13G19G28
  21605221.24748 113536247.41648      2328.37948        46.000    21605222.28444
  88469823.15444      1814.31644        38.800
  24484776.25642 128668374.85352      -261.95342        34.200

  22612524.10347 118829657.20847     -2301.21147        44.000    22612525.15144
  92594554.12444     -1793.15644        37.000
  20766436.95548 109128406.14048      1192.58648        47.700    20766437.42646
  85035152.09246       929.28546        42.300
  23894384.92045 122721987.84545     -3815.61745        40.900    23894386.06243
  95627992.63443     -2973.21543        36.400
  21136231.32649 111071641.79049     -2363.48849        48.100    21136231.37545
  86549361.35345     -1841.68445        40.700
  21362700.97248 112261812.75448       250.16448        46.800    21362699.66846
  87476763.47246       194.93046        42.500
  23591929.79846 123976451.69746      2695.51646        42.900    23591931.09143
  96605047.47443      2100.39843        35.000
 04 09 01 23 02  0.0000000  0  8G 8G10G 3G27G23G13G19G28
  21578701.77148 113396886.86148      2317.57448        46.700    21578702.64845
  88361230.54545      1805.89845        39.400
  24487972.07142 128685160.86252      -296.85942        33.900

  22638969.12447 118968627.56047     -2330.81647        43.800    22638970.32244
  92702842.68644     -1816.22344        37.800
  20752906.52049 109057303.27949      1177.97749        47.900    20752906.97346
  84979747.28046       917.90246        42.300
  23937993.91745 122951155.81245     -3822.78945        40.000    23937995.84344
  95806564.77444     -2978.80544        37.600
  21163396.79149 111214397.40749     -2394.32449        47.900    21163396.95645
  86660599.42345     -1865.71145        39.600
  21360069.23448 112247982.35048       211.25848        46.600    21360067.92846
  87465986.54646       164.61346        43.100
  23561225.84646 123815102.64346      2683.33646        42.800    23561226.96443
  96479321.10543      2090.91043        35.200
 04 09 01 23 03  0.0000000  0  8G 8G10G 3G27G23G13G19G28
  21552310.44348 113258199.68448      2305.71948        46.600    21552311.65045
  88253162.65945      1796.66045        39.700
  24491566.48543 128704050.66343      -331.93443        34.800

  22665754.92447 119109387.19247     -2361.00447        44.000    22665755.93743
  92812525.48243     -1839.74643        34.800
  20739547.60048 108987101.71048      1162.37148        47.700    20739547.99646
  84925044.78646       905.74246        42.400
  23981686.02645 123180759.29745     -3830.21145        40.600    23981688.17344
  95985476.25544     -2984.58644        37.700
  21190915.05449 111359007.00349     -2425.63349        47.800    21190915.30745
  86773282.16045     -1890.10545        40.200
  21357883.08148 112236493.92248       171.67248        46.900    21357881.55846
  87457034.54746       133.76646        42.300
  23530663.07046 123654494.01446      2670.57446        42.900    23530664.11942
  96354171.66542      2080.96542        32.700
 04 09 01 23 04  0.0000000  0  8G 8G10G 3G27G23G13G19G28
  21526050.52848 113120202.17848      2294.20348        47.000    21526051.33845
  88145632.16945      1787.68845        39.400
  24495560.59643 128725040.31143      -367.10543        35.000    24495561.38741
 100305221.56951      -286.06341        22.800
  22692878.66847 119251923.41047     -2390.27747        43.800    22692879.88843
  92923592.65643     -1862.55943        36.000
  20726363.39148 108917818.21448      1146.85248        47.600    20726363.70046
  84871057.66846       893.64846        42.300
  24025459.21946 123410785.04646     -3837.10546        41.300    24025460.96042
  96164716.79842     -2989.96142        33.000
  21218784.03548 111505460.18448     -2456.14548        47.500    21218784.30745
  86887401.44245     -1913.88345        39.700
  21356144.12048 112227355.63948       132.79748        46.900    21356142.45046
  87449913.83146       103.47746        42.000
  23500242.84646 123494635.88646      2658.07446        42.700    23500244.06842
  96229607.02442      2071.22342        33.600
 04 09 01 23 05  0.0000000  0  8G 8G10G 3G27G23G13G19G28
  21499923.67448 112982904.00248      2282.52048        47.000    21499924.45245
  88038646.61145      1778.58245        40.600
  24499952.67443 128748120.64943      -401.71143        35.900    24499954.03341
 100323234.28751      -313.02041        16.500
  22720336.71546 119396216.45746     -2419.54746        43.200    22720337.91643
  93036028.74643     -1885.36343        36.500
  20713355.71049 108849462.39349      1131.54749        47.800    20713356.16147
  84817793.40847       881.72347        43.400
  24069308.89246 123641212.14846     -3843.79746        41.500    24069309.86343
  96344270.08943     -2995.17243        34.700
  21247000.73348 111653739.87348     -2486.46548        47.700    21247001.01745
  87002943.97945     -1937.50845        39.900
  21354852.30848 112220567.32748        93.52748        46.800    21354850.56046
  87444624.25646        72.87546        42.200
  23469966.05646 123335531.01646      2645.47346        42.700    23469967.09543
  96105629.34443      2061.40243        35.000
 04 09 01 23 06  0.0000000  0  8G 8G10G 3G27G23G13G19G28
  21473931.94748 112846316.81648      2270.76248        46.900    21473932.80545
  87932215.07345      1769.42245        40.700
  24504740.95344 128773283.73544      -436.70344        37.400    24504744.30341
 100342841.85141      -340.29741        29.300
  22748125.64947 119542248.15647     -2447.95347        43.600    22748126.80744
  93149819.66544     -1907.50044        37.600
  20700526.72648 108782045.74448      1115.95748        47.700    20700527.23646
  84765260.97246       869.57446        43.000
  24113231.18445 123872022.27745     -3849.94945        41.000    24113231.75544
  96524121.79144     -2999.96944        37.300
  21275562.01348 111803830.24048     -2516.26648        47.200    21275562.46345
  87119897.44845     -1960.73045        39.700
  21354007.98548 112216131.03348        54.49648        46.500    21354006.40246
  87441167.42046        42.46146        42.500
  23439833.67646 123177183.97646      2632.87146        43.000    23439834.63243
  95982242.17443      2051.59043        35.400
 04 09 01 23 07  0.0000000  0  8G 8G10G 3G27G23G13G19G28
  21448077.89948 112710453.71448      2258.31348        46.700    21448078.83645
  87826347.75845      1759.72345        40.700
  24509924.65744 128800521.53744      -471.05544        38.300    24509926.28041
 100364066.13541      -367.05941        28.100
  22776241.93546 119689999.81146     -2476.69946        43.300    22776242.99044
  93264950.79844     -1929.89844        37.800
  20687878.86048 108715580.58448      1099.89548        47.700    20687879.24147
  84713469.96147       857.05947        43.600
  24157222.60145 124103196.65145     -3855.65645        40.700    24157223.00844
  96704257.29044     -3004.41444        36.800
  21304465.15949 111955716.45149     -2546.24249        47.800    21304465.58145
  87238250.25445     -1984.09045        39.100
  21353611.70448 112214048.89348        15.16448        46.600    21353610.31146
  87439544.98246        11.81346        42.200
  23409846.37346 123019600.06146      2620.27746        43.200    23409847.30643
  95859449.63243      2041.77043        34.700
 04 09 01 23 08  0.0000000  0  8G 8G10G 3G27G23G13G19G28
  21422363.77648 112575325.02748      2246.08648        46.700    21422364.57145
  87721052.71445      1750.19545        40.400
  24515501.11343 128829826.05043      -505.49243        36.100    24515502.43641
 100386900.73341      -393.89541        26.600
  22804681.99546 119839453.48046     -2504.87546        42.800    22804683.16344
  93381408.15944     -1951.85544        36.700
  20675414.27549 108650078.37349      1083.61749        47.800    20675414.59446
  84662429.28846       844.37546        43.300
  24201279.60845 124334716.99845     -3861.48445        40.800    24201280.26343
  96884662.40743     -3008.95743        35.300
  21333706.91548 112109381.68548     -2575.78948        47.500    21333707.38245
  87357989.32945     -2007.11345        39.400
  21353663.62848 112214321.62048       -24.09848        46.800    21353662.25946
  87439757.51546       -18.78146        42.500
  23380005.07147 122862783.61747      2607.15247        43.600    23380005.73444
  95737255.14644      2031.54344        36.900
 04 09 01 23 09  0.0000000  0  8G 8G10G 3G27G23G13G19G28
  21396791.10348 112440939.78648      2233.35248        46.900    21396791.83245
  87616336.99045      1740.27045        40.300
  24521468.23844 128861184.17544      -539.58644        37.100    24521470.60441
 100411335.65541      -420.46141        17.000
  22833441.77246 119990585.82946     -2533.14846        42.800    22833442.60943
  93499173.58643     -1973.88743        35.800
  20663134.26648 108585547.06448      1067.29348        47.700    20663134.78346
  84612145.16946       831.65246        43.100
  24245398.02545 124566560.96845     -3866.54345        40.800    24245398.81443
  97065319.66343     -3012.90243        35.700
  21363283.08948 112264806.10048     -2605.17248        47.400    21363283.53544
  87479099.16344     -2030.00844        38.700
  21354163.13248 112216946.13648       -63.53948        47.000    21354161.66446
  87441802.60646       -49.51646        42.900
  23350309.74647 122706735.21847      2594.36347        43.400    23350310.72042
  95615659.13042      2021.57842        33.600
 04 09 01 23 10  0.0000000  0  8G 8G10G 3G27G23G13G19G28
  21371362.22648 112307310.56448      2220.79348        46.900    21371362.84345
  87512210.35445      1730.48445        40.300
  24527824.49344 128894587.67544      -573.91844        37.600    24527827.14741
 100437364.32341      -447.21541        25.200
  22862517.10946 120143378.84346     -2560.24646        42.600    22862518.18743
  93618233.04443     -1995.00043        35.200
  20651041.41948 108521999.08748      1050.82848        47.600    20651041.88446
  84562627.27746       818.82446        43.000
  24289575.00145 124798710.61845     -3871.80945        40.500    24289575.98444
  97246215.13744     -3016.99644        37.200
  21393191.20448 112421973.64048     -2633.95348        47.300    21393191.66244
  87601567.29844     -2052.43444        38.800
  21355110.37348 112221923.36148      -102.58648        46.900    21355108.86646
  87445680.98646       -79.94146        42.200
  23320761.65446 122551459.56746      2581.46146        43.000    23320763.02543
  95494665.24443      2011.52343        35.900
 04 09 01 23 11  0.0000000  0  8G 8G10G 3G27G23G13G19G28
  21346079.21148 112174447.34048      2207.78948        46.800    21346080.09045
  87408680.60845      1720.35245        41.000
  24534568.51944 128930025.00544      -607.60544        37.800    24534570.13741
 100464977.83341      -473.46141        29.800
  22891904.89246 120297811.39646     -2587.62546        42.400    22891905.75044
  93738570.07044     -2016.33644        36.700
  20639137.59048 108459444.35348      1034.12948        47.500    20639138.13646
  84513883.34346       805.81346        43.000
  24333805.85545 125031144.96545     -3876.09445        39.300    24333807.23244
  97427332.40544     -3020.34044        37.500
  21423427.53248 112580865.93948     -2662.60248        47.400    21423427.95344
  87725379.40644     -2074.75844        38.000
  21356504.70348 112229250.98648      -141.81648        46.800    21356503.27146
  87451390.82746      -110.50846        42.900
  23291361.01946 122396958.87946      2568.72746        42.900    23291362.24941
  95374275.25041      2001.60241        31.800
 04 09 01 23 12  0.0000000  0  8G 8G10G 3G27G23G13G19G28
  21320944.98248 112042367.02348      2194.84848        46.700    21320945.92045
  87305760.91345      1710.27045        40.600
  24541697.55844 128967490.44244      -640.94544        37.900    24541699.77741
 100494171.60541      -499.44541        21.900
  22921601.47446 120453868.54446     -2614.27746        42.300    22921602.54643
  93860172.99743     -2037.10243        36.400
  20627425.98749 108397899.37149      1017.34849        48.000    20627426.47546
  84465926.22446       792.73446        42.200
  24378087.58844 125263850.18744     -3880.84044        38.700    24378090.11344
  97608660.77744     -3024.03944        38.700
  21453989.46148 112741470.31948     -2690.89548        47.400    21453990.21645
  87850525.56945     -2096.80545        39.200
  21358347.22448 112238933.31448      -180.89148        46.900    21358345.67046
  87458935.51846      -140.95746        42.700
  23262109.49146 122243241.84646      2555.74646        43.000    23262110.73242
  95254495.86742      1991.48842        33.800
